ftp/pub/palmer/observations_modified/2019/July/AR190723_BASE.txt

Download

Sample DateTime	Unit Id	WS Avg 2min	WD Avg 2min	WGS 10min	WGD 10min	Air Temp	Rel Humidity	Dew Point	Pyranometer	Quantum	Air Pressure	Snow Level	Rainfall	PW Current	Visibility	CBase 1	CBase 2	CBase 3	Vert Vis
2019/07/23  00:00:00  BASE  6.50328  222  8.04384  212  -6.2  100   -6.2  0     0     983.4    NA       0.0000   9999     430   0     0    
2019/07/23  00:01:00  BASE  5.84472  222  8.04384  212  -6.2  100   -6.2  0     0     983.4    NA       0.0000   9999     430   0     0    
2019/07/23  00:02:00  BASE  5.145    221  8.04384  212  -6.2  100   -6.2  0     0     983.5    NA       0.0000   9999     560   0     0    
2019/07/23  00:03:00  BASE  4.69812  222  8.04384  212  -6.3  100   -6.3  0     0     983.5    NA       0.0000   9999     750   0     0    
2019/07/23  00:04:00  BASE  4.31004  221  8.04384  212  -6.3  100   -6.3  0     0     983.5    NA       0.0000   9999     660   0     0    
2019/07/23  00:05:00  BASE  4.53348  217  8.04384  212  -6.3  100   -6.3  0     0     983.5    NA       0.0000   9999     720   0     0    
2019/07/23  00:06:00  BASE  4.52172  216  8.04384  212  -6.4  100   -6.4  0     0     983.5    NA       0.0000   9999     790   0     0    
2019/07/23  00:07:00  BASE  4.41588  217  8.04384  212  -6.4  100   -6.4  0     0     983.5    NA       0.0000   9999     920   0     0    
2019/07/23  00:08:00  BASE  4.86276  218  7.71456  224  -6.4  100   -6.4  0     0     983.5    NA       0.0000   9999     820   0     0    
2019/07/23  00:09:00  BASE  4.6158   219  7.10892  224  -6.4  100   -6.4  0     0     983.5    NA       0.0000   9999     850   0     0    
2019/07/23  00:10:00  BASE  4.38648  221  5.86824  218  -6.4  100   -6.4  0     0     983.5    NA       0.0000   9999     920   0     0    
2019/07/23  00:11:00  BASE  4.851    221  5.99172  212  -6.3  100   -6.3  0     0     983.5    NA       0.0000   9999     750   0     0    
2019/07/23  00:12:00  BASE  5.74476  222  7.2912   225  -6.3  100   -6.3  0     0     983.5    NA       0.0000   9999     750   0     0    
2019/07/23  00:13:00  BASE  5.83296  225  7.2912   225  -6.3  100   -6.3  0     0     983.6    NA       0.0000   9999     720   0     0    
2019/07/23  00:14:00  BASE  5.28612  228  7.2912   225  -6.3  100   -6.3  0     0     983.6    NA       0.0000   9999     620   0     0    
2019/07/23  00:15:00  BASE  4.36296  229  7.2912   225  -6.3  100   -6.3  0     0     983.7    NA       0.0000   9999     560   0     0    
2019/07/23  00:16:00  BASE  3.47508  234  7.2912   225  -6.3  100   -6.3  0     0     983.7    NA       0.0000   9999     590   0     0    
2019/07/23  00:17:00  BASE  3.65148  237  7.2912   225  -6.4  100   -6.4  0     0     983.7    NA       0.0000   9999     1020  0     0    
2019/07/23  00:18:00  BASE  3.72792  238  7.2912   225  -6.4  100   -6.4  0     0     983.7    NA       0.0000   9999     1150  0     0    
2019/07/23  00:19:00  BASE  3.9396   239  7.2912   225  -6.4  100   -6.4  0     0     983.7    NA       0.0000   9999     750   0     0    
2019/07/23  00:20:00  BASE  4.92744  230  7.2912   225  -6.4  100   -6.4  0     0     983.7    NA       0.0000   9999     590   0     0    
2019/07/23  00:21:00  BASE  5.2626   225  7.2912   225  -6.4  100   -6.4  0     0     983.7    NA       0.0000   9999     560   0     0    
2019/07/23  00:22:00  BASE  5.01564  223  6.321    225  -6.4  100   -6.4  0     0     983.7    NA       0.0000   9999     750   0     0    
2019/07/23  00:23:00  BASE  4.68636  221  6.2916   228  -6.4  100   -6.4  0     0     983.7    NA       0.0000   9999     820   0     0    
2019/07/23  00:24:00  BASE  4.3512   226  6.13872  222  -6.4  100   -6.4  0     0     983.7    NA       0.0000   9999     920   0     0    
2019/07/23  00:25:00  BASE  4.31004  228  6.13872  222  -6.4  100   -6.4  0     0     983.7    NA       0.0000   9999     660   0     0    
2019/07/23  00:26:00  BASE  4.09248  232  6.13872  222  -6.4  100   -6.4  0     0     983.7    NA       0.0000   9999     460   0     0    
2019/07/23  00:27:00  BASE  3.68676  239  6.13872  222  -6.4  100   -6.4  0     0     983.7    NA       0.0000   9999     490   0     0    
2019/07/23  00:28:00  BASE  3.85728  237  6.13872  222  -6.4  100   -6.4  0     0     983.7    NA       0.0000   9999     720   0     0    
2019/07/23  00:29:00  BASE  4.72752  232  6.13872  222  -6.4  100   -6.4  0     0     983.7    NA       0.0000   9999     560   0     0    
2019/07/23  00:30:00  BASE  4.6746   227  5.89764  223  -6.4  100   -6.4  0     0     983.7    NA       0.0000   9999     490   0     0    
2019/07/23  00:31:00  BASE  4.5276   226  5.89764  223  -6.4  100   -6.4  0     0     983.7    NA       0.0000   9999     720   0     0    
2019/07/23  00:32:00  BASE  4.79808  228  5.89764  223  -6.4  100   -6.4  0     0     983.7    NA       0.0000   9999     590   0     0    
2019/07/23  00:33:00  BASE  4.704    233  5.89764  223  -6.5  100   -6.5  0     0     983.7    NA       0.0000   9999     820   0     0    
2019/07/23  00:34:00  BASE  4.69224  235  5.89764  223  -6.5  100   -6.5  0     0     983.7    NA       0.0000   9999     820   0     0    
2019/07/23  00:35:00  BASE  4.40412  240  5.89764  223  -6.5  100   -6.5  0     0     983.7    NA       0.0000   9999     1020  0     0    
2019/07/23  00:36:00  BASE  4.06896  246  5.89764  223  -6.5  100   -6.5  0     0     983.7    NA       0.0000   9999     1250  0     0    
2019/07/23  00:37:00  BASE  3.7926   246  5.89764  223  -6.6  100   -6.6  0     0     983.7    NA       0.0000   9999     1180  0     0    
2019/07/23  00:38:00  BASE  3.26928  250  5.89764  223  -6.6  100   -6.6  0     0     983.8    NA       0.0000   9999     790   0     0    
2019/07/23  00:39:00  BASE  2.87532  246  5.35668  229  -6.6  100   -6.6  0     0     983.7    NA       0.0000   9999     790   0     0    
2019/07/23  00:40:00  BASE  2.21676  240  5.35668  229  -6.6  100   -6.6  0     0     983.7    NA       0.0000   9999     560   0     0    
2019/07/23  00:41:00  BASE  1.87572  244  5.35668  229  -6.6  100   -6.6  0     0     983.7    NA       0.0000   9999     720   0     0    
2019/07/23  00:42:00  BASE  1.66992  254  5.2332   232  -6.6  100   -6.6  0     0     983.7    NA       0.0000   9999     720   0     0    
2019/07/23  00:43:00  BASE  1.68756  246  5.2332   232  -6.6  100   -6.6  0     0     983.7    NA       0.0000   9999     790   0     0    
2019/07/23  00:44:00  BASE  2.71656  228  4.47468  254  -6.6  100   -6.6  0     0     983.7    NA       0.0000   9999     520   0     0    
2019/07/23  00:45:00  BASE  3.69264  227  4.75104  229  -6.5  100   -6.5  0     0     983.7    NA       0.0000   9999     460   0     0    
2019/07/23  00:46:00  BASE  3.49272  232  4.75104  229  -6.5  100   -6.5  0     0     983.7    NA       0.0000   9999     360   0     0    
2019/07/23  00:47:00  BASE  2.8224   236  4.75104  229  -6.5  100   -6.5  0     0     983.7    NA       0.0000   9999     460   0     0    
2019/07/23  00:48:00  BASE  2.65776  236  4.75104  229  -6.4  100   -6.4  0     0     983.7    NA       0.0000   9999     460   0     0    
2019/07/23  00:49:00  BASE  3.25752  231  4.75104  229  -6.4  100   -6.4  0     0     983.7    NA       0.0000   9999     980   0     0    
2019/07/23  00:50:00  BASE  3.81612  228  4.75104  229  -6.4  100   -6.4  0     0     983.7    NA       0.0000   9999     460   0     0    
2019/07/23  00:51:00  BASE  4.0866   226  5.292    223  -6.3  100   -6.3  0     0     983.7    NA       0.0000   9999     390   0     0    
2019/07/23  00:52:00  BASE  4.41     221  5.292    223  -6.3  100   -6.3  0     0     983.7    NA       0.0000   9999     360   0     0    
2019/07/23  00:53:00  BASE  4.12776  219  5.292    223  -6.3  100   -6.3  0     0     983.7    NA       0.0000   9999     390   0     0    
2019/07/23  00:54:00  BASE  4.15128  219  5.59776  219  -6.3  100   -6.3  0     0     983.8    NA       0.0000   9999     590   0     0    
2019/07/23  00:55:00  BASE  4.70988  224  5.59776  221  -6.3  100   -6.3  0     0     983.9    NA       0.0000   9999     460   0     0    
2019/07/23  00:56:00  BASE  4.96272  226  5.59776  221  -6.3  100   -6.3  0     0     983.9    NA       0.0000   9000     300   0     0    
2019/07/23  00:57:00  BASE  5.06856  221  6.10932  214  -6.3  100   -6.3  0     0     983.9    NA       0.0000   9000     260   0     0    
2019/07/23  00:58:00  BASE  5.55072  220  6.71496  224  -6.3  100   -6.3  0     0     983.9    NA       0.0000   9999     260   0     0    
2019/07/23  00:59:00  BASE  6.01524  220  6.71496  224  -6.3  100   -6.3  0     0     983.9    NA       0.0000   9999     300   0     0    
2019/07/23  01:00:00  BASE  5.28024  222  6.71496  224  -6.3  100   -6.3  0     0     984.0    NA       0.0000   9999     260   0     0    
2019/07/23  01:01:00  BASE  5.09208  222  6.71496  224  -6.3  100   -6.3  0     0     983.9    NA       0.0000   9999     330   0     0    
2019/07/23  01:02:00  BASE  5.71536  220  6.71496  224  -6.3  100   -6.3  0     0     984.0    NA       0.0000   9000     330   0     0    
2019/07/23  01:03:00  BASE  6.52092  222  7.98504  226  -6.4  100   -6.4  0     0     984.0    NA       0.0000   8000     260   0     0    
2019/07/23  01:04:00  BASE  7.36764  225  8.19672  225  -6.4  100   -6.4  0     0     984.0    NA       0.0000   BR       9999  0     0    
2019/07/23  01:05:00  BASE  7.0854   224  8.19672  225  -6.4  100   -6.4  0     0     984.0    NA       0.0000   BR       9999  260   0    
2019/07/23  01:06:00  BASE  6.40332  226  8.19672  225  -6.4  100   -6.4  0     0     984.0    NA       0.0000   9999     360   0     0    
2019/07/23  01:07:00  BASE  5.89176  230  8.19672  225  -6.4  100   -6.4  0     0     984.0    NA       0.0000   9999     330   0     0    
2019/07/23  01:08:00  BASE  5.7918   231  8.19672  225  -6.5  100   -6.5  0     0     984.1    NA       0.0000   9999     330   0     0    
2019/07/23  01:09:00  BASE  5.51544  231  8.19672  225  -6.5  100   -6.5  0     0     984.1    NA       0.0000   9999     300   0     0    
2019/07/23  01:10:00  BASE  4.68048  236  8.19672  225  -6.5  100   -6.5  0     0     984.1    NA       0.0000   9999     300   0     0    
2019/07/23  01:11:00  BASE  4.09836  239  8.19672  225  -6.5  100   -6.5  0     0     984.1    NA       0.0000   9999     520   0     0    
2019/07/23  01:12:00  BASE  4.53936  229  8.19672  225  -6.6  100   -6.6  0     0     984.1    NA       0.0000   9999     590   0     0    
2019/07/23  01:13:00  BASE  5.53308  225  8.19672  225  -6.6  100   -6.6  0     0     984.1    NA       0.0000   9999     560   0     0    
2019/07/23  01:14:00  BASE  6.48564  227  7.74396  223  -6.6  100   -6.6  0     0     984.1    NA       0.0000   9999     360   0     0    
2019/07/23  01:15:00  BASE  6.29748  226  7.74396  223  -6.7  100   -6.7  0     0     984.1    NA       0.0000   9999     330   0     0    
2019/07/23  01:16:00  BASE  5.78592  226  7.74396  223  -6.7  100   -6.7  0     0     984.1    NA       0.0000   9999     330   0     0    
2019/07/23  01:17:00  BASE  6.12696  223  7.74396  223  -6.7  100   -6.7  0     0     984.1    NA       0.0000   9999     360   0     0    
2019/07/23  01:18:00  BASE  6.33276  222  7.74396  223  -6.7  100   -6.7  0     0     984.1    NA       0.0000   9999     300   0     0    
2019/07/23  01:19:00  BASE  6.01524  223  7.74396  223  -6.7  100   -6.7  0     0     984.1    NA       0.0000   9999     390   0     0    
2019/07/23  01:20:00  BASE  5.586    226  7.74396  223  -6.7  100   -6.7  0     0     984.1    NA       0.0000   9999     430   0     0    
2019/07/23  01:21:00  BASE  5.25084  229  7.74396  223  -6.8  100   -6.8  0     0     984.2    NA       0.0000   9999     360   0     0    
2019/07/23  01:22:00  BASE  5.33904  230  7.74396  223  -6.8  100   -6.8  0     0     984.2    NA       0.0000   9999     520   0     0    
2019/07/23  01:23:00  BASE  5.04504  239  7.3206   225  -6.8  100   -6.8  0     0     984.2    NA       0.0000   9999     260   0     0    
2019/07/23  01:24:00  BASE  4.3218   248  7.13832  218  -6.8  100   -6.8  0     0     984.2    NA       0.0000   9999     360   0     0    
2019/07/23  01:25:00  BASE  4.40412  247  7.13832  218  -6.9  100   -6.9  0     0     984.2    NA       0.0000   9999     330   0     0    
2019/07/23  01:26:00  BASE  4.15716  239  7.13832  218  -6.9  100   -6.9  0     0     984.2    NA       0.0000   9999     330   0     0    
2019/07/23  01:27:00  BASE  3.49272  239  6.92664  224  -6.9  100   -6.9  0     0     984.2    NA       0.0000   9999     360   0     0    
2019/07/23  01:28:01  BASE  3.21048  248  6.62676  226  -6.9  100   -6.9  0     0     984.2    NA       0.0000   9999     390   0     0    
2019/07/23  01:29:00  BASE  3.4986   251  6.321    222  -7.0  100   -7.0  0     0     984.2    NA       0.0000   9999     360   0     0    
2019/07/23  01:30:00  BASE  3.9396   252  6.321    222  -7.0  100   -7.0  0     0     984.2    NA       0.0000   9999     260   0     0    
2019/07/23  01:31:00  BASE  4.07484  250  6.2034   222  -7.0  100   -7.0  0     0     984.3    NA       0.0000   9999     260   0     0    
2019/07/23  01:32:00  BASE  3.84552  254  5.62716  243  -7.0  100   -7.0  0     0     984.3    NA       0.0000   9000     0     0     0    
2019/07/23  01:33:00  BASE  3.19872  255  5.62716  243  -7.0  100   -7.0  0     0     984.3    NA       0.0000   8000     0     0     0    
2019/07/23  01:34:00  BASE  2.72832  249  5.62716  243  -6.9  100   -6.9  0     0     984.3    NA       0.0000   6000     0     0     0    
2019/07/23  01:35:00  BASE  2.45196  258  4.68636  242  -6.9  100   -6.9  0     0     984.3    NA       0.0000   BR       5000  0     0    
2019/07/23  01:36:00  BASE  2.08152  266  4.68636  242  -6.9  100   -6.9  0     0     984.3    NA       0.0000   BR       6000  0     0    
2019/07/23  01:37:00  BASE  3.53388  240  6.13872  223  -6.8  100   -6.8  0     0     984.2    NA       0.0000   BR       7000  300   0    
2019/07/23  01:38:00  BASE  5.48016  222  6.13872  228  -6.8  100   -6.8  0     0     984.2    NA       0.0000   BR       9000  300   0    
2019/07/23  01:39:00  BASE  5.83884  226  6.47388  226  -6.8  100   -6.8  0     0     984.2    NA       0.0000   BR       8000  0     0    
2019/07/23  01:40:00  BASE  6.2328   222  7.3206   209  -6.8  100   -6.8  0     0     984.2    NA       0.0000   BR       8000  260   0    
2019/07/23  01:41:00  BASE  6.59736  218  7.44408  222  -6.8  100   -6.8  0     0     984.2    NA       0.0000   BR       8000  330   0    
2019/07/23  01:42:00  BASE  6.6444   218  7.44408  222  -6.8  100   -6.8  0     0     984.3    NA       0.0000   -SN      BR    7000  260  
2019/07/23  01:43:00  BASE  5.89764  221  7.44408  222  -6.9  100   -6.9  0     0     984.3    NA       0.0000   -SN      BR    7000  260  
2019/07/23  01:44:00  BASE  5.31552  225  7.44408  222  -6.9  100   -6.9  0     0     984.3    NA       0.0000   -SN      BR    9999  390  
2019/07/23  01:45:00  BASE  5.23908  222  7.44408  222  -6.9  100   -6.9  0     0     984.4    NA       0.0000   -SN      BR    9999  360  
2019/07/23  01:46:00  BASE  4.72752  213  7.44408  222  -7.0  100   -7.0  0     0     984.4    NA       0.0000   -SN      BR    9999  390  
2019/07/23  01:47:00  BASE  4.49232  214  7.44408  222  -7.0  100   -7.0  0     0     984.5    NA       0.0000   -SN      BR    9999  390  
2019/07/23  01:48:00  BASE  4.4982   218  7.44408  222  -7.0  100   -7.0  0     0     984.5    NA       0.0000   -SN      BR    9000  430  
2019/07/23  01:49:00  BASE  4.79808  219  7.44408  222  -7.0  100   -7.0  0     0     984.4    NA       0.0000   -SN      BR    7000  360  
2019/07/23  01:50:00  BASE  4.87452  223  7.44408  222  -7.0  100   -7.0  0     0     984.5    NA       0.0000   -SN      BR    5000  0    
2019/07/23  01:51:00  BASE  4.91568  223  7.2912   221  -7.0  100   -7.0  0     0     984.4    NA       0.0000   -SN      BR    5000  300  
2019/07/23  01:52:00  BASE  5.84472  224  6.86784  225  -7.0  100   -7.0  0     0     984.4    NA       0.0000   -SN      BR    7000  330  
2019/07/23  01:53:00  BASE  5.9094   225  6.86784  225  -7.0  100   -7.0  0     0     984.5    NA       0.0000   -SN      BR    8000  0    
2019/07/23  01:54:00  BASE  5.34492  224  6.86784  225  -7.0  100   -7.0  0     0     984.5    NA       0.0000   -SN      BR    8000  260  
2019/07/23  01:55:00  BASE  5.2332   226  6.86784  225  -7.0  100   -7.0  0     0     984.5    NA       0.0000   -SN      BR    9999  390  
2019/07/23  01:56:00  BASE  4.6746   228  6.86784  225  -7.1  100   -7.1  0     0     984.5    NA       0.0000   -SN      BR    9999  300  
2019/07/23  01:57:00  BASE  4.10424  229  6.86784  225  -7.1  100   -7.1  0     0     984.5    NA       0.0000   -SN      BR    9999  360  
2019/07/23  01:58:00  BASE  3.89256  228  6.86784  225  -7.2  100   -7.2  0     0     984.5    NA       0.0000   -SN      BR    9999  390  
2019/07/23  01:59:00  BASE  3.51624  226  6.86784  225  -7.2  100   -7.2  0     0     984.5    NA       0.0000   -SN      BR    9999  620  
2019/07/23  02:00:00  BASE  3.1458   224  6.86784  225  -7.2  100   -7.2  0     0     984.5    NA       0.0000   BR       9999  620   0    
2019/07/23  02:01:00  BASE  3.56328  222  6.86784  225  -7.2  100   -7.2  0     0     984.5    NA       0.0000   9999     790   0     0    
2019/07/23  02:02:00  BASE  4.52172  225  5.99172  230  -7.1  100   -7.1  0     0     984.5    NA       0.0000   9999     790   0     0    
2019/07/23  02:03:00  BASE  5.3508   229  6.321    228  -7.1  100   -7.1  0     0     984.5    NA       0.0000   9999     660   0     0    
2019/07/23  02:04:00  BASE  5.56248  229  6.321    228  -7.1  100   -7.1  0     0     984.5    NA       0.0000   9999     560   0     0    
2019/07/23  02:05:00  BASE  5.28612  228  6.321    228  -7.1  100   -7.1  0     0     984.5    NA       0.0000   9999     460   0     0    
2019/07/23  02:06:00  BASE  4.95684  226  6.321    228  -7.1  100   -7.1  0     0     984.6    NA       0.0000   9999     230   0     0    
2019/07/23  02:07:00  BASE  4.45704  223  6.321    228  -7.1  100   -7.1  0     0     984.5    NA       0.0000   8000     0     0     0    
2019/07/23  02:08:00  BASE  3.75732  221  6.321    228  -7.2  100   -7.2  0     0     984.6    NA       0.0000   8000     0     0     0    
2019/07/23  02:09:00  BASE  3.53976  220  6.321    228  -7.2  100   -7.2  0     0     984.6    NA       0.0000   8000     360   0     0    
2019/07/23  02:10:00  BASE  4.41     222  6.321    228  -7.2  100   -7.2  0     0     984.5    NA       0.0000   9999     720   0     0    
2019/07/23  02:11:00  BASE  5.49192  225  6.47388  221  -7.2  100   -7.2  0     0     984.5    NA       0.0000   9999     390   0     0    
2019/07/23  02:12:00  BASE  5.4978   221  6.47388  221  -7.2  100   -7.2  0     0     984.5    NA       0.0000   9999     360   0     0    
2019/07/23  02:13:00  BASE  5.15088  227  6.47388  221  -7.2  100   -7.2  0     0     984.5    NA       0.0000   9999     390   0     0    
2019/07/23  02:14:00  BASE  5.25084  240  6.47388  221  -7.2  100   -7.2  0     0     984.5    NA       0.0000   9999     330   0     0    
2019/07/23  02:15:00  BASE  5.26848  242  6.47388  221  -7.3  100   -7.3  0     0     984.5    NA       0.0000   9999     300   0     0    
2019/07/23  02:16:00  BASE  5.0862   235  6.47388  221  -7.3  100   -7.3  0     0     984.5    NA       0.0000   9999     260   0     0    
2019/07/23  02:17:00  BASE  4.7334   230  6.47388  221  -7.3  100   -7.3  0     0     984.6    NA       0.0000   9999     260   0     0    
2019/07/23  02:18:00  BASE  4.83336  228  6.47388  221  -7.3  100   -7.3  0     0     984.6    NA       0.0000   9999     360   0     0    
2019/07/23  02:19:00  BASE  5.03916  228  6.47388  221  -7.3  100   -7.3  0     0     984.6    NA       0.0000   9999     330   0     0    
2019/07/23  02:20:00  BASE  4.80984  223  6.47388  221  -7.3  100   -7.3  0     0     984.6    NA       0.0000   9999     260   0     0    
2019/07/23  02:21:00  BASE  4.998    218  5.99172  247  -7.4  100   -7.4  0     0     984.6    NA       0.0000   9999     390   0     0    
2019/07/23  02:22:00  BASE  4.97448  218  5.99172  247  -7.4  100   -7.4  0     0     984.6    NA       0.0000   9999     460   0     0    
2019/07/23  02:23:00  BASE  4.72752  220  5.99172  247  -7.4  100   -7.4  0     0     984.6    NA       0.0000   9999     690   0     0    
2019/07/23  02:24:00  BASE  4.38648  229  5.68596  227  -7.4  100   -7.4  0     0     984.7    NA       0.0000   9999     460   0     0    
2019/07/23  02:25:00  BASE  3.7926   236  5.68596  227  -7.4  100   -7.4  0     0     984.7    NA       0.0000   9999     460   0     0    
2019/07/23  02:26:00  BASE  3.53976  233  5.68596  227  -7.4  100   -7.4  0     0     984.7    NA       0.0000   9999     430   0     0    
2019/07/23  02:27:00  BASE  3.72792  225  5.68596  227  -7.3  100   -7.3  0     0     984.7    NA       0.0000   9999     820   0     0    
2019/07/23  02:28:00  BASE  4.116    218  5.65656  221  -7.3  100   -7.3  0     0     984.7    NA       0.0000   9999     430   0     0    
2019/07/23  02:29:00  BASE  4.2042   218  5.65656  221  -7.3  100   -7.3  0     0     984.7    NA       0.0000   9999     360   0     0    
2019/07/23  02:30:00  BASE  4.50996  218  5.65656  221  -7.2  100   -7.2  0     0     984.7    NA       0.0000   9999     330   0     0    
2019/07/23  02:31:00  BASE  5.1156   220  5.80944  223  -7.2  100   -7.2  0     0     984.7    NA       0.0000   9000     300   0     0    
2019/07/23  02:32:00  BASE  5.32728  221  5.80944  223  -7.2  100   -7.2  0     0     984.7    NA       0.0000   7000     0     0     0    
2019/07/23  02:33:00  BASE  5.51544  223  6.05052  231  -7.2  100   -7.2  0     0     984.7    NA       0.0000   8000     360   0     0    
2019/07/23  02:34:00  BASE  5.63892  227  6.05052  231  -7.1  100   -7.1  0     0     984.7    NA       0.0000   9999     360   0     0    
2019/07/23  02:35:00  BASE  5.03328  230  6.05052  231  -7.2  100   -7.2  0     0     984.8    NA       0.0000   9000     230   0     0    
2019/07/23  02:36:00  BASE  4.71576  236  6.05052  231  -7.2  100   -7.2  0     0     984.8    NA       0.0000   9999     360   0     0    
2019/07/23  02:37:00  BASE  4.57464  241  6.05052  231  -7.2  100   -7.2  0     0     984.8    NA       0.0000   9999     360   0     0    
2019/07/23  02:38:00  BASE  4.54524  240  6.05052  231  -7.1  100   -7.1  0     0     984.8    NA       0.0000   BR       9999  330   0    
2019/07/23  02:39:00  BASE  4.63344  239  6.05052  231  -7.1  100   -7.1  0     0     984.8    NA       0.0000   BR       8000  260   0    
2019/07/23  02:40:00  BASE  4.49232  241  6.05052  231  -7.1  100   -7.1  0     0     984.8    NA       0.0000   BR       7000  0     0    
2019/07/23  02:41:00  BASE  4.3512   247  6.05052  231  -7.1  100   -7.1  0     0     984.8    NA       0.0000   BR       7000  0     0    
2019/07/23  02:42:00  BASE  4.53348  241  6.05052  231  -7.1  100   -7.1  0     0     984.8    NA       0.0000   BR       7000  260   0    
2019/07/23  02:43:00  BASE  5.10384  227  6.02112  225  -7.1  100   -7.1  0     0     984.8    NA       0.0000   BR       8000  0     0    
2019/07/23  02:44:00  BASE  5.1156   223  5.99172  222  -7.1  100   -7.1  0     0     984.8    NA       0.0000   BR       8000  0     0    
2019/07/23  02:45:00  BASE  4.69812  224  5.99172  222  -7.2  100   -7.2  0     0     984.8    NA       0.0000   BR       7000  230   0    
2019/07/23  02:46:00  BASE  4.24536  225  5.99172  222  -7.2  100   -7.2  0     0     984.8    NA       0.0000   BR       7000  330   0    
2019/07/23  02:47:00  BASE  4.3512   227  5.99172  222  -7.2  100   -7.2  0     0     984.9    NA       0.0000   BR       9000  330   0    
2019/07/23  02:48:00  BASE  4.36296  235  5.99172  222  -7.2  100   -7.2  0     0     984.9    NA       0.0000   BR       9000  230   0    
2019/07/23  02:49:00  BASE  4.25124  242  5.99172  222  -7.2  100   -7.2  0     0     984.9    NA       0.0000   BR       9000  260   0    
2019/07/23  02:50:00  BASE  4.07484  245  5.99172  222  -7.2  100   -7.2  0     0     984.9    NA       0.0000   BR       9999  260   0    
2019/07/23  02:51:00  BASE  3.78084  245  5.99172  222  -7.2  100   -7.2  0     0     985.0    NA       0.0000   BR       9999  300   0    
2019/07/23  02:52:00  BASE  4.07484  240  5.99172  222  -7.3  100   -7.3  0     0     985.0    NA       0.0000   BR       9999  330   0    
2019/07/23  02:53:00  BASE  4.28064  237  5.41548  223  -7.3  100   -7.3  0     0     985.1    NA       0.0000   BR       8000  330   0    
2019/07/23  02:54:00  BASE  4.34532  242  5.2626   237  -7.3  100   -7.3  0     0     985.1    NA       0.0000   BR       9000  300   0    
2019/07/23  02:55:00  BASE  4.44528  238  5.2626   237  -7.3  100   -7.3  0     0     985.1    NA       0.0000   BR       9999  330   0    
2019/07/23  02:56:00  BASE  4.59228  239  5.2626   237  -7.3  100   -7.3  0     0     985.1    NA       0.0000   BR       9999  260   0    
2019/07/23  02:57:00  BASE  4.50996  246  5.2626   237  -7.3  100   -7.3  0     0     985.2    NA       0.0000   BR       9000  260   0    
2019/07/23  02:58:00  BASE  3.7044   245  5.2626   237  -7.3  100   -7.3  0     0     985.2    NA       0.0000   BR       7000  0     0    
2019/07/23  02:59:00  BASE  2.95176  243  5.2626   237  -7.3  100   -7.3  0     0     985.2    NA       0.0000   BR       7000  230   0    
2019/07/23  03:00:00  BASE  3.16932  239  5.2626   237  -7.3  100   -7.3  0     0     985.2    NA       0.0000   BR       9000  330   0    
2019/07/23  03:01:00  BASE  3.65736  246  5.2626   237  -7.2  100   -7.2  0     0     985.2    NA       0.0000   BR       9999  430   0    
2019/07/23  03:02:00  BASE  3.59268  247  5.2626   237  -7.2  100   -7.2  0     0     985.2    NA       0.0000   BR       9999  330   0    
2019/07/23  03:03:00  BASE  3.82788  237  5.2038   250  -7.2  100   -7.2  0     0     985.2    NA       0.0000   BR       9999  300   0    
2019/07/23  03:04:00  BASE  4.25712  233  5.2038   250  -7.2  100   -7.2  0     0     985.2    NA       0.0000   BR       8000  300   0    
2019/07/23  03:05:00  BASE  4.54524  240  5.44488  248  -7.2  100   -7.2  0     0     985.2    NA       0.0000   BR       8000  0     0    
2019/07/23  03:06:00  BASE  4.63344  246  5.44488  248  -7.2  100   -7.2  0     0     985.3    NA       0.0000   BR       9000  0     0    
2019/07/23  03:07:00  BASE  4.10424  248  5.44488  248  -7.3  100   -7.3  0     0     985.3    NA       0.0000   BR       8000  0     0    
2019/07/23  03:08:00  BASE  3.74556  251  5.44488  248  -7.3  100   -7.3  0     0     985.3    NA       0.0000   BR       8000  330   0    
2019/07/23  03:09:00  BASE  3.90432  247  5.44488  248  -7.3  100   -7.3  0     0     985.3    NA       0.0000   BR       9000  300   0    
2019/07/23  03:10:00  BASE  4.51584  243  5.59776  239  -7.3  100   -7.3  0     0     985.3    NA       0.0000   BR       8000  0     0    
2019/07/23  03:11:00  BASE  4.65108  244  5.59776  239  -7.3  100   -7.3  0     0     985.3    NA       0.0000   BR       8000  260   0    
2019/07/23  03:12:00  BASE  4.36296  246  5.59776  239  -7.3  100   -7.3  0     0     985.3    NA       0.0000   BR       8000  260   0    
2019/07/23  03:13:00  BASE  4.68048  250  5.68596  252  -7.3  100   -7.3  0     0     985.3    NA       0.0000   BR       8000  0     0    
2019/07/23  03:14:00  BASE  4.7334   252  5.68596  252  -7.3  100   -7.3  0     0     985.3    NA       0.0000   BR       9999  260   0    
2019/07/23  03:15:00  BASE  4.41     253  5.68596  252  -7.3  100   -7.3  0     0     985.3    NA       0.0000   BR       9999  260   0    
2019/07/23  03:16:00  BASE  4.62756  253  5.68596  252  -7.3  100   -7.3  0     0     985.3    NA       0.0000   BR       9999  0     0    
2019/07/23  03:17:00  BASE  4.56876  252  5.68596  252  -7.3  100   -7.3  0     0     985.4    NA       0.0000   BR       9999  0     0    
2019/07/23  03:18:00  BASE  4.77456  244  6.07992  238  -7.3  100   -7.3  0     0     985.3    NA       0.0000   BR       9999  360   0    
2019/07/23  03:19:00  BASE  5.33904  232  6.07992  238  -7.3  100   -7.3  0     0     985.3    NA       0.0000   BR       9999  260   0    
2019/07/23  03:20:00  BASE  5.15088  231  6.07992  238  -7.3  100   -7.3  0     0     985.3    NA       0.0000   BR       9999  0     0    
2019/07/23  03:21:00  BASE  4.56288  236  6.07992  238  -7.3  100   -7.3  0     0     985.4    NA       0.0000   BR       7000  0     0    
2019/07/23  03:22:00  BASE  4.06896  242  6.07992  238  -7.3  100   -7.3  0     0     985.4    NA       0.0000   BR       8000  0     0    
2019/07/23  03:23:00  BASE  4.6158   251  6.10932  251  -7.3  100   -7.3  0     0     985.4    NA       0.0000   BR       9999  300   0    
2019/07/23  03:24:00  BASE  5.10972  246  6.10932  251  -7.3  100   -7.3  0     0     985.4    NA       0.0000   9999     300   0     0    
2019/07/23  03:25:00  BASE  4.87452  244  6.10932  251  -7.4  100   -7.4  0     0     985.4    NA       0.0000   9999     230   0     0    
2019/07/23  03:26:00  BASE  4.8804   251  6.10932  251  -7.4  100   -7.4  0     0     985.4    NA       0.0000   9999     300   0     0    
2019/07/23  03:27:00  BASE  4.90392  249  6.10932  251  -7.4  100   -7.4  0     0     985.4    NA       0.0000   9999     300   0     0    
2019/07/23  03:28:00  BASE  4.62756  247  6.10932  251  -7.5  100   -7.5  0     0     985.4    NA       0.0000   9999     300   0     0    
2019/07/23  03:29:00  BASE  4.55112  251  6.10932  251  -7.5  100   -7.5  0     0     985.4    NA       0.0000   9999     300   0     0    
2019/07/23  03:30:00  BASE  4.6452   246  6.10932  251  -7.5  100   -7.5  0     0     985.4    NA       0.0000   9999     360   0     0    
2019/07/23  03:31:00  BASE  4.557    234  6.10932  251  -7.5  100   -7.5  0     0     985.4    NA       0.0000   9999     300   0     0    
2019/07/23  03:32:00  BASE  4.63932  238  6.10932  251  -7.5  100   -7.5  0     0     985.4    NA       0.0000   9000     260   0     0    
2019/07/23  03:33:00  BASE  4.85688  251  5.78004  270  -7.5  100   -7.5  0     0     985.4    NA       0.0000   8000     0     0     0    
2019/07/23  03:34:00  BASE  5.145    258  6.07992  256  -7.4  100   -7.4  0     0     985.4    NA       0.0000   9999     0     0     0    
2019/07/23  03:35:00  BASE  5.00388  260  6.321    255  -7.4  100   -7.4  0     0     985.4    NA       0.0000   9999     330   0     0    
2019/07/23  03:36:00  BASE  4.75104  257  6.321    255  -7.4  100   -7.4  0     0     985.5    NA       0.0000   9999     330   0     0    
2019/07/23  03:37:00  BASE  4.74516  254  6.321    255  -7.4  100   -7.4  0     0     985.5    NA       0.0000   9999     260   0     0    
2019/07/23  03:38:00  BASE  4.45704  250  6.321    255  -7.4  100   -7.4  0     0     985.6    NA       0.0000   9999     260   0     0    
2019/07/23  03:39:00  BASE  4.32768  245  6.321    255  -7.4  100   -7.4  0     0     985.6    NA       0.0000   9999     230   0     0    
2019/07/23  03:40:00  BASE  4.58052  248  6.321    255  -7.4  100   -7.4  0     0     985.6    NA       0.0000   9999     0     0     0    
2019/07/23  03:41:00  BASE  5.37432  252  6.80316  256  -7.4  100   -7.4  0     0     985.6    NA       0.0000   9999     0     0     0    
2019/07/23  03:42:00  BASE  6.13284  253  6.80316  256  -7.4  100   -7.4  0     0     985.6    NA       0.0000   9999     0     0     0    
2019/07/23  03:43:00  BASE  6.0564   256  6.80316  256  -7.4  100   -7.4  0     0     985.6    NA       0.0000   9999     0     0     0    
2019/07/23  03:44:00  BASE  5.86236  255  6.80316  256  -7.4  100   -7.4  0     0     985.6    NA       0.0000   9999     0     0     0    
2019/07/23  03:45:00  BASE  5.65656  253  6.80316  256  -7.5  100   -7.5  0     0     985.7    NA       0.0000   9999     0     0     0    
2019/07/23  03:46:00  BASE  5.92704  256  6.92664  265  -7.5  100   -7.5  0     0     985.6    NA       0.0000   9999     260   0     0    
2019/07/23  03:47:00  BASE  6.2328   255  6.92664  265  -7.5  100   -7.5  0     0     985.7    NA       0.0000   9999     300   0     0    
2019/07/23  03:48:00  BASE  5.76828  250  6.92664  265  -7.5  100   -7.5  0     0     985.7    NA       0.0000   9999     300   0     0    
2019/07/23  03:49:00  BASE  5.51544  250  6.92664  265  -7.5  100   -7.5  0     0     985.7    NA       0.0000   9999     260   0     0    
2019/07/23  03:50:00  BASE  5.1744   256  6.92664  265  -7.6  100   -7.6  0     0     985.7    NA       0.0000   9999     230   0     0    
2019/07/23  03:51:00  BASE  4.91568  259  6.92664  265  -7.6  100   -7.6  0     0     985.7    NA       0.0000   9999     260   0     0    
2019/07/23  03:52:00  BASE  4.74516  262  6.92664  265  -7.7  100   -7.7  0     0     985.7    NA       0.0000   9999     300   0     0    
2019/07/23  03:53:01  BASE  4.38648  266  6.92664  265  -7.8  100   -7.8  0     0     985.7    NA       0.0000   9999     300   0     0    
2019/07/23  03:54:00  BASE  4.60404  271  6.92664  265  -7.8  100   -7.8  0     0     985.8    NA       0.0000   9999     360   0     0    
2019/07/23  03:55:00  BASE  4.6746   266  6.92664  265  -7.8  100   -7.8  0     0     985.8    NA       0.0000   9999     360   0     0    
2019/07/23  03:56:00  BASE  4.78632  256  6.53268  251  -7.8  100   -7.8  0     0     985.8    NA       0.0000   9999     300   0     0    
2019/07/23  03:57:00  BASE  4.9392   249  6.41508  259  -7.8  100   -7.8  0     0     985.8    NA       0.0000   9999     300   0     0    
2019/07/23  03:58:00  BASE  4.95096  253  6.41508  259  -7.8  100   -7.8  0     0     985.8    NA       0.0000   9999     430   0     0    
2019/07/23  03:59:00  BASE  5.19204  253  6.41508  259  -7.8  100   -7.8  0     0     985.9    NA       0.0000   9999     460   0     0    
2019/07/23  04:00:00  BASE  5.0862   238  6.41508  259  -7.8  100   -7.8  0     0     985.9    NA       0.0000   9999     390   0     0    
2019/07/23  04:01:00  BASE  5.00976  233  6.02112  261  -7.8  100   -7.8  0     0     985.9    NA       0.0000   9999     490   0     0    
2019/07/23  04:02:00  BASE  4.998    238  6.02112  261  -7.8  100   -7.8  0     0     985.9    NA       0.0000   9999     360   0     0    
2019/07/23  04:03:00  BASE  4.52172  241  6.02112  261  -7.8  100   -7.8  0     0     986.0    NA       0.0000   9999     330   0     0    
2019/07/23  04:05:00  BASE  4.73928  245  6.02112  261  -7.8  100   -7.8  0     0     986.0    NA       0.0000   9999     300   0     0    
2019/07/23  04:06:00  BASE  5.4096   246  6.3504   235  -7.8  100   -7.8  0     0     986.0    NA       0.0000   9999     430   0     0    
2019/07/23  04:07:00  BASE  5.9976   246  6.80316  244  -7.8  100   -7.8  0     0     986.0    NA       0.0000   9999     390   0     0    
2019/07/23  04:08:00  BASE  5.69772  245  6.80316  244  -7.8  100   -7.8  0     0     986.0    NA       0.0000   9999     360   0     0    
2019/07/23  04:09:00  BASE  5.02152  241  6.80316  244  -7.9  100   -7.9  0     0     986.0    NA       0.0000   9999     360   0     0    
2019/07/23  04:10:00  BASE  4.94508  245  6.80316  244  -7.9  100   -7.9  0     0     986.1    NA       0.0000   9999     430   0     0    
2019/07/23  04:11:00  BASE  5.05092  250  6.80316  244  -7.9  100   -7.9  0     0     986.2    NA       0.0000   9999     360   0     0    
2019/07/23  04:12:00  BASE  4.78044  251  6.80316  244  -7.9  100   -7.9  0     0     986.2    NA       0.0000   9999     300   0     0    
2019/07/23  04:13:00  BASE  4.51584  248  6.80316  244  -7.9  100   -7.9  0     0     986.2    NA       0.0000   9999     360   0     0    
2019/07/23  04:14:00  BASE  4.93332  240  6.80316  244  -8.0  100   -8.0  0     0     986.2    NA       0.0000   9999     300   0     0    
2019/07/23  04:15:00  BASE  5.07444  247  6.80316  244  -8.0  100   -8.0  0     0     986.2    NA       0.0000   9999     300   0     0    
2019/07/23  04:16:00  BASE  4.57464  253  6.80316  244  -8.0  100   -8.0  0     0     986.2    NA       0.0000   9999     430   0     0    
2019/07/23  04:17:00  BASE  4.44528  246  6.07992  233  -8.0  100   -8.0  0     0     986.2    NA       0.0000   9999     430   0     0    
2019/07/23  04:18:00  BASE  4.47468  238  6.07992  233  -8.0  100   -8.0  0     0     986.2    NA       0.0000   9999     460   0     0    
2019/07/23  04:19:00  BASE  4.6746   244  6.07992  233  -8.0  100   -8.0  0     0     986.2    NA       0.0000   9999     430   0     0    
2019/07/23  04:20:00  BASE  4.94508  256  6.07992  233  -8.0  100   -8.0  0     0     986.2    NA       0.0000   9999     430   0     0    
2019/07/23  04:21:00  BASE  4.79808  254  6.07992  233  -8.0  100   -8.0  0     0     986.3    NA       0.0000   9999     390   0     0    
2019/07/23  04:22:00  BASE  4.47468  247  6.07992  233  -8.1  100   -8.1  0     0     986.3    NA       0.0000   9999     560   0     0    
2019/07/23  04:23:00  BASE  4.72752  241  6.07992  233  -8.1  100   -8.1  0     0     986.2    NA       0.0000   9999     430   0     0    
2019/07/23  04:24:00  BASE  5.12736  237  6.02112  237  -8.1  100   -8.1  0     0     986.2    NA       0.0000   9999     430   0     0    
2019/07/23  04:25:00  BASE  5.06856  237  6.02112  237  -8.0  100   -8.0  0     0     986.3    NA       0.0000   9999     330   0     0    
2019/07/23  04:26:00  BASE  4.62756  236  6.02112  237  -8.0  100   -8.0  0     0     986.3    NA       0.0000   9999     300   0     0    
2019/07/23  04:27:00  BASE  4.13364  232  6.02112  237  -8.0  100   -8.0  0     0     986.3    NA       0.0000   9999     390   0     0    
2019/07/23  04:28:00  BASE  4.1454   229  6.02112  237  -8.1  100   -8.1  0     0     986.3    NA       0.0000   9999     460   0     0    
2019/07/23  04:29:00  BASE  4.09248  232  6.02112  237  -8.1  100   -8.1  0     0     986.3    NA       0.0000   9999     330   0     0    
2019/07/23  04:30:00  BASE  3.81024  232  6.02112  237  -8.1  100   -8.1  0     0     986.3    NA       0.0000   9999     360   0     0    
2019/07/23  04:31:00  BASE  4.0572   227  6.02112  237  -8.1  100   -8.1  0     0     986.3    NA       0.0000   9999     520   0     0    
2019/07/23  04:32:00  BASE  4.35708  229  6.02112  237  -8.1  100   -8.1  0     0     986.3    NA       0.0000   9999     790   0     0    
2019/07/23  04:33:00  BASE  4.80984  236  6.02112  237  -8.1  100   -8.1  0     0     986.3    NA       0.0000   9999     430   0     0    
2019/07/23  04:34:00  BASE  4.76868  240  5.83884  234  -8.1  100   -8.1  0     0     986.4    NA       0.0000   9999     430   0     0    
2019/07/23  04:35:00  BASE  4.03368  245  5.83884  234  -8.1  100   -8.1  0     0     986.4    NA       0.0000   9999     520   0     0    
2019/07/23  04:36:00  BASE  4.12188  248  5.83884  234  -8.1  100   -8.1  0     0     986.5    NA       0.0000   9999     720   0     0    
2019/07/23  04:37:00  BASE  4.78044  247  5.83884  234  -8.2  100   -8.2  0     0     986.5    NA       0.0000   9999     620   0     0    
2019/07/23  04:38:00  BASE  4.83336  243  5.83884  234  -8.2  100   -8.2  0     0     986.6    NA       0.0000   9999     390   0     0    
2019/07/23  04:39:00  BASE  4.00428  243  5.83884  234  -8.2  100   -8.2  0     0     986.6    NA       0.0000   9999     690   0     0    
2019/07/23  04:40:00  BASE  4.12188  250  5.83884  234  -8.2  100   -8.2  0     0     986.6    NA       0.0000   9999     690   0     0    
2019/07/23  04:41:00  BASE  4.851    252  5.83884  234  -8.2  100   -8.2  0     0     986.6    NA       0.0000   9999     430   0     0    
2019/07/23  04:42:00  BASE  4.37472  248  5.83884  234  -8.2  100   -8.2  0     0     986.6    NA       0.0000   9999     520   0     0    
2019/07/23  04:43:00  BASE  3.66912  249  5.65656  250  -8.2  100   -8.2  0     0     986.6    NA       0.0000   9999     620   0     0    
2019/07/23  04:44:00  BASE  3.84552  248  5.65656  250  -8.2  100   -8.2  0     0     986.6    NA       0.0000   9999     720   0     0    
2019/07/23  04:45:00  BASE  4.45116  236  5.65656  250  -8.2  100   -8.2  0     0     986.6    NA       0.0000   9999     360   0     0    
2019/07/23  04:46:00  BASE  4.37472  233  5.65656  250  -8.2  100   -8.2  0     0     986.6    NA       0.0000   9999     330   0     0    
2019/07/23  04:47:00  BASE  3.93372  243  5.65656  250  -8.2  100   -8.2  0     0     986.6    NA       0.0000   9999     430   0     0    
2019/07/23  04:48:00  BASE  4.11012  248  5.65656  250  -8.2  100   -8.2  0     0     986.6    NA       0.0000   9999     590   0     0    
2019/07/23  04:49:00  BASE  4.26888  247  5.65656  250  -8.2  100   -8.2  0     0     986.6    NA       0.0000   9999     360   0     0    
2019/07/23  04:50:00  BASE  4.42176  244  5.65656  250  -8.2  100   -8.2  0     0     986.6    NA       0.0000   9999     720   0     0    
2019/07/23  04:51:00  BASE  4.5864   235  5.35668  246  -8.2  100   -8.2  0     0     986.6    NA       0.0000   9999     430   0     0    
2019/07/23  04:52:00  BASE  4.33356  227  5.35668  246  -8.2  100   -8.2  0     0     986.6    NA       0.0000   9999     750   0     0    
2019/07/23  04:53:00  BASE  4.16304  231  5.35668  246  -8.2  100   -8.2  0     0     986.6    NA       0.0000   9999     430   0     0    
2019/07/23  04:54:00  BASE  4.0572   237  5.35668  246  -8.3  100   -8.3  0     0     986.6    NA       0.0000   9999     430   0     0    
2019/07/23  04:55:00  BASE  3.71028  241  5.35668  246  -8.3  100   -8.3  0     0     986.6    NA       0.0000   9999     750   0     0    
2019/07/23  04:56:00  BASE  3.71028  245  5.35668  246  -8.3  100   -8.3  0     0     986.6    NA       0.0000   9999     660   0     0    
2019/07/23  04:57:00  BASE  4.08072  241  5.35668  246  -8.3  100   -8.3  0     0     986.6    NA       0.0000   9999     690   0     0    
2019/07/23  04:58:00  BASE  4.21008  224  5.3214   235  -8.3  100   -8.3  0     0     986.6    NA       0.0000   9999     430   0     0    
2019/07/23  04:59:00  BASE  4.10424  219  5.3214   235  -8.3  100   -8.3  0     0     986.6    NA       0.0000   9999     520   0     0    
2019/07/23  05:00:00  BASE  4.65108  229  5.78004  228  -8.2  100   -8.2  0     0     986.6    NA       0.0000   9999     430   0     0    
2019/07/23  05:01:00  BASE  5.06268  231  6.02112  225  -8.2  100   -8.2  0     0     986.6    NA       0.0000   9999     330   0     0    
2019/07/23  05:02:00  BASE  5.27436  229  6.07992  226  -8.2  100   -8.2  0     0     986.6    NA       0.0000   9999     590   0     0    
2019/07/23  05:03:00  BASE  5.145    226  6.07992  226  -8.2  100   -8.2  0     0     986.6    NA       0.0000   9999     360   0     0    
2019/07/23  05:04:00  BASE  4.32768  217  6.07992  226  -8.3  100   -8.3  0     0     986.7    NA       0.0000   9999     520   0     0    
2019/07/23  05:05:00  BASE  4.05132  218  6.07992  226  -8.3  100   -8.3  0     0     986.7    NA       0.0000   9999     660   0     0    
2019/07/23  05:06:00  BASE  4.06308  234  6.07992  226  -8.4  100   -8.4  0     0     986.7    NA       0.0000   9999     620   0     0    
2019/07/23  05:07:00  BASE  4.3218   232  6.07992  226  -8.4  100   -8.4  0     0     986.8    NA       0.0000   9999     620   0     0    
2019/07/23  05:08:00  BASE  4.1748   232  6.07992  226  -8.3  100   -8.3  0     0     986.8    NA       0.0000   9999     360   0     0    
2019/07/23  05:09:00  BASE  3.95724  238  6.07992  226  -8.3  100   -8.3  0     0     986.8    NA       0.0000   9999     750   0     0    
2019/07/23  05:10:00  BASE  4.33944  229  6.07992  226  -8.3  100   -8.3  0     0     986.8    NA       0.0000   9999     520   0     0    
2019/07/23  05:11:00  BASE  4.10424  222  6.07992  226  -8.3  100   -8.3  0     0     986.8    NA       0.0000   9999     490   0     0    
2019/07/23  05:12:00  BASE  3.30456  228  5.1744   218  -8.3  100   -8.3  0     0     986.8    NA       0.0000   9999     690   0     0    
2019/07/23  05:13:00  BASE  3.39864  235  5.1744   218  -8.3  100   -8.3  0     0     986.8    NA       0.0000   9999     560   0     0    
2019/07/23  05:14:00  BASE  4.23948  231  5.53308  224  -8.3  100   -8.3  0     0     986.8    NA       0.0000   9999     520   0     0    
2019/07/23  05:15:00  BASE  4.7334   223  5.53308  224  -8.3  100   -8.3  0     0     986.9    NA       0.0000   9999     360   0     0    
2019/07/23  05:16:00  BASE  5.06268  218  5.78004  216  -8.3  100   -8.3  0     0     986.9    NA       0.0000   9999     560   0     0    
2019/07/23  05:17:00  BASE  5.35668  223  6.47388  228  -8.3  100   -8.3  0     0     986.9    NA       0.0000   9999     590   0     0    
2019/07/23  05:18:00  BASE  5.50956  232  6.47388  228  -8.4  100   -8.4  0     0     986.9    NA       0.0000   9999     460   0     0    
2019/07/23  05:19:00  BASE  5.10972  235  6.47388  228  -8.4  100   -8.4  0     0     987.0    NA       0.0000   9999     430   0     0    
2019/07/23  05:20:00  BASE  4.5276   230  6.47388  228  -8.4  100   -8.4  0     0     987.0    NA       0.0000   9999     390   0     0    
2019/07/23  05:21:00  BASE  4.41588  225  6.47388  228  -8.5  100   -8.5  0     0     987.1    NA       0.0000   9999     390   0     0    
2019/07/23  05:22:00  BASE  4.2924   227  6.47388  228  -8.5  100   -8.5  0     0     987.1    NA       0.0000   9999     360   0     0    
2019/07/23  05:23:00  BASE  4.28652  226  6.47388  228  -8.5  100   -8.5  0     0     987.1    NA       0.0000   9999     520   0     0    
2019/07/23  05:24:00  BASE  3.9396   228  6.47388  228  -8.5  100   -8.5  0     0     987.1    NA       0.0000   9999     520   0     0    
2019/07/23  05:25:00  BASE  3.27516  232  6.47388  228  -8.5  100   -8.5  0     0     987.1    NA       0.0000   9999     790   0     0    
2019/07/23  05:26:00  BASE  3.31632  234  6.47388  228  -8.5  100   -8.5  0     0     987.1    NA       0.0000   9999     850   0     0    
2019/07/23  05:27:00  BASE  4.12188  231  6.02112  238  -8.5  100   -8.5  0     0     987.1    NA       0.0000   9999     720   0     0    
2019/07/23  05:28:00  BASE  4.82748  225  5.86824  225  -8.5  100   -8.5  0     0     987.1    NA       0.0000   9999     690   0     0    
2019/07/23  05:29:00  BASE  4.77456  218  5.86824  225  -8.5  100   -8.5  0     0     987.1    NA       0.0000   9999     660   0     0    
2019/07/23  05:30:00  BASE  4.8216   214  5.86824  225  -8.4  100   -8.4  0     0     987.1    NA       0.0000   9999     660   0     0    
2019/07/23  05:31:00  BASE  4.75104  217  5.86824  225  -8.5  100   -8.5  0     0     987.1    NA       0.0000   9999     750   0     0    
2019/07/23  05:32:00  BASE  4.69812  222  5.92704  222  -8.5  100   -8.5  0     0     987.2    NA       0.0000   9999     790   0     0    
2019/07/23  05:33:00  BASE  5.25672  225  6.13872  227  -8.5  100   -8.5  0     0     987.2    NA       0.0000   9999     690   0     0    
2019/07/23  05:34:00  BASE  4.72752  228  6.13872  227  -8.5  100   -8.5  0     0     987.2    NA       0.0000   9999     360   0     0    
2019/07/23  05:35:00  BASE  3.79848  229  6.13872  227  -8.5  100   -8.5  0     0     987.3    NA       0.0000   9999     490   0     0    
2019/07/23  05:36:00  BASE  3.72204  229  6.13872  227  -8.5  100   -8.5  0     0     987.3    NA       0.0000   9999     750   0     0    
2019/07/23  05:37:00  BASE  4.3218   237  6.13872  227  -8.5  100   -8.5  0     0     987.3    NA       0.0000   9999     660   0     0    
2019/07/23  05:38:00  BASE  4.72164  241  6.13872  227  -8.5  100   -8.5  0     0     987.3    NA       0.0000   9999     460   0     0    
2019/07/23  05:39:00  BASE  4.22184  237  6.13872  227  -8.5  100   -8.5  0     0     987.3    NA       0.0000   9999     360   0     0    
2019/07/23  05:40:00  BASE  4.73928  230  6.13872  227  -8.5  100   -8.5  0     0     987.3    NA       0.0000   9999     560   0     0    
2019/07/23  05:41:00  BASE  5.16852  222  6.13872  227  -8.5  100   -8.5  0     0     987.3    NA       0.0000   9999     490   0     0    
2019/07/23  05:42:00  BASE  4.42176  215  6.13872  227  -8.5  100   -8.5  0     0     987.3    NA       0.0000   9999     520   0     0    
2019/07/23  05:43:00  BASE  4.0572   211  6.02112  221  -8.5  100   -8.5  0     0     987.3    NA       0.0000   9999     360   0     0    
2019/07/23  05:44:00  BASE  4.1454   221  6.02112  221  -8.5  100   -8.5  0     0     987.3    NA       0.0000   9999     490   0     0    
2019/07/23  05:45:00  BASE  4.23948  236  6.02112  221  -8.5  100   -8.5  0     0     987.3    NA       0.0000   9999     490   0     0    
2019/07/23  05:46:00  BASE  3.85728  246  6.02112  221  -8.5  100   -8.5  0     0     987.3    NA       0.0000   9999     390   0     0    
2019/07/23  05:47:00  BASE  3.52212  252  6.02112  221  -8.5  100   -8.5  0     0     987.4    NA       0.0000   9999     460   0     0    
2019/07/23  05:48:00  BASE  3.7632   244  6.02112  221  -8.5  100   -8.5  0     0     987.4    NA       0.0000   9999     390   0     0    
2019/07/23  05:49:00  BASE  4.15716  234  6.02112  221  -8.5  100   -8.5  0     0     987.4    NA       0.0000   9999     390   0     0    
2019/07/23  05:50:00  BASE  4.21596  234  5.74476  224  -8.5  100   -8.5  0     0     987.4    NA       0.0000   9999     390   0     0    
2019/07/23  05:51:00  BASE  4.04544  230  5.08032  239  -8.5  100   -8.5  0     0     987.4    NA       0.0000   9999     430   0     0    
2019/07/23  05:52:00  BASE  4.47468  231  5.71536  240  -8.5  100   -8.5  0     0     987.3    NA       0.0000   9999     390   0     0    
2019/07/23  05:53:00  BASE  4.89804  231  5.71536  240  -8.4  100   -8.4  0     0     987.3    NA       0.0000   9999     460   0     0    
2019/07/23  05:54:00  BASE  4.69224  229  5.71536  240  -8.4  100   -8.4  0     0     987.4    NA       0.0000   9999     430   0     0    
2019/07/23  05:55:00  BASE  4.2336   242  5.71536  240  -8.4  100   -8.4  0     0     987.4    NA       0.0000   9999     590   0     0    
2019/07/23  05:56:00  BASE  4.42176  247  5.71536  240  -8.4  100   -8.4  0     0     987.4    NA       0.0000   9999     560   0     0    
2019/07/23  05:57:00  BASE  4.78044  244  5.71536  240  -8.4  100   -8.4  0     0     987.4    NA       0.0000   9999     430   0     0    
2019/07/23  05:58:00  BASE  4.28652  241  5.71536  240  -8.5  100   -8.5  0     0     987.4    NA       0.0000   9999     390   0     0    
2019/07/23  05:59:00  BASE  3.89844  234  5.71536  240  -8.5  100   -8.5  0     0     987.5    NA       0.0000   9999     460   0     0    
2019/07/23  06:00:00  BASE  3.88668  229  5.71536  240  -8.5  100   -8.5  0     0     987.6    NA       0.0000   9999     430   0     0    
2019/07/23  06:01:00  BASE  4.2336   229  5.71536  240  -8.5  100   -8.5  0     0     987.5    NA       0.0000   9999     430   0     0    
2019/07/23  06:02:00  BASE  4.1748   226  5.68596  241  -8.5  100   -8.5  0     0     987.6    NA       0.0000   9999     430   0     0    
2019/07/23  06:03:00  BASE  3.86904  229  5.68596  241  -8.5  100   -8.5  0     0     987.6    NA       0.0000   9999     560   0     0    
2019/07/23  06:04:00  BASE  4.46292  234  5.99172  226  -8.4  100   -8.4  0     0     987.5    NA       0.0000   9999     460   0     0    
2019/07/23  06:05:00  BASE  4.93332  231  5.99172  226  -8.5  100   -8.5  0     0     987.6    NA       0.0000   9999     360   0     0    
2019/07/23  06:06:01  BASE  4.62168  231  5.99172  226  -8.5  100   -8.5  0     0     987.6    NA       0.0000   9999     390   0     0    
2019/07/23  06:07:00  BASE  4.55112  236  5.99172  226  -8.5  100   -8.5  0     0     987.6    NA       0.0000   9999     430   0     0    
2019/07/23  06:08:00  BASE  4.44528  241  5.99172  226  -8.5  100   -8.5  0     0     987.6    NA       0.0000   9999     390   0     0    
2019/07/23  06:09:00  BASE  4.2336   239  5.99172  226  -8.5  100   -8.5  0     0     987.6    NA       0.0000   9999     390   0     0    
2019/07/23  06:10:00  BASE  4.19832  238  5.99172  226  -8.5  100   -8.5  0     0     987.6    NA       0.0000   9999     330   0     0    
2019/07/23  06:11:01  BASE  3.71616  246  5.99172  226  -8.5  100   -8.5  0     0     987.6    NA       0.0000   9999     460   0     0    
2019/07/23  06:12:00  BASE  3.83376  247  5.99172  226  -8.5  100   -8.5  0     0     987.5    NA       0.0000   9999     490   0     0    
2019/07/23  06:13:00  BASE  4.68636  244  5.99172  226  -8.6  100   -8.6  0     0     987.6    NA       0.0000   9999     330   0     0    
2019/07/23  06:14:00  BASE  4.6158   249  5.71536  248  -8.6  100   -8.6  0     0     987.6    NA       0.0000   9999     430   0     0    
2019/07/23  06:15:00  BASE  4.4982   255  5.71536  248  -8.6  100   -8.6  0     0     987.5    NA       0.0000   9999     560   0     0    
2019/07/23  06:16:00  BASE  4.557    246  5.71536  248  -8.6  100   -8.6  0     0     987.6    NA       0.0000   9999     560   0     0    
2019/07/23  06:17:00  BASE  4.66284  234  5.80944  234  -8.6  100   -8.6  0     0     987.6    NA       0.0000   -SN      9999  590   0    
2019/07/23  06:18:00  BASE  4.53348  232  5.80944  234  -8.6  100   -8.6  0     0     987.6    NA       0.0000   -SN      9999  490   0    
2019/07/23  06:19:00  BASE  4.49232  242  5.80944  250  -8.5  100   -8.5  0     0     987.7    NA       0.0000   -SN      9999  620   0    
2019/07/23  06:20:00  BASE  4.851    246  5.80944  250  -8.5  100   -8.5  0     0     987.6    NA       0.0000   -SN      9999  660   0    
2019/07/23  06:21:00  BASE  4.84512  240  5.99172  242  -8.5  100   -8.5  0     0     987.7    NA       0.0000   -SN      9999  720   0    
2019/07/23  06:22:00  BASE  4.9098   238  5.99172  242  -8.5  100   -8.5  0     0     987.7    NA       0.0000   -SN      9999  560   0    
2019/07/23  06:23:00  BASE  4.43352  240  5.99172  242  -8.6  100   -8.6  0     0     987.7    NA       0.0000   -SN      9999  560   0    
2019/07/23  06:24:00  BASE  4.33356  248  5.99172  242  -8.6  100   -8.6  0     0     987.7    NA       0.0000   -SN      9999  720   0    
2019/07/23  06:25:00  BASE  5.0568   251  6.07992  248  -8.6  100   -8.6  0     0     987.7    NA       0.0000   -SN      9999  850   0    
2019/07/23  06:26:00  BASE  4.91568  248  6.07992  248  -8.7  100   -8.7  0     0     987.7    NA       0.0000   -SN      9999  850   0    
2019/07/23  06:27:00  BASE  4.45116  240  6.07992  248  -8.7  100   -8.7  0     0     987.7    NA       0.0000   -SN      9999  790   0    
2019/07/23  06:28:00  BASE  4.82748  236  6.07992  248  -8.7  100   -8.7  0     0     987.8    NA       0.0000   -SN      9999  790   0    
2019/07/23  06:29:01  BASE  4.87452  234  6.07992  248  -8.7  100   -8.7  0     0     987.8    NA       0.0000   -SN      9999  820   0    
2019/07/23  06:30:01  BASE  4.89216  227  6.3798   219  -8.7  100   -8.7  0     0     987.7    NA       0.0000   9999     520   0     0    
2019/07/23  06:31:00  BASE  5.69184  224  6.92664  223  -8.7  100   -8.7  0     0     987.7    NA       0.0000   9999     750   0     0    
2019/07/23  06:32:00  BASE  5.8212   222  6.92664  223  -8.7  100   -8.7  0     0     987.8    NA       0.0000   9999     490   0     0    
2019/07/23  06:33:00  BASE  5.27436  221  6.92664  223  -8.8  100   -8.8  0     0     987.8    NA       0.0000   9999     690   0     0    
2019/07/23  06:34:01  BASE  5.00388  222  6.92664  223  -8.8  100   -8.8  0     0     987.9    NA       0.0000   9999     520   0     0    
2019/07/23  06:35:00  BASE  4.63344  227  6.92664  223  -8.8  100   -8.8  0     0     987.9    NA       0.0000   9999     620   0     0    
2019/07/23  06:36:01  BASE  4.00428  234  6.92664  223  -8.8  100   -8.8  0     0     987.9    NA       0.0000   9999     590   0     0    
2019/07/23  06:37:00  BASE  3.63972  239  6.92664  223  -8.8  100   -8.8  0     0     987.9    NA       0.0000   9999     720   0     0    
2019/07/23  06:38:00  BASE  4.34532  231  7.19712  223  -8.8  100   -8.8  0     0     987.8    NA       0.0000   9999     750   0     0    
2019/07/23  06:39:00  BASE  5.80356  225  7.19712  223  -8.8  100   -8.8  0     0     987.8    NA       0.0000   9999     590   0     0    
2019/07/23  06:40:00  BASE  6.37392  223  7.19712  223  -8.8  100   -8.8  0     0     987.8    NA       0.0000   9999     620   0     0    
2019/07/23  06:41:00  BASE  5.97996  223  7.19712  223  -8.8  100   -8.8  0     0     987.9    NA       0.0000   9999     520   0     0    
2019/07/23  06:42:00  BASE  5.22144  229  7.19712  223  -8.8  100   -8.8  0     0     987.9    NA       0.0000   9999     620   0     0    
2019/07/23  06:43:00  BASE  4.23948  236  7.19712  223  -8.9  100   -8.9  0     0     988.0    NA       0.0000   9999     560   0     0    
2019/07/23  06:44:00  BASE  3.68088  242  7.19712  223  -8.9  100   -8.9  0     0     988.0    NA       0.0000   9999     620   0     0    
2019/07/23  06:45:00  BASE  3.58092  248  7.19712  223  -8.9  100   -8.9  0     0     988.0    NA       0.0000   9999     590   0     0    
2019/07/23  06:46:00  BASE  3.72792  241  7.19712  223  -8.9  100   -8.9  0     0     988.1    NA       0.0000   9999     720   0     0    
2019/07/23  06:47:00  BASE  4.33944  236  7.19712  223  -8.9  100   -8.9  0     0     988.1    NA       0.0000   9999     690   0     0    
2019/07/23  06:48:00  BASE  5.292    237  7.07952  224  -8.9  100   -8.9  0     0     988.0    NA       0.0000   9999     560   0     0    
2019/07/23  06:49:00  BASE  5.42724  231  6.83844  226  -8.9  100   -8.9  0     0     988.1    NA       0.0000   9999     490   0     0    
2019/07/23  06:50:01  BASE  5.12148  235  6.83844  226  -8.9  100   -8.9  0     0     988.1    NA       0.0000   9999     460   0     0    
2019/07/23  06:51:00  BASE  4.82748  230  6.68556  233  -8.9  100   -8.9  0     0     988.2    NA       0.0000   9999     430   0     0    
2019/07/23  06:52:00  BASE  4.42176  228  6.68556  233  -9.0  100   -9.0  0     0     988.2    NA       0.0000   9999     660   0     0    
2019/07/23  06:53:00  BASE  4.3806   238  6.68556  233  -9.0  100   -9.0  0     0     988.2    NA       0.0000   9999     890   0     0    
2019/07/23  06:54:00  BASE  4.86864  238  6.68556  233  -9.1  100   -9.1  0     0     988.2    NA       0.0000   9999     790   0     0    
2019/07/23  06:55:00  BASE  5.145    233  6.68556  233  -9.1  100   -9.1  0     0     988.3    NA       0.0000   9999     750   0     0    
2019/07/23  06:56:00  BASE  5.34492  233  6.68556  233  -9.1  100   -9.1  0     0     988.3    NA       0.0000   9999     790   0     0    
2019/07/23  06:57:00  BASE  5.56836  233  6.68556  233  -9.1  100   -9.1  0     0     988.3    NA       0.0000   9999     720   0     0    
2019/07/23  06:58:00  BASE  5.0862   226  6.13872  235  -9.1  100   -9.1  0     0     988.4    NA       0.0000   9999     790   0     0    
2019/07/23  06:59:00  BASE  4.62168  223  6.13872  235  -9.1  100   -9.1  0     0     988.4    NA       0.0000   9999     850   0     0    
2019/07/23  07:00:00  BASE  4.12188  228  6.13872  235  -9.1  100   -9.1  0     0     988.4    NA       0.0000   9999     890   0     0    
2019/07/23  07:01:00  BASE  3.90432  229  6.13872  235  -9.2  100   -9.2  0     0     988.4    NA       0.0000   9999     850   0     0    
2019/07/23  07:02:00  BASE  4.12188  229  6.13872  235  -9.2  100   -9.2  0     0     988.4    NA       0.0000   9999     850   0     0    
2019/07/23  07:03:00  BASE  4.71576  231  6.13872  235  -9.2  100   -9.2  0     0     988.4    NA       0.0000   9999     890   0     0    
2019/07/23  07:04:00  BASE  5.16264  229  6.05052  234  -9.2  100   -9.2  0     0     988.4    NA       0.0000   9999     790   0     0    
2019/07/23  07:05:00  BASE  4.63932  229  6.05052  234  -9.2  100   -9.2  0     0     988.4    NA       0.0000   9999     850   0     0    
2019/07/23  07:06:00  BASE  4.56876  234  5.95644  228  -9.2  100   -9.2  0     0     988.4    NA       0.0000   9999     690   0     0    
2019/07/23  07:07:00  BASE  4.98624  238  5.95644  228  -9.2  100   -9.2  0     0     988.4    NA       0.0000   9999     720   0     0    
2019/07/23  07:08:00  BASE  5.20968  232  6.07992  231  -9.2  100   -9.2  0     0     988.4    NA       0.0000   9999     750   0     0    
2019/07/23  07:09:00  BASE  5.733    229  6.47388  233  -9.2  100   -9.2  0     0     988.4    NA       0.0000   9999     750   0     0    
2019/07/23  07:10:00  BASE  5.84472  233  6.47388  233  -9.2  100   -9.2  0     0     988.4    NA       0.0000   9999     750   0     0    
2019/07/23  07:11:00  BASE  5.41548  235  6.47388  233  -9.2  100   -9.2  0     0     988.5    NA       0.0000   9999     660   0     0    
2019/07/23  07:12:00  BASE  4.73928  233  6.47388  233  -9.2  100   -9.2  0     0     988.5    NA       0.0000   9999     750   0     0    
2019/07/23  07:13:00  BASE  4.25124  239  6.47388  233  -9.2  100   -9.2  0     0     988.5    NA       0.0000   9999     920   0     0    
2019/07/23  07:14:00  BASE  4.22772  246  6.92664  237  -9.3  100   -9.3  0     0     988.5    NA       0.0000   9999     1020  0     0    
2019/07/23  07:15:00  BASE  4.95684  245  6.92664  237  -9.3  100   -9.3  0     0     988.5    NA       0.0000   9999     890   0     0    
2019/07/23  07:16:00  BASE  5.3802   244  6.92664  237  -9.3  100   -9.3  0     0     988.5    NA       0.0000   9999     850   0     0    
2019/07/23  07:17:00  BASE  5.05092  246  6.92664  237  -9.3  100   -9.3  0     0     988.5    NA       0.0000   9999     790   0     0    
2019/07/23  07:18:00  BASE  4.59228  249  6.92664  237  -9.3  100   -9.3  0     0     988.5    NA       0.0000   9999     1050  0     0    
2019/07/23  07:19:00  BASE  4.62756  249  6.92664  237  -9.3  100   -9.3  0     0     988.5    NA       0.0000   9999     980   0     0    
2019/07/23  07:20:00  BASE  4.76868  247  6.92664  237  -9.3  100   -9.3  0     0     988.5    NA       0.0000   9999     750   0     0    
2019/07/23  07:21:00  BASE  4.15128  248  6.92664  237  -9.3  100   -9.3  0     0     988.6    NA       0.0000   9999     890   0     0    
2019/07/23  07:22:00  BASE  4.16892  246  6.92664  237  -9.3  100   -9.3  0     0     988.6    NA       0.0000   9999     790   0     0    
2019/07/23  07:23:00  BASE  4.4982   246  6.92664  237  -9.3  100   -9.3  0     0     988.7    NA       0.0000   9999     690   0     0    
2019/07/23  07:24:00  BASE  4.6452   252  6.71496  240  -9.3  100   -9.3  0     0     988.7    NA       0.0000   9999     790   0     0    
2019/07/23  07:25:00  BASE  4.80396  251  5.78004  254  -9.3  100   -9.3  0     0     988.7    NA       0.0000   9999     820   0     0    
2019/07/23  07:26:00  BASE  4.88628  247  5.78004  254  -9.3  100   -9.3  0     0     988.7    NA       0.0000   9999     750   0     0    
2019/07/23  07:27:00  BASE  4.63932  248  5.78004  254  -9.3  100   -9.3  0     0     988.7    NA       0.0000   9999     690   0     0    
2019/07/23  07:28:00  BASE  3.92196  253  5.78004  254  -9.3  100   -9.3  0     0     988.7    NA       0.0000   9999     820   0     0    
2019/07/23  07:29:01  BASE  3.84552  255  5.78004  254  -9.3  100   -9.3  0     0     988.7    NA       0.0000   9999     920   0     0    
2019/07/23  07:30:01  BASE  4.22184  253  5.80944  254  -9.3  100   -9.3  0     0     988.7    NA       0.0000   9999     890   0     0    
2019/07/23  07:31:01  BASE  4.89804  245  6.02112  240  -9.3  100   -9.3  0     0     988.7    NA       0.0000   9999     820   0     0    
2019/07/23  07:32:01  BASE  4.89804  234  6.02112  240  -9.3  100   -9.3  0     0     988.7    NA       0.0000   9999     590   0     0    
2019/07/23  07:33:01  BASE  4.2924   229  6.02112  240  -9.2  100   -9.2  0     0     988.7    NA       0.0000   9999     560   0     0    
2019/07/23  07:34:01  BASE  4.54524  232  6.02112  240  -9.2  100   -9.2  0     0     988.8    NA       0.0000   9999     430   0     0    
2019/07/23  07:35:01  BASE  4.704    232  6.02112  240  -9.2  100   -9.2  0     0     988.8    NA       0.0000   9999     430   0     0    
2019/07/23  07:36:01  BASE  4.5864   233  6.02112  240  -9.2  100   -9.2  0     0     988.8    NA       0.0000   9999     390   0     0    
2019/07/23  07:37:01  BASE  4.12188  237  6.02112  240  -9.2  100   -9.2  0     0     988.9    NA       0.0000   9999     300   0     0    
2019/07/23  07:38:01  BASE  4.03368  234  6.02112  240  -9.2  100   -9.2  0     0     988.9    NA       0.0000   -SN      9999  390   0    
2019/07/23  07:39:00  BASE  4.59228  233  6.02112  240  -9.2  100   -9.2  0     0     989.0    NA       0.0000   -SN      9999  690   0    
2019/07/23  07:40:00  BASE  5.38608  236  6.92664  232  -9.2  100   -9.2  0     0     988.9    NA       0.0000   -SN      9999  750   0    
2019/07/23  07:41:00  BASE  6.12696  240  6.92664  232  -9.3  100   -9.3  0     0     988.9    NA       0.0000   -SN      9999  820   0    
2019/07/23  07:42:00  BASE  5.93292  248  6.92664  232  -9.3  100   -9.3  0     0     988.9    NA       0.0000   -SN      9999  790   0    
2019/07/23  07:43:00  BASE  5.31552  248  6.92664  232  -9.3  100   -9.3  0     0     988.9    NA       0.0000   -SN      9999  890   0    
2019/07/23  07:44:01  BASE  5.4684   238  6.92664  232  -9.4  100   -9.4  0     0     988.9    NA       0.0000   -SN      9999  660   0    
2019/07/23  07:45:01  BASE  5.50956  232  6.92664  232  -9.4  100   -9.4  0     0     988.9    NA       0.0000   -SN      9999  980   0    
2019/07/23  07:46:00  BASE  4.7922   235  6.92664  232  -9.5  100   -9.5  0     0     989.0    NA       0.0000   -SN      9999  980   0    
2019/07/23  07:47:00  BASE  4.851    244  6.92664  232  -9.5  100   -9.5  0     0     988.9    NA       0.0000   -SN      9999  980   0    
2019/07/23  07:48:00  BASE  5.16852  251  6.92664  232  -9.4  100   -9.4  0     0     989.0    NA       0.0000   9999     360   0     0    
2019/07/23  07:49:00  BASE  4.62756  251  6.92664  232  -9.5  100   -9.5  0     0     989.1    NA       0.0000   9999     360   0     0    
2019/07/23  07:50:00  BASE  3.822    247  6.86784  244  -9.5  100   -9.5  0     0     989.1    NA       0.0000   9999     590   0     0    
2019/07/23  07:51:00  BASE  3.15168  242  6.41508  235  -9.5  100   -9.5  0     0     989.1    NA       0.0000   9999     790   0     0    
2019/07/23  07:52:00  BASE  2.39316  252  6.41508  235  -9.5  100   -9.5  0     0     989.1    NA       0.0000   9999     950   0     0    
2019/07/23  07:53:00  BASE  2.04624  258  6.41508  235  -9.5  100   -9.5  0     0     989.1    NA       0.0000   9999     1020  0     0    
2019/07/23  07:54:00  BASE  3.4692   232  6.2034   256  -9.5  100   -9.5  0     0     989.1    NA       0.0000   9999     920   0     0    
2019/07/23  07:55:00  BASE  5.586    220  7.05012  231  -9.4  100   -9.4  0     0     989.1    NA       0.0000   9999     790   0     0    
2019/07/23  07:56:01  BASE  5.78004  226  7.05012  231  -9.4  100   -9.4  0     0     989.1    NA       0.0000   9999     690   0     0    
2019/07/23  07:57:01  BASE  5.39196  229  7.05012  231  -9.4  100   -9.4  0     0     989.1    NA       0.0000   9999     850   0     0    
2019/07/23  07:58:01  BASE  5.77416  231  7.05012  231  -9.3  100   -9.3  0     0     989.1    NA       0.0000   9999     720   0     0    
2019/07/23  07:59:01  BASE  5.36844  230  7.05012  231  -9.3  100   -9.3  0     0     989.2    NA       0.0000   9999     720   0     0    
2019/07/23  08:00:00  BASE  4.63344  229  7.05012  231  -9.3  100   -9.3  0     0     989.3    NA       0.0000   9999     720   0     0    
2019/07/23  08:01:00  BASE  4.03368  232  7.05012  231  -9.3  100   -9.3  0     0     989.4    NA       0.0000   9999     360   0     0    
2019/07/23  08:02:00  BASE  3.7926   233  7.05012  231  -9.3  100   -9.3  0     0     989.4    NA       0.0000   8000     390   0     0    
2019/07/23  08:03:00  BASE  4.62756  227  7.05012  231  -9.3  100   -9.3  0     0     989.4    NA       0.0000   -SN      9999  560   0    
2019/07/23  08:04:00  BASE  5.12148  228  7.05012  231  -9.4  100   -9.4  0     0     989.4    NA       0.0000   -SN      9999  590   0    
2019/07/23  08:05:00  BASE  4.75692  229  6.92664  231  -9.4  100   -9.4  0     0     989.4    NA       0.0000   -SN      9999  360   0    
2019/07/23  08:06:00  BASE  4.33356  224  6.92664  231  -9.4  100   -9.4  0     0     989.4    NA       0.0000   -SN      9999  360   0    
2019/07/23  08:07:00  BASE  4.58052  231  6.56208  228  -9.4  100   -9.4  0     0     989.4    NA       0.0000   -SN      9999  330   0    
2019/07/23  08:08:00  BASE  4.46292  241  6.07992  242  -9.4  100   -9.4  0     0     989.5    NA       0.0000   -SN      9999  300   0    
2019/07/23  08:09:00  BASE  4.22184  249  6.07992  242  -9.4  100   -9.4  0     0     989.5    NA       0.0000   -SN      9999  330   0    
2019/07/23  08:10:00  BASE  5.04504  252  6.53268  247  -9.5  100   -9.5  0     0     989.4    NA       0.0000   -SN      9999  360   0    
2019/07/23  08:11:00  BASE  5.70948  249  6.53268  247  -9.5  100   -9.5  0     0     989.4    NA       0.0000   -SN      8000  360   0    
2019/07/23  08:12:00  BASE  5.33316  250  6.53268  247  -9.5  100   -9.5  0     0     989.5    NA       0.0000   -SN      9999  690   0    
2019/07/23  08:13:00  BASE  5.20968  244  6.59148  237  -9.5  100   -9.5  0     0     989.5    NA       0.0000   -SN      9999  660   0    
2019/07/23  08:14:00  BASE  5.82708  238  6.83844  239  -9.6  100   -9.6  0     0     989.5    NA       0.0000   -SN      9999  590   0    
2019/07/23  08:15:00  BASE  5.92116  241  6.83844  239  -9.6  100   -9.6  0     0     989.5    NA       0.0000   -SN      9999  560   0    
2019/07/23  08:16:00  BASE  5.50368  243  6.98544  230  -9.6  100   -9.6  0     0     989.5    NA       0.0000   -SN      9999  660   0    
2019/07/23  08:17:00  BASE  5.32728  239  6.98544  230  -9.6  100   -9.6  0     0     989.5    NA       0.0000   -SN      9999  620   0    
2019/07/23  08:18:00  BASE  4.95684  239  6.98544  230  -9.7  100   -9.7  0     0     989.6    NA       0.0000   -SN      9999  850   0    
2019/07/23  08:19:01  BASE  4.80396  244  6.98544  230  -9.7  100   -9.7  0     0     989.6    NA       0.0000   -SN      9999  950   0    
2019/07/23  08:20:01  BASE  5.27436  247  6.98544  230  -9.7  100   -9.7  0     0     989.6    NA       0.0000   -SN      9999  890   0    
2019/07/23  08:21:01  BASE  5.2626   253  6.98544  230  -9.8  100   -9.8  0     0     989.6    NA       0.0000   9999     1050  0     0    
2019/07/23  08:22:01  BASE  4.86864  258  6.98544  230  -9.8  100   -9.8  0     0     989.6    NA       0.0000   9999     1080  0     0    
2019/07/23  08:23:01  BASE  4.4982   252  6.98544  230  -9.8  100   -9.8  0     0     989.6    NA       0.0000   9999     1020  0     0    
2019/07/23  08:24:01  BASE  3.9102   237  6.98544  230  -9.8  100   -9.8  0     0     989.7    NA       0.0000   9999     1150  0     0    
2019/07/23  08:25:00  BASE  3.72204  236  6.98544  230  -9.8  100   -9.8  0     0     989.7    NA       0.0000   9999     1050  0     0    
2019/07/23  08:26:00  BASE  3.89844  246  6.80316  243  -9.8  100   -9.8  0     0     989.7    NA       0.0000   9999     1020  0     0    
2019/07/23  08:27:00  BASE  3.97488  248  6.16812  249  -9.7  100   -9.7  0     0     989.7    NA       0.0000   9999     1050  0     0    
2019/07/23  08:28:00  BASE  4.09248  246  6.16812  249  -9.7  100   -9.7  0     0     989.7    NA       0.0000   9999     980   0     0    
2019/07/23  08:29:00  BASE  4.25712  249  6.13872  253  -9.7  100   -9.7  0     0     989.7    NA       0.0000   9999     980   0     0    
2019/07/23  08:30:00  BASE  4.78632  255  6.13872  253  -9.7  100   -9.7  0     0     989.7    NA       0.0000   9999     1020  0     0    
2019/07/23  08:31:00  BASE  4.65696  262  6.13872  253  -9.7  100   -9.7  0     0     989.7    NA       0.0000   9999     890   0     0    
2019/07/23  08:32:00  BASE  3.528    270  6.13872  253  -9.7  100   -9.7  0     0     989.8    NA       0.0000   9999     850   0     0    
2019/07/23  08:33:00  BASE  2.89296  271  6.13872  253  -9.7  100   -9.7  0     0     989.8    NA       0.0000   9999     790   0     0    
2019/07/23  08:34:00  BASE  2.89884  266  6.13872  253  -9.7  100   -9.7  0     0     989.8    NA       0.0000   9999     300   0     0    
2019/07/23  08:35:01  BASE  2.64012  264  6.13872  253  -9.7  100   -9.7  0     0     989.8    NA       0.0000   6000     0     0     0    
2019/07/23  08:36:01  BASE  2.3226   264  6.13872  253  -9.7  100   -9.7  0     0     989.8    NA       0.0000   -SN      6000  300   0    
2019/07/23  08:37:00  BASE  2.31672  265  6.13872  253  -9.7  100   -9.7  0     0     989.8    NA       0.0000   -SN      5000  260   0    
2019/07/23  08:38:00  BASE  2.77536  259  6.13872  253  -9.6  100   -9.6  0     0     989.8    NA       0.0000   -SN      BR    4600  300  
2019/07/23  08:39:00  BASE  3.90432  240  5.65656  253  -9.6  100   -9.6  0     0     989.8    NA       0.0000   -SN      BR    5000  230  
2019/07/23  08:40:00  BASE  4.84512  230  5.59776  230  -9.5  100   -9.5  0     0     989.8    NA       0.0000   -SN      BR    6000  330  
2019/07/23  08:41:00  BASE  5.1156   232  6.2622   233  -9.5  100   -9.5  0     0     989.8    NA       0.0000   -SN      BR    6000  300  
2019/07/23  08:42:00  BASE  5.15088  234  6.2622   233  -9.5  100   -9.5  0     0     989.8    NA       0.0000   -SN      BR    9999  390  
2019/07/23  08:43:00  BASE  5.31552  234  6.53268  227  -9.5  100   -9.5  0     0     989.8    NA       0.0000   -SN      BR    9999  950  
2019/07/23  08:44:00  BASE  5.88588  230  7.05012  229  -9.6  100   -9.6  0     0     989.8    NA       0.0000   -SN      BR    9999  1020 
2019/07/23  08:45:00  BASE  5.9388   230  7.19712  227  -9.6  100   -9.6  0     0     989.8    NA       0.0000   -SN      BR    9999  980  
2019/07/23  08:46:00  BASE  5.68008  232  7.19712  227  -9.6  100   -9.6  0     0     989.8    NA       0.0000   -SN      BR    9999  1020 
2019/07/23  08:47:00  BASE  5.65656  236  7.19712  227  -9.6  100   -9.6  0     0     989.9    NA       0.0000   -SN      BR    9999  890  
2019/07/23  08:48:00  BASE  5.53896  231  7.19712  227  -9.6  100   -9.6  0     0     989.9    NA       0.0000   -SN      9999  920   0    
2019/07/23  08:49:00  BASE  5.2626   226  7.19712  227  -9.6  100   -9.6  0     0     989.9    NA       0.0000   -SN      9999  950   0    
2019/07/23  08:50:00  BASE  4.36296  227  7.19712  227  -9.7  100   -9.7  0     0     989.9    NA       0.0000   -SN      9999  820   0    
2019/07/23  08:51:00  BASE  4.4688   235  7.19712  227  -9.8  100   -9.8  0     0     989.9    NA       0.0000   -SN      9999  1120  0    
2019/07/23  08:52:00  BASE  4.99212  241  7.19712  227  -9.8  100   -9.8  0     0     989.9    NA       0.0000   9999     980   0     0    
2019/07/23  08:53:00  BASE  4.78044  239  7.19712  227  -9.8  100   -9.8  0     0     989.9    NA       0.0000   9999     950   0     0    
2019/07/23  08:54:00  BASE  5.03916  240  7.19712  227  -9.8  100   -9.8  0     0     990.0    NA       0.0000   9999     1020  0     0    
2019/07/23  08:55:00  BASE  5.06856  246  6.71496  231  -9.9  100   -9.9  0     0     990.0    NA       0.0000   9999     920   0     0    
2019/07/23  08:56:00  BASE  4.83336  241  6.47388  240  -9.9  100   -9.9  0     0     990.0    NA       0.0000   9999     1080  0     0    
2019/07/23  08:57:00  BASE  5.44488  230  6.62676  235  -9.9  100   -9.9  0     0     990.0    NA       0.0000   9999     890   0     0    
2019/07/23  08:58:00  BASE  5.95644  228  6.62676  235  -10.0 100   -10.0 0     0     990.1    NA       0.0000   9999     750   0     0    
2019/07/23  08:59:00  BASE  5.00388  227  6.62676  235  -10.0 100   -10.0 0     0     990.2    NA       0.0000   9999     690   0     0    
2019/07/23  09:00:01  BASE  4.41588  224  6.62676  235  -10.0 100   -10.0 0     0     990.2    NA       0.0000   9999     750   0     0    
2019/07/23  09:01:01  BASE  4.75104  225  6.62676  235  -10.0 100   -10.0 0     0     990.2    NA       0.0000   9999     690   0     0    
2019/07/23  09:02:01  BASE  4.12776  229  6.62676  235  -10.0 100   -10.0 0     0     990.2    NA       0.0000   9999     590   0     0    
2019/07/23  09:03:01  BASE  3.75144  235  6.62676  235  -10.0 100   -10.0 0     0     990.2    NA       0.0000   9999     790   0     0    
2019/07/23  09:04:01  BASE  4.33944  241  6.62676  235  -10.0 100   -10.0 0     0     990.2    NA       0.0000   9999     920   0     0    
2019/07/23  09:05:01  BASE  4.82748  243  6.62676  235  -10.1 100   -10.1 0     0     990.2    NA       0.0000   9999     920   0     0    
2019/07/23  09:06:01  BASE  5.47428  236  7.92624  225  -10.1 100   -10.1 0     0     990.2    NA       0.0000   9999     890   0     0    
2019/07/23  09:07:01  BASE  6.24456  223  7.92624  225  -10.1 100   -10.1 0     0     990.2    NA       0.0000   9999     890   0     0    
2019/07/23  09:08:01  BASE  6.24456  223  7.92624  225  -10.1 100   -10.1 0     0     990.2    NA       0.0000   9999     790   0     0    
2019/07/23  09:09:01  BASE  5.95056  226  7.92624  225  -10.1 100   -10.1 0     0     990.2    NA       0.0000   9999     520   0     0    
2019/07/23  09:10:00  BASE  5.88     228  7.92624  225  -10.1 100   -10.1 0     0     990.2    NA       0.0000   9999     590   0     0    
2019/07/23  09:11:00  BASE  5.33316  235  7.92624  225  -10.1 100   -10.1 0     0     990.3    NA       0.0000   9999     820   0     0    
2019/07/23  09:12:00  BASE  5.28024  243  7.92624  225  -10.1 100   -10.1 0     0     990.3    NA       0.0000   9999     750   0     0    
2019/07/23  09:13:00  BASE  4.83336  246  7.92624  225  -10.2 100   -10.2 0     0     990.4    NA       0.0000   9999     660   0     0    
2019/07/23  09:14:00  BASE  4.32768  240  7.92624  225  -10.2 100   -10.2 0     0     990.3    NA       0.0000   9999     360   0     0    
2019/07/23  09:15:00  BASE  4.704    229  7.92624  225  -10.2 100   -10.2 0     0     990.3    NA       0.0000   -SN      9999  720   0    
2019/07/23  09:16:00  BASE  4.69224  226  7.71456  222  -10.2 100   -10.2 0     0     990.4    NA       0.0000   -SN      9999  690   0    
2019/07/23  09:17:00  BASE  5.28612  234  6.53268  236  -10.2 100   -10.2 0     0     990.4    NA       0.0000   -SN      9999  230   0    
2019/07/23  09:18:00  BASE  5.8506   239  6.53268  236  -10.1 100   -10.1 0     0     990.4    NA       0.0000   -SN      9999  0     0    
2019/07/23  09:19:00  BASE  5.2038   240  6.53268  236  -10.1 100   -10.1 0     0     990.4    NA       0.0000   -SN      9999  0     0    
2019/07/23  09:20:00  BASE  4.91568  244  6.53268  236  -10.1 100   -10.1 0     0     990.5    NA       0.0000   -SN      9000  230   0    
2019/07/23  09:21:00  BASE  4.8216   254  6.53268  236  -10.1 100   -10.1 0     0     990.5    NA       0.0000   -SN      5000  0     0    
2019/07/23  09:22:00  BASE  4.48056  259  6.53268  236  -10.1 100   -10.1 0     0     990.5    NA       0.0000   -SN      BR    4400  0    
2019/07/23  09:23:00  BASE  4.69224  253  6.53268  236  -10.1 100   -10.1 0     0     990.5    NA       0.0000   -SN      BR    5000  0    
2019/07/23  09:24:00  BASE  4.94508  244  6.53268  236  -10.1 100   -10.1 0     0     990.5    NA       0.0000   -SN      BR    9999  300  
2019/07/23  09:25:00  BASE  4.9098   239  6.53268  236  -10.0 100   -10.0 0     0     990.5    NA       0.0000   -SN      BR    9999  330  
2019/07/23  09:26:00  BASE  4.7334   234  6.53268  236  -10.0 100   -10.0 0     0     990.5    NA       0.0000   -SN      BR    9999  360  
2019/07/23  09:27:00  BASE  4.54524  230  6.3798   244  -10.0 100   -10.0 0     0     990.6    NA       0.0000   -SN      BR    9999  360  
2019/07/23  09:28:00  BASE  4.54524  233  6.07992  241  -10.1 100   -10.1 0     0     990.6    NA       0.0000   -SN      BR    9999  300  
2019/07/23  09:29:00  BASE  4.80396  240  6.07992  241  -10.1 100   -10.1 0     0     990.6    NA       0.0000   -SN      BR    9999  260  
2019/07/23  09:30:00  BASE  4.78044  245  6.07992  241  -10.1 100   -10.1 0     0     990.6    NA       0.0000   -SN      BR    9999  330  
2019/07/23  09:31:00  BASE  4.91568  247  6.47388  243  -10.1 100   -10.1 0     0     990.5    NA       0.0000   -SN      BR    9999  330  
2019/07/23  09:32:00  BASE  5.06856  250  6.47388  243  -10.2 100   -10.2 0     0     990.6    NA       0.0000   -SN      9999  0     0    
2019/07/23  09:33:00  BASE  4.42176  259  6.47388  243  -10.2 100   -10.2 0     0     990.6    NA       0.0000   -SN      9999  0     0    
2019/07/23  09:34:00  BASE  4.25124  263  6.47388  243  -10.2 100   -10.2 0     0     990.6    NA       0.0000   -SN      9999  230   0    
2019/07/23  09:35:00  BASE  4.7628   258  6.47388  243  -10.2 100   -10.2 0     0     990.6    NA       0.0000   -SN      9999  300   0    
2019/07/23  09:36:00  BASE  4.66872  249  6.47388  243  -10.2 100   -10.2 0     0     990.6    NA       0.0000   -SN      9999  360   0    
2019/07/23  09:37:00  BASE  4.25712  236  6.47388  243  -10.1 100   -10.1 0     0     990.7    NA       0.0000   -SN      9999  0     0    
2019/07/23  09:38:00  BASE  3.8514   227  6.47388  243  -10.1 100   -10.1 0     0     990.7    NA       0.0000   -SN      6000  0     0    
2019/07/23  09:39:00  BASE  3.35748  227  6.47388  243  -10.1 100   -10.1 0     0     990.7    NA       0.0000   -SN      BR    3000  0    
2019/07/23  09:40:01  BASE  3.21048  231  6.47388  243  -10.1 100   -10.1 0     0     990.7    NA       0.0000   -SN      BR    2900  0    
2019/07/23  09:41:01  BASE  4.09248  235  6.07992  246  -10.1 100   -10.1 0     0     990.7    NA       0.0000   -SN      BR    4400  300  
2019/07/23  09:42:00  BASE  4.95684  239  5.65656  245  -10.1 100   -10.1 0     0     990.7    NA       0.0000   -SN      BR    9000  300  
2019/07/23  09:43:00  BASE  5.12148  246  6.2916   254  -10.1 100   -10.1 0     0     990.6    NA       0.0000   -SN      BR    9999  300  
2019/07/23  09:44:00  BASE  5.00976  250  6.2916   254  -10.1 100   -10.1 0     0     990.7    NA       0.0000   -SN      BR    8000  0    
2019/07/23  09:45:00  BASE  4.66872  249  6.2916   254  -10.1 100   -10.1 0     0     990.6    NA       0.0000   -SN      BR    9999  300  
2019/07/23  09:46:00  BASE  4.40412  253  6.2916   254  -10.2 100   -10.2 0     0     990.7    NA       0.0000   -SN      BR    9999  330  
2019/07/23  09:47:00  BASE  4.02192  254  6.2916   254  -10.2 100   -10.2 0     0     990.6    NA       0.0000   -SN      BR    9999  300  
2019/07/23  09:48:00  BASE  3.97488  252  6.2916   254  -10.2 100   -10.2 0     0     990.6    NA       0.0000   -SN      BR    9999  390  
2019/07/23  09:49:00  BASE  4.86864  249  6.2916   254  -10.2 100   -10.2 0     0     990.6    NA       0.0000   -SN      BR    9999  300  
2019/07/23  09:50:00  BASE  5.28612  248  6.2916   254  -10.1 100   -10.1 0     0     990.6    NA       0.0000   -SN      9999  300   0    
2019/07/23  09:51:00  BASE  5.40372  251  7.44408  245  -10.1 100   -10.1 0     0     990.6    NA       0.0000   -SN      9999  230   0    
2019/07/23  09:52:00  BASE  5.51544  247  7.44408  245  -10.2 100   -10.2 0     0     990.7    NA       0.0000   -SN      9999  330   0    
2019/07/23  09:53:00  BASE  5.57424  246  7.44408  245  -10.2 100   -10.2 0     0     990.7    NA       0.0000   -SN      9999  330   0    
2019/07/23  09:54:00  BASE  5.7918   249  7.44408  245  -10.2 100   -10.2 0     0     990.7    NA       0.0000   -SN      9999  330   0    
2019/07/23  09:55:00  BASE  5.98584  251  7.44408  245  -10.3 100   -10.3 0     0     990.7    NA       0.0000   -SN      9999  390   0    
2019/07/23  09:56:00  BASE  5.9094   253  7.44408  245  -10.3 100   -10.3 0     0     990.8    NA       0.0000   -SN      9999  330   0    
2019/07/23  09:57:00  BASE  5.18028  257  7.44408  245  -10.4 100   -10.4 0     0     990.8    NA       0.0000   -SN      9999  390   0    
2019/07/23  09:58:00  BASE  4.74516  256  7.44408  245  -10.4 100   -10.4 0     0     990.9    NA       0.0000   -SN      9999  890   0    
2019/07/23  09:59:00  BASE  4.59228  252  7.44408  245  -10.5 100   -10.5 0     0     990.9    NA       0.0000   -SN      9999  1020  0    
2019/07/23  10:00:00  BASE  3.8808   253  7.44408  245  -10.4 100   -10.4 0     0     990.9    NA       0.0000   -SN      9999  1050  0    
2019/07/23  10:01:00  BASE  3.56328  251  6.74436  250  -10.4 100   -10.4 0     0     991.0    NA       0.0000   -SN      9999  1080  0    
2019/07/23  10:02:00  BASE  4.1454   245  6.74436  250  -10.4 100   -10.4 0     0     991.0    NA       0.0000   -SN      9999  1080  0    
2019/07/23  10:03:00  BASE  4.02192  241  6.74436  250  -10.4 100   -10.4 0     0     991.0    NA       0.0000   -SN      9999  950   0    
2019/07/23  10:04:00  BASE  4.13364  240  6.74436  250  -10.3 100   -10.3 0     0     991.0    NA       0.0000   -SN      9999  430   0    
2019/07/23  10:05:00  BASE  4.69812  236  6.2916   252  -10.4 100   -10.4 0     0     991.0    NA       0.0000   -SN      9999  660   0    
2019/07/23  10:06:00  BASE  4.1454   236  5.56836  263  -10.4 100   -10.4 0     0     991.0    NA       0.0000   9999     620   0     0    
2019/07/23  10:07:00  BASE  3.47508  248  5.44488  235  -10.4 100   -10.4 0     0     991.0    NA       0.0000   9999     620   0     0    
2019/07/23  10:08:00  BASE  3.53976  259  5.44488  235  -10.4 100   -10.4 0     0     991.0    NA       0.0000   9999     950   0     0    
2019/07/23  10:09:00  BASE  4.22772  247  5.44488  235  -10.4 100   -10.4 0     0     991.0    NA       0.0000   -SN      9999  950   0    
2019/07/23  10:10:00  BASE  5.18616  229  6.41508  226  -10.4 100   -10.4 0     0     991.0    NA       0.0000   -SN      9999  980   0    
2019/07/23  10:11:00  BASE  5.2626   231  6.41508  226  -10.4 100   -10.4 0     0     991.1    NA       0.0000   -SN      9999  850   0    
2019/07/23  10:12:00  BASE  5.00976  235  6.41508  226  -10.4 100   -10.4 0     0     991.2    NA       0.0000   9999     660   0     0    
2019/07/23  10:13:00  BASE  4.80396  239  6.41508  226  -10.4 100   -10.4 0     0     991.2    NA       0.0000   9999     660   0     0    
2019/07/23  10:14:00  BASE  4.1454   242  6.41508  226  -10.4 100   -10.4 0     0     991.2    NA       0.0000   9999     520   0     0    
2019/07/23  10:15:00  BASE  3.528    247  6.41508  226  -10.4 100   -10.4 0     0     991.3    NA       0.0000   9999     750   0     0    
2019/07/23  10:16:00  BASE  3.36336  255  6.41508  226  -10.4 100   -10.4 0     0     991.3    NA       0.0000   9999     950   0     0    
2019/07/23  10:17:00  BASE  3.528    257  6.41508  226  -10.4 100   -10.4 0     0     991.3    NA       0.0000   9999     850   0     0    
2019/07/23  10:18:00  BASE  4.42176  262  6.41508  226  -10.4 100   -10.4 0     0     991.3    NA       0.0000   9999     920   0     0    
2019/07/23  10:19:00  BASE  5.36844  255  6.41508  226  -10.3 100   -10.3 0     0     991.2    NA       0.0000   9999     980   0     0    
2019/07/23  10:20:00  BASE  5.66832  239  6.41508  242  -10.3 100   -10.3 0     0     991.3    NA       0.0000   9999     1020  0     0    
2019/07/23  10:21:00  BASE  5.37432  240  6.41508  242  -10.3 100   -10.3 0     0     991.3    NA       0.0000   9999     750   0     0    
2019/07/23  10:22:00  BASE  4.63932  238  6.41508  242  -10.3 100   -10.3 0     0     991.4    NA       0.0000   9999     660   0     0    
2019/07/23  10:23:00  BASE  4.34532  240  6.41508  242  -10.3 100   -10.3 0     0     991.4    NA       0.0000   9999     430   0     0    
2019/07/23  10:24:00  BASE  4.73928  244  6.41508  242  -10.3 100   -10.3 0     0     991.3    NA       0.0000   9999     750   0     0    
2019/07/23  10:25:00  BASE  5.62128  232  6.83844  228  -10.3 100   -10.3 0     0     991.3    NA       0.0000   9999     590   0     0    
2019/07/23  10:26:00  BASE  5.6448   225  6.83844  228  -10.3 100   -10.3 0     0     991.4    NA       0.0000   9999     690   0     0    
2019/07/23  10:27:00  BASE  4.63344  234  6.83844  228  -10.3 100   -10.3 0     0     991.4    NA       0.0000   9999     720   0     0    
2019/07/23  10:28:00  BASE  4.36296  242  6.83844  228  -10.3 100   -10.3 0     0     991.4    NA       0.0000   9999     520   0     0    
2019/07/23  10:29:00  BASE  4.3806   239  6.83844  228  -10.4 100   -10.4 0     0     991.4    NA       0.0000   9999     520   0     0    
2019/07/23  10:30:00  BASE  4.68636  238  6.83844  228  -10.4 100   -10.4 0     0     991.4    NA       0.0000   9999     330   0     0    
2019/07/23  10:31:00  BASE  5.19792  251  6.83844  228  -10.4 100   -10.4 0     0     991.4    NA       0.0000   -SN      9999  390   0    
2019/07/23  10:32:00  BASE  5.56836  265  7.4088   260  -10.4 100   -10.4 0     0     991.3    NA       0.0000   -SN      9999  300   0    
2019/07/23  10:33:00  BASE  5.94468  257  7.4088   260  -10.3 100   -10.3 0     0     991.3    NA       0.0000   -SN      9000  260   0    
2019/07/23  10:34:00  BASE  6.16812  253  7.4088   260  -10.3 100   -10.3 0     0     991.4    NA       0.0000   -SN      9000  0     0    
2019/07/23  10:35:00  BASE  6.2916   258  7.4088   260  -10.3 100   -10.3 0     0     991.4    NA       0.0000   -SN      9999  300   0    
2019/07/23  10:36:00  BASE  5.91528  257  7.4088   260  -10.4 100   -10.4 0     0     991.4    NA       0.0000   -SN      9999  360   0    
2019/07/23  10:37:00  BASE  6.0564   249  7.4088   260  -10.4 100   -10.4 0     0     991.5    NA       0.0000   -SN      9999  720   0    
2019/07/23  10:38:00  BASE  6.45036  241  7.4088   260  -10.5 100   -10.5 0     0     991.4    NA       0.0000   -SN      9999  360   0    
2019/07/23  10:39:00  BASE  6.48564  242  7.4088   260  -10.5 100   -10.5 0     0     991.5    NA       0.0000   -SN      9999  260   0    
2019/07/23  10:40:00  BASE  6.03288  245  7.4088   260  -10.6 100   -10.6 0     0     991.6    NA       0.0000   -SN      9999  300   0    
2019/07/23  10:41:00  BASE  5.62128  245  7.4088   260  -10.6 100   -10.6 0     0     991.6    NA       0.0000   -SN      9999  560   0    
2019/07/23  10:42:00  BASE  5.98584  245  7.3794   234  -10.6 100   -10.6 0     0     991.5    NA       0.0000   -SN      9999  360   0    
2019/07/23  10:43:00  BASE  6.37392  238  7.50288  229  -10.7 100   -10.7 0     0     991.5    NA       0.0000   -SN      9999  950   0    
2019/07/23  10:44:00  BASE  6.19164  231  7.50288  229  -10.7 100   -10.7 0     0     991.5    NA       0.0000   -SN      9999  950   0    
2019/07/23  10:45:00  BASE  6.22692  238  7.65576  242  -10.7 100   -10.7 0     0     991.5    NA       0.0000   -SN      9999  920   0    
2019/07/23  10:46:00  BASE  6.48564  249  7.65576  242  -10.8 100   -10.8 0     0     991.6    NA       0.0000   -SN      9999  560   0    
2019/07/23  10:47:00  BASE  5.84472  250  7.65576  242  -10.8 100   -10.8 0     0     991.6    NA       0.0000   -SN      9999  620   0    
2019/07/23  10:48:00  BASE  5.439    249  7.65576  242  -10.9 100   -10.9 0     0     991.6    NA       0.0000   -SN      9999  590   0    
2019/07/23  10:49:00  BASE  5.48016  253  7.65576  242  -10.9 100   -10.9 0     0     991.6    NA       0.0000   -SN      9999  560   0    
2019/07/23  10:50:00  BASE  5.145    253  7.65576  242  -11.0 100   -11.0 0     0     991.6    NA       0.0000   9999     720   0     0    
2019/07/23  10:51:00  BASE  4.86864  248  7.65576  242  -11.0 100   -11.0 0     0     991.7    NA       0.0000   9999     690   0     0    
2019/07/23  10:52:00  BASE  4.9686   245  7.65576  242  -11.0 100   -11.0 0     0     991.7    NA       0.0000   9999     1050  0     0    
2019/07/23  10:53:00  BASE  5.21556  244  7.65576  242  -11.0 100   -11.0 0     0     991.7    NA       0.0000   9999     1280  0     0    
2019/07/23  10:54:00  BASE  5.56836  241  7.65576  242  -11.0 100   -11.0 0     0     991.7    NA       0.0000   9999     1120  0     0    
2019/07/23  10:55:00  BASE  5.79768  231  6.92664  254  -10.9 100   -10.9 0     0     991.8    NA       0.0000   9999     1020  0     0    
2019/07/23  10:56:00  BASE  6.04464  227  7.07952  233  -10.9 100   -10.9 0     0     991.8    NA       0.0000   9999     1050  0     0    
2019/07/23  10:57:00  BASE  5.95056  236  7.07952  233  -10.9 100   -10.9 0     0     991.9    NA       0.0000   9999     820   0     0    
2019/07/23  10:58:00  BASE  5.16852  235  7.07952  233  -10.9 100   -10.9 0     0     992.0    NA       0.0000   9999     850   0     0    
2019/07/23  10:59:00  BASE  4.45116  228  7.07952  233  -10.9 100   -10.9 0     0     992.0    NA       0.0000   9999     1050  0     0    
2019/07/23  11:00:00  BASE  4.71576  232  7.07952  233  -10.9 100   -10.9 0     0     992.0    NA       0.0000   9999     1120  0     0    
2019/07/23  11:01:00  BASE  4.90392  234  7.07952  233  -10.9 100   -10.9 0     0     992.0    NA       0.0000   9999     950   0     0    
2019/07/23  11:02:00  BASE  5.05092  236  7.07952  233  -11.0 100   -11.0 0     0     992.0    NA       0.0000   9999     1080  0     0    
2019/07/23  11:03:00  BASE  5.3802   243  7.07952  233  -11.0 100   -11.0 0     0     992.0    NA       0.0000   9999     980   0     0    
2019/07/23  11:04:00  BASE  4.96272  249  7.07952  233  -11.0 100   -11.0 0     0     992.0    NA       0.0000   9999     820   0     0    
2019/07/23  11:05:00  BASE  5.56248  248  8.25552  244  -11.0 100   -11.0 0     0     992.0    NA       0.0000   9999     920   0     0    
2019/07/23  11:06:00  BASE  6.27396  245  8.25552  244  -11.0 100   -11.0 0     0     992.0    NA       0.0000   9999     820   0     0    
2019/07/23  11:07:00  BASE  5.96232  245  8.25552  244  -11.0 100   -11.0 0     0     992.0    NA       0.0000   9999     820   0     0    
2019/07/23  11:08:00  BASE  5.1744   248  8.25552  244  -11.0 100   -11.0 0     0     992.1    NA       0.0000   9999     920   0     0    
2019/07/23  11:09:00  BASE  5.04504  253  8.25552  244  -11.0 100   -11.0 0     0     992.1    NA       0.0000   9999     850   0     0    
2019/07/23  11:10:00  BASE  5.4096   257  8.25552  244  -11.0 100   -11.0 0     0     992.1    NA       0.0000   9999     850   0     0    
2019/07/23  11:11:00  BASE  5.0568   260  8.25552  244  -10.9 100   -10.9 0     0     992.1    NA       0.0000   9999     520   0     0    
2019/07/23  11:12:00  BASE  5.0274   260  8.25552  244  -10.9 100   -10.9 0     0     992.1    NA       0.0000   9999     850   0     0    
2019/07/23  11:13:00  BASE  5.2038   260  8.25552  244  -10.9 100   -10.9 0     0     992.1    NA       0.0000   9999     790   0     0    
2019/07/23  11:14:00  BASE  5.43312  260  8.25552  244  -10.9 100   -10.9 0     0     992.1    NA       0.0000   9999     850   0     0    
2019/07/23  11:15:00  BASE  5.7036   258  7.10892  258  -10.9 100   -10.9 0     0     992.1    NA       0.0000   9999     890   0     0    
2019/07/23  11:16:00  BASE  5.8212   253  7.10892  258  -10.9 100   -10.9 0     0     992.1    NA       0.0000   9999     950   0     0    
2019/07/23  11:17:00  BASE  5.80944  245  7.10892  258  -10.9 100   -10.9 0     0     992.1    NA       0.0000   9999     1020  0     0    
2019/07/23  11:18:00  BASE  5.15088  249  7.10892  258  -11.0 100   -11.0 0     0     992.2    NA       0.0000   9999     980   0     0    
2019/07/23  11:19:00  BASE  5.36844  252  7.10892  258  -10.9 100   -10.9 0     0     992.1    NA       0.0000   9999     1080  0     0    
2019/07/23  11:20:00  BASE  6.321    252  7.65576  252  -11.0 100   -11.0 0     0     992.2    NA       0.0000   9999     1210  0     0    
2019/07/23  11:21:00  BASE  6.24456  256  7.65576  252  -11.0 100   -11.0 0     0     992.2    NA       0.0000   9999     1120  0     0    
2019/07/23  11:22:00  BASE  5.48604  259  7.65576  252  -11.1 100   -11.1 0     0     992.3    NA       0.0000   9999     980   0     0    
2019/07/23  11:23:00  BASE  4.3218   259  7.65576  252  -11.1 100   -11.1 0     0     992.3    NA       0.0000   9999     980   0     0    
2019/07/23  11:24:00  BASE  3.99252  255  7.65576  252  -11.1 100   -11.1 0     0     992.3    NA       0.0000   9999     1120  0     0    
2019/07/23  11:25:00  BASE  4.22772  254  7.65576  252  -11.1 100   -11.1 0     0     992.3    NA       0.0000   9999     1080  0     0    
2019/07/23  11:26:00  BASE  4.84512  256  7.65576  252  -11.1 100   -11.1 0     0     992.3    NA       0.0000   9999     950   0     0    
2019/07/23  11:27:00  BASE  5.03328  263  7.65576  252  -11.1 100   -11.1 0     0     992.3    NA       0.0000   9999     980   0     0    
2019/07/23  11:28:00  BASE  4.03368  262  7.65576  252  -11.1 100   -11.1 0     0     992.3    NA       0.0000   9999     1020  0     0    
2019/07/23  11:29:00  BASE  4.43352  248  7.65576  252  -11.1 100   -11.1 0     0     992.3    NA       0.0000   9999     850   0     0    
2019/07/23  11:30:00  BASE  5.00976  243  6.71496  267  -11.1 100   -11.1 0     0     992.3    NA       0.0000   9999     1020  0     0    
2019/07/23  11:31:00  BASE  4.15128  249  6.71496  267  -11.2 100   -11.2 0     0     992.3    NA       0.0000   9999     820   0     0    
2019/07/23  11:32:00  BASE  4.21596  257  6.71496  267  -11.2 100   -11.2 0     0     992.3    NA       0.0000   9999     920   0     0    
2019/07/23  11:33:00  BASE  4.88628  269  6.71496  267  -11.2 100   -11.2 0     0     992.3    NA       0.0000   9999     980   0     0    
2019/07/23  11:34:00  BASE  4.9098   276  6.71496  267  -11.2 100   -11.2 0     0     992.3    NA       0.0000   9999     980   0     0    
2019/07/23  11:35:00  BASE  5.09796  264  6.71496  267  -11.2 100   -11.2 0     0     992.3    NA       0.0000   9999     1020  0     0    
2019/07/23  11:36:00  BASE  4.86864  253  6.56208  272  -11.2 100   -11.2 0     0     992.3    NA       0.0000   9999     850   0     0    
2019/07/23  11:37:00  BASE  3.9396   249  6.56208  272  -11.2 100   -11.2 0     0     992.3    NA       0.0000   9999     590   0     0    
2019/07/23  11:38:00  BASE  3.48684  248  6.56208  272  -11.3 100   -11.3 0     0     992.3    NA       0.0000   9999     1150  0     0    
2019/07/23  11:39:00  BASE  4.06896  246  6.56208  272  -11.3 100   -11.3 0     0     992.2    NA       0.0000   9999     1080  0     0    
2019/07/23  11:40:00  BASE  4.48056  244  6.56208  272  -11.3 100   -11.3 0     0     992.3    NA       0.0000   9999     520   0     0    
2019/07/23  11:41:00  BASE  4.10424  248  6.56208  272  -11.3 100   -11.3 0     0     992.3    NA       0.0000   9999     430   0     0    
2019/07/23  11:42:00  BASE  3.47508  246  6.56208  272  -11.4 100   -11.4 0     0     992.3    NA       0.0000   9999     690   0     0    
2019/07/23  11:43:00  BASE  2.7048   244  6.56208  272  -11.4 100   -11.4 0     0     992.3    NA       0.0000   9999     430   0     0    
2019/07/23  11:44:00  BASE  2.48136  239  6.02112  227  -11.3 100   -11.4 0     0     992.3    NA       0.0000   9999     460   0     0    
2019/07/23  11:45:00  BASE  2.85768  226  6.02112  227  -11.4 100   -11.4 0     0     992.3    NA       0.0000   8000     330   0     0    
2019/07/23  11:46:00  BASE  3.69852  231  6.02112  227  -11.3 100   -11.3 0     0     992.3    NA       0.0000   -SN      9999  1120  0    
2019/07/23  11:47:00  BASE  4.40412  243  6.02112  227  -11.3 100   -11.3 0     0     992.4    NA       0.0000   -SN      9999  1020  0    
2019/07/23  11:48:00  BASE  4.0572   246  6.02112  227  -11.3 100   -11.3 0     0     992.4    NA       0.0000   -SN      9999  1050  0    
2019/07/23  11:49:00  BASE  3.44568  249  5.10972  242  -11.3 100   -11.3 0     0     992.4    NA       0.0000   -SN      9999  1120  0    
2019/07/23  11:50:00  BASE  3.65736  239  5.80944  233  -11.2 100   -11.2 0     0     992.4    NA       0.0000   -SN      9999  1020  0    
2019/07/23  11:51:00  BASE  5.25084  227  7.13832  239  -11.2 100   -11.2 0     0     992.3    NA       0.0000   -SN      9999  1050  0    
2019/07/23  11:52:00  BASE  6.40332  230  7.13832  239  -11.2 100   -11.2 0     0     992.4    NA       0.0000   -SN      9999  890   0    
2019/07/23  11:53:00  BASE  5.90352  238  7.13832  239  -11.1 100   -11.1 0     0     992.4    NA       0.0000   -SN      9999  1020  0    
2019/07/23  11:54:00  BASE  5.72712  240  7.13832  239  -11.1 100   -11.1 0     0     992.5    NA       0.0000   -SN      9999  950   0    
2019/07/23  11:55:00  BASE  5.94468  243  7.13832  239  -11.1 100   -11.1 0     0     992.5    NA       0.0000   9999     850   0     0    
2019/07/23  11:56:00  BASE  5.79768  245  7.13832  239  -11.2 100   -11.2 0     0     992.5    NA       0.0000   9999     850   0     0    
2019/07/23  11:57:00  BASE  5.33316  243  7.13832  239  -11.3 100   -11.3 0     0     992.6    NA       0.0000   9999     750   0     0    
2019/07/23  11:58:00  BASE  4.71576  247  7.13832  239  -11.4 100   -11.4 0     0     992.6    NA       0.0000   9999     390   0     0    
2019/07/23  11:59:00  BASE  4.18068  255  7.13832  239  -11.4 100   -11.4 0     0     992.6    NA       0.0000   -SN      9000  300   0    
2019/07/23  12:00:00  BASE  4.116    255  7.13832  239  -11.4 100   -11.4 0     0     992.6    NA       0.0000   -SN      9999  330   0    
2019/07/23  12:01:00  BASE  4.60992  255  6.98544  238  -11.4 100   -11.4 0     0     992.6    NA       0.0000   -SN      9999  790   0    
2019/07/23  12:02:00  BASE  5.04504  252  6.53268  243  -11.3 100   -11.3 0     0     992.6    NA       0.0000   -SN      9999  850   0    
2019/07/23  12:03:00  BASE  5.13912  250  6.53268  243  -11.3 100   -11.3 0     0     992.6    NA       0.0000   -SN      9999  790   0    
2019/07/23  12:04:00  BASE  4.72164  244  6.47388  250  -11.3 100   -11.3 0     0     992.7    NA       0.0000   -SN      9999  330   0    
2019/07/23  12:05:00  BASE  4.36296  242  6.47388  250  -11.3 100   -11.3 0     0     992.7    NA       0.0000   -SN      9999  750   0    
2019/07/23  12:06:00  BASE  4.70988  253  6.02112  237  -11.3 100   -11.3 0     0     992.7    NA       0.0000   -SN      9999  790   0    
2019/07/23  12:07:00  BASE  5.33316  257  6.321    267  -11.3 100   -11.3 0     0     992.7    NA       0.0000   -SN      9999  820   0    
2019/07/23  12:08:00  BASE  5.51544  252  6.321    267  -11.3 100   -11.3 0     0     992.7    NA       0.0000   -SN      9999  920   0    
2019/07/23  12:09:00  BASE  4.89804  250  6.321    267  -11.4 100   -11.4 0     0     992.8    NA       0.0000   -SN      9999  850   0    
2019/07/23  12:10:00  BASE  4.03368  255  6.321    267  -11.4 100   -11.4 0     0     992.8    NA       0.0000   -SN      9999  790   0    
2019/07/23  12:11:00  BASE  3.9102   255  6.321    267  -11.5 100   -11.5 0     0     992.8    NA       0.0000   -SN      9999  890   0    
2019/07/23  12:12:00  BASE  3.89844  258  6.321    267  -11.4 100   -11.4 0     0     992.8    NA       0.0000   -SN      9999  890   0    
2019/07/23  12:13:00  BASE  5.01564  251  7.07952  242  -11.4 100   -11.4 0     0     992.8    NA       0.0000   -SN      9999  890   0    
2019/07/23  12:14:00  BASE  5.99172  241  7.07952  242  -11.4 100   -11.4 0     0     992.8    NA       0.0000   -SN      9999  920   0    
2019/07/23  12:15:00  BASE  5.25672  248  7.07952  242  -11.4 100   -11.4 0     0     992.9    NA       0.0000   9999     920   0     0    
2019/07/23  12:16:00  BASE  5.19792  254  7.07952  242  -11.4 100   -11.4 0     0     992.9    NA       0.0000   9999     790   0     0    
2019/07/23  12:17:00  BASE  5.42136  253  7.07952  242  -11.5 100   -11.5 0     0     992.9    NA       0.0000   9999     920   0     0    
2019/07/23  12:18:00  BASE  5.44488  252  7.07952  242  -11.5 100   -11.5 0     0     992.9    NA       0.0000   9999     920   0     0    
2019/07/23  12:19:00  BASE  5.39784  253  7.07952  242  -11.5 100   -11.5 0     0     992.9    NA       0.0000   9999     950   0     0    
2019/07/23  12:20:00  BASE  5.33904  250  7.19712  245  -11.5 100   -11.5 0     0     992.9    NA       0.0000   9999     850   0     0    
2019/07/23  12:21:00  BASE  5.28612  237  7.19712  245  -11.4 100   -11.5 0     0     992.9    NA       0.0000   9999     850   0     0    
2019/07/23  12:22:00  BASE  5.39784  226  7.3206   223  -11.4 100   -11.4 0     0     992.9    NA       0.0000   9999     950   0     0    
2019/07/23  12:23:00  BASE  5.72712  228  7.47348  244  -11.4 100   -11.4 0     0     993.0    NA       0.0000   -SN      9999  360   0    
2019/07/23  12:24:00  BASE  5.68596  236  7.47348  244  -11.4 100   -11.4 0     0     993.0    NA       0.0000   -SN      9999  390   0    
2019/07/23  12:25:00  BASE  5.439    244  7.47348  244  -11.4 100   -11.4 0     0     993.0    NA       0.0000   -SN      9999  330   0    
2019/07/23  12:26:00  BASE  5.79768  250  8.04384  253  -11.5 100   -11.5 0     0     992.9    NA       0.0000   -SN      9999  850   0    
2019/07/23  12:27:01  BASE  6.762    250  8.50248  244  -11.5 100   -11.5 0     0     992.9    NA       0.0000   -SN      9999  890   0    
2019/07/23  12:28:01  BASE  6.50916  246  8.50248  244  -11.5 100   -11.5 0     0     993.0    NA       0.0000   -SN      9999  890   0    
2019/07/23  12:29:01  BASE  5.3214   243  8.50248  244  -11.4 100   -11.4 0     0     993.1    NA       0.0000   -SN      9999  890   0    
2019/07/23  12:30:01  BASE  5.27436  239  8.50248  244  -11.4 100   -11.4 0     0     993.1    NA       0.0000   -SN      9999  850   0    
2019/07/23  12:31:01  BASE  5.46252  241  8.50248  244  -11.4 100   -11.4 0     0     993.1    NA       0.0000   -SN      9999  950   0    
2019/07/23  12:32:00  BASE  5.36256  243  8.50248  244  -11.4 100   -11.4 0     0     993.1    NA       0.0000   -SN      9999  850   0    
2019/07/23  12:33:00  BASE  5.81532  239  8.50248  244  -11.4 100   -11.4 0     0     993.1    NA       0.0000   -SN      9999  890   0    
2019/07/23  12:34:00  BASE  5.54484  240  8.50248  244  -11.4 100   -11.4 0     0     993.2    NA       0.0000   -SN      9999  820   0    
2019/07/23  12:35:00  BASE  5.3802   236  8.50248  244  -11.4 100   -11.4 0     0     993.2    NA       0.0000   -SN      9999  980   0    
2019/07/23  12:36:00  BASE  5.53896  232  8.50248  244  -11.5 100   -11.5 0     0     993.2    NA       0.0000   9999     890   0     0    
2019/07/23  12:37:00  BASE  5.28024  242  7.3206   235  -11.5 100   -11.5 0     0     993.2    NA       0.0000   9999     1050  0     0    
2019/07/23  12:38:00  BASE  5.59776  246  7.3206   235  -11.5 100   -11.5 0     0     993.2    NA       0.0000   9999     920   0     0    
2019/07/23  12:39:00  BASE  5.733    246  7.3206   235  -11.6 100   -11.6 0     0     993.2    NA       0.0000   9999     980   0     0    
2019/07/23  12:40:00  BASE  4.86276  254  7.3206   235  -11.6 100   -11.6 0     0     993.3    NA       0.0000   9999     1050  0     0    
2019/07/23  12:41:00  BASE  4.12776  256  7.3206   235  -11.7 100   -11.7 0     0     993.3    NA       0.0000   9999     1180  0     0    
2019/07/23  12:42:00  BASE  3.8514   254  7.3206   235  -11.7 100   -11.7 0     0     993.3    NA       0.0000   9999     1150  0     0    
2019/07/23  12:43:00  BASE  4.0278   255  6.71496  243  -11.7 100   -11.7 0     0     993.3    NA       0.0000   9999     1250  0     0    
2019/07/23  12:44:00  BASE  3.97488  262  6.71496  243  -11.7 100   -11.7 0     0     993.3    NA       0.0000   9999     890   0     0    
2019/07/23  12:45:00  BASE  3.08112  257  6.71496  243  -11.7 100   -11.7 0     0     993.3    NA       0.0000   9999     1020  0     0    
2019/07/23  12:46:00  BASE  3.36924  233  6.71496  243  -11.7 100   -11.7 0     0     993.3    NA       0.0000   9999     1150  0     0    
2019/07/23  12:47:00  BASE  4.60404  222  6.71496  243  -11.7 100   -11.7 0     0     993.3    NA       0.0000   9999     1050  0     0    
2019/07/23  12:48:00  BASE  4.79808  217  5.86824  246  -11.7 100   -11.7 0     0     993.3    NA       0.0000   9999     1080  0     0    
2019/07/23  12:49:00  BASE  4.29828  218  5.71536  221  -11.7 100   -11.7 0     0     993.4    NA       0.0000   9999     1120  0     0    
2019/07/23  12:50:00  BASE  4.46292  224  5.71536  221  -11.7 100   -11.7 0     0     993.4    NA       0.0000   9999     1120  0     0    
2019/07/23  12:51:00  BASE  4.62168  222  5.71536  221  -11.7 100   -11.7 0     0     993.4    NA       0.0000   9999     920   0     0    
2019/07/23  12:52:00  BASE  4.40412  223  5.71536  221  -11.7 100   -11.7 0     0     993.4    NA       0.0000   9999     920   0     0    
2019/07/23  12:53:00  BASE  3.59268  229  5.71536  221  -11.7 100   -11.7 1     0     993.4    NA       0.0000   9999     920   0     0    
2019/07/23  12:54:00  BASE  2.79888  235  5.71536  221  -11.7 100   -11.7 1     0     993.4    NA       0.0000   9999     920   0     0    
2019/07/23  12:55:00  BASE  3.57504  236  5.71536  221  -11.7 100   -11.7 1     0     993.3    NA       0.0000   9999     1050  0     0    
2019/07/23  12:56:00  BASE  4.46292  244  5.71536  221  -11.7 100   -11.7 1     0     993.4    NA       0.0000   9999     950   0     0    
2019/07/23  12:57:00  BASE  4.70988  249  5.83884  244  -11.7 100   -11.7 1     0     993.4    NA       0.0000   9999     920   0     0    
2019/07/23  12:58:00  BASE  4.72164  253  5.83884  244  -11.7 100   -11.7 1     0     993.4    NA       0.0000   9999     850   0     0    
2019/07/23  12:59:00  BASE  4.83924  256  5.83884  244  -11.6 100   -11.6 1     0     993.4    NA       0.0000   9999     980   0     0    
2019/07/23  13:00:00  BASE  5.06268  245  5.99172  249  -11.6 100   -11.6 1     0     993.3    NA       0.0000   9999     850   0     0    
2019/07/23  13:01:00  BASE  5.33316  246  6.3798   250  -11.7 100   -11.7 1     0     993.4    NA       0.0000   9999     1050  0     0    
2019/07/23  13:02:00  BASE  5.49192  241  6.3798   250  -11.7 100   -11.7 1     0     993.4    NA       0.0000   9999     1080  0     0    
2019/07/23  13:03:00  BASE  5.03328  239  6.3798   250  -11.7 100   -11.7 1     0     993.4    NA       0.0000   9999     820   0     0    
2019/07/23  13:04:00  BASE  5.18616  251  6.3798   250  -11.7 100   -11.7 1     0     993.4    NA       0.0000   9999     1020  0     0    
2019/07/23  13:05:00  BASE  5.20968  257  6.3798   250  -11.7 100   -11.7 1     0     993.4    NA       0.0000   9999     620   0     0    
2019/07/23  13:06:00  BASE  4.38648  257  6.3798   250  -11.7 100   -11.7 1     0     993.4    NA       0.0000   9999     1080  0     0    
2019/07/23  13:07:00  BASE  4.0866   255  6.3798   250  -11.7 100   -11.7 1     0     993.4    NA       0.0000   9999     1050  0     0    
2019/07/23  13:08:00  BASE  4.33356  250  6.3798   250  -11.7 100   -11.7 1     0     993.4    NA       0.0000   9999     890   0     0    
2019/07/23  13:09:00  BASE  4.94508  245  6.3798   250  -11.7 100   -11.7 1     0     993.4    NA       0.0000   9999     950   0     0    
2019/07/23  13:10:00  BASE  5.06268  255  6.3798   250  -11.7 100   -11.7 1     0     993.4    NA       0.0000   9999     750   0     0    
2019/07/23  13:11:00  BASE  5.03328  261  6.80316  250  -11.7 100   -11.7 1     0     993.4    NA       0.0000   9999     820   0     0    
2019/07/23  13:12:00  BASE  5.20968  255  6.80316  250  -11.7 100   -11.7 1     0     993.4    NA       0.0000   9999     820   0     0    
2019/07/23  13:13:00  BASE  4.87452  256  6.80316  250  -11.7 100   -11.7 1     0     993.4    NA       0.0000   9999     850   0     0    
2019/07/23  13:14:00  BASE  4.6452   264  6.80316  250  -11.7 100   -11.7 1     0     993.4    NA       0.0000   9999     790   0     0    
2019/07/23  13:15:00  BASE  4.49232  260  6.80316  250  -11.7 100   -11.7 1     0     993.5    NA       0.0000   9999     750   0     0    
2019/07/23  13:16:00  BASE  4.25712  254  6.80316  250  -11.7 100   -11.7 2     0     993.5    NA       0.0000   9999     360   0     0    
2019/07/23  13:17:00  BASE  4.06896  259  6.80316  250  -11.7 100   -11.7 2     0     993.5    NA       0.0000   7000     330   0     0    
2019/07/23  13:18:00  BASE  3.969    260  6.80316  250  -11.6 100   -11.6 2     0     993.5    NA       0.0000   -SN      9000  360   0    
2019/07/23  13:19:00  BASE  4.63932  254  6.80316  250  -11.6 100   -11.6 2     0     993.5    NA       0.0000   -SN      9000  360   0    
2019/07/23  13:20:00  BASE  4.80396  253  6.80316  250  -11.6 100   -11.6 2     0     993.5    NA       0.0000   -SN      8000  360   0    
2019/07/23  13:21:00  BASE  4.32768  258  6.47388  266  -11.6 100   -11.6 2     0     993.5    NA       0.0000   -SN      9999  360   0    
2019/07/23  13:22:00  BASE  4.43352  260  6.47388  266  -11.6 100   -11.6 2     0     993.5    NA       0.0000   -SN      9999  360   0    
2019/07/23  13:23:00  BASE  4.46292  254  6.13872  255  -11.6 100   -11.6 2     0     993.5    NA       0.0000   -SN      9999  820   0    
2019/07/23  13:24:00  BASE  4.19832  251  6.13872  255  -11.6 100   -11.6 2     0     993.5    NA       0.0000   -SN      9999  690   0    
2019/07/23  13:25:00  BASE  4.30416  254  6.13872  255  -11.6 100   -11.6 2     0     993.5    NA       0.0000   -SN      9999  390   0    
2019/07/23  13:26:00  BASE  5.09208  254  6.3504   247  -11.5 100   -11.5 2     0     993.5    NA       0.0000   -SN      9999  390   0    
2019/07/23  13:27:00  BASE  5.439    253  6.3504   247  -11.5 100   -11.5 2     0     993.4    NA       0.0000   -SN      9999  490   0    
2019/07/23  13:28:00  BASE  5.32728  254  6.3504   247  -11.6 100   -11.6 2     0     993.5    NA       0.0000   -SN      9999  850   0    
2019/07/23  13:29:00  BASE  4.77456  252  6.3504   247  -11.6 100   -11.6 2     0     993.5    NA       0.0000   -SN      9999  360   0    
2019/07/23  13:30:00  BASE  3.82788  252  6.3504   247  -11.6 100   -11.6 2     0     993.6    NA       0.0000   -SN      9999  330   0    
2019/07/23  13:31:00  BASE  3.5574   252  6.3504   247  -11.6 100   -11.6 2     0     993.6    NA       0.0000   -SN      9999  360   0    
2019/07/23  13:32:00  BASE  3.9396   246  6.3504   247  -11.7 100   -11.7 2     0     993.6    NA       0.0000   -SN      9999  390   0    
2019/07/23  13:33:00  BASE  4.45704  247  6.3504   247  -11.7 100   -11.7 2     0     993.6    NA       0.0000   -SN      9999  300   0    
2019/07/23  13:34:00  BASE  4.78044  250  6.3504   247  -11.7 100   -11.7 2     0     993.6    NA       0.0000   -SN      9999  300   0    
2019/07/23  13:35:00  BASE  4.62168  253  6.3504   247  -11.6 100   -11.6 2     0     993.6    NA       0.0000   -SN      9999  260   0    
2019/07/23  13:36:00  BASE  4.39236  262  6.13872  251  -11.6 100   -11.6 2     0     993.7    NA       0.0000   -SN      7000  0     0    
2019/07/23  13:37:00  BASE  4.71576  260  6.13872  251  -11.6 100   -11.6 3     0     993.7    NA       0.0000   -SN      6000  330   0    
2019/07/23  13:38:00  BASE  5.02152  252  5.95644  265  -11.6 100   -11.6 3     0     993.7    NA       0.0000   -SN      9999  330   0    
2019/07/23  13:39:00  BASE  4.80396  249  6.47388  240  -11.5 100   -11.5 3     0     993.7    NA       0.0000   -SN      BR    9999  300  
2019/07/23  13:40:00  BASE  5.75064  243  7.62048  238  -11.5 100   -11.5 3     0     993.6    NA       0.0000   -SN      BR    9000  330  
2019/07/23  13:41:00  BASE  6.59148  243  7.62048  238  -11.5 100   -11.5 3     0     993.7    NA       0.0000   -SN      BR    9999  260  
2019/07/23  13:42:00  BASE  6.59148  249  7.62048  253  -11.6 100   -11.6 3     0     993.7    NA       0.0000   -SN      BR    9999  300  
2019/07/23  13:43:00  BASE  6.27396  249  7.62048  253  -11.7 100   -11.7 3     0     993.8    NA       0.0000   -SN      BR    9999  430  
2019/07/23  13:44:00  BASE  5.03328  253  7.62048  253  -11.8 100   -11.8 3     0     993.8    NA       0.0000   -SN      BR    9999  390  
2019/07/23  13:45:00  BASE  4.65108  255  7.62048  253  -11.8 100   -11.8 3     0     993.8    NA       0.0000   -SN      BR    9999  390  
2019/07/23  13:46:00  BASE  4.37472  255  7.62048  253  -11.9 100   -11.9 3     0     993.8    NA       0.0000   -SN      9999  0     0    
2019/07/23  13:47:00  BASE  4.6746   245  7.62048  253  -11.8 100   -11.8 3     0     993.8    NA       0.0000   -SN      8000  0     0    
2019/07/23  13:48:00  BASE  5.43312  234  7.62048  253  -11.8 100   -11.8 3     0     993.7    NA       0.0000   -SN      9999  260   0    
2019/07/23  13:49:00  BASE  4.91568  240  7.62048  253  -11.8 100   -11.8 3     0     993.8    NA       0.0000   -SN      9999  330   0    
2019/07/23  13:50:00  BASE  5.29788  240  7.62048  253  -11.7 100   -11.7 3     0     993.7    NA       0.0000   -SN      9999  360   0    
2019/07/23  13:51:00  BASE  6.09756  234  7.62048  253  -11.7 100   -11.7 3     0     993.7    NA       0.0000   -SN      9999  260   0    
2019/07/23  13:52:00  BASE  6.00348  232  6.98544  240  -11.7 100   -11.7 4     0     993.7    NA       0.0000   -SN      9999  300   0    
2019/07/23  13:53:00  BASE  5.68596  232  6.98544  240  -11.7 100   -11.7 4     0     993.7    NA       0.0000   -SN      9999  920   0    
2019/07/23  13:54:00  BASE  5.66244  239  6.98544  240  -11.7 100   -11.7 4     0     993.8    NA       0.0000   -SN      9999  790   0    
2019/07/23  13:55:00  BASE  5.25084  245  6.98544  240  -11.8 100   -11.8 4     0     993.8    NA       0.0000   -SN      9999  390   0    
2019/07/23  13:56:00  BASE  5.08032  251  6.98544  240  -11.8 100   -11.8 4     0     993.8    NA       0.0000   -SN      9999  390   0    
2019/07/23  13:57:00  BASE  5.26848  253  6.98544  240  -11.9 100   -11.9 4     0     993.8    NA       0.0000   -SN      9999  430   0    
2019/07/23  13:58:00  BASE  4.35708  247  6.98544  240  -11.9 100   -11.9 5     0     993.8    NA       0.0000   -SN      9999  620   0    
2019/07/23  13:59:00  BASE  3.61032  246  6.98544  240  -12.0 100   -12.0 5     0     993.9    NA       0.0000   -SN      9999  390   0    
2019/07/23  14:00:00  BASE  3.81024  249  6.98544  240  -12.0 100   -12.0 5     0     993.9    NA       0.0000   -SN      9999  850   0    
2019/07/23  14:01:00  BASE  4.00428  247  6.74436  237  -12.0 100   -12.0 6     0     993.9    NA       0.0000   -SN      9999  390   0    
2019/07/23  14:02:00  BASE  4.3218   250  6.53268  266  -12.0 100   -12.0 6     0     993.9    NA       0.0000   -SN      9999  430   0    
2019/07/23  14:03:00  BASE  4.72164  250  6.53268  266  -12.0 100   -12.0 6     0     993.9    NA       0.0000   -SN      9999  390   0    
2019/07/23  14:04:00  BASE  4.6158   250  6.53268  266  -12.0 100   -12.0 6     0     993.9    NA       0.0000   -SN      6000  0     0    
2019/07/23  14:05:00  BASE  4.42176  263  6.53268  266  -12.0 100   -12.0 6     0     993.9    NA       0.0000   -SN      BR    5000  360  
2019/07/23  14:06:00  BASE  4.72164  265  6.2328   262  -11.9 100   -11.9 5     0     993.9    NA       0.0000   -SN      BR    9999  360  
2019/07/23  14:07:00  BASE  4.92744  261  6.2328   262  -11.9 100   -11.9 5     0     993.9    NA       0.0000   -SN      BR    9999  330  
2019/07/23  14:08:00  BASE  4.5864   267  6.2328   262  -11.9 100   -11.9 5     0     993.9    NA       0.0000   -SN      BR    9999  330  
2019/07/23  14:09:00  BASE  5.27436  264  6.98544  269  -11.9 100   -11.9 6     0     993.8    NA       0.0000   -SN      BR    9000  360  
2019/07/23  14:10:00  BASE  5.70948  249  6.98544  269  -11.9 100   -11.9 6     0     993.9    NA       0.0000   -SN      BR    9000  360  
2019/07/23  14:11:00  BASE  5.586    246  6.98544  269  -11.9 100   -11.9 6     0     994.0    NA       0.0000   -SN      BR    9999  360  
2019/07/23  14:12:00  BASE  6.00348  253  6.98544  269  -11.9 100   -11.9 6     0     994.0    NA       0.0000   -SN      BR    9999  850  
2019/07/23  14:13:00  BASE  5.92116  255  6.98544  269  -11.9 100   -11.9 6     0     994.0    NA       0.0000   -SN      BR    9999  890  
2019/07/23  14:14:00  BASE  5.439    249  6.98544  269  -11.9 100   -11.9 6     0     994.1    NA       0.0000   -SN      BR    9999  620  
2019/07/23  14:15:00  BASE  5.39784  248  6.98544  269  -12.0 100   -12.0 6     0     994.1    NA       0.0000   -SN      9999  790   0    
2019/07/23  14:16:00  BASE  5.19792  254  6.98544  269  -12.0 100   -12.0 6     0     994.2    NA       0.0000   -SN      9999  750   0    
2019/07/23  14:17:00  BASE  3.96312  258  6.98544  269  -12.1 100   -12.1 6     0     994.2    NA       0.0000   -SN      9999  850   0    
2019/07/23  14:18:00  BASE  2.8224   251  6.98544  269  -12.1 100   -12.1 6     0     994.2    NA       0.0000   -SN      9999  790   0    
2019/07/23  14:19:00  BASE  2.48724  251  6.77376  255  -12.2 100   -12.2 6     0     994.2    NA       0.0000   -SN      9999  490   0    
2019/07/23  14:20:00  BASE  2.9106   255  6.77376  255  -12.2 100   -12.2 6     0     994.2    NA       0.0000   -SN      9999  820   0    
2019/07/23  14:21:00  BASE  4.28652  240  6.71496  254  -12.2 100   -12.2 7     0     994.2    NA       0.0000   -SN      9999  890   0    
2019/07/23  14:22:00  BASE  5.3508   223  6.62676  252  -12.1 100   -12.1 7     0     994.2    NA       0.0000   9999     790   0     0    
2019/07/23  14:23:00  BASE  5.03328  224  6.62676  252  -12.1 100   -12.1 7     0     994.3    NA       0.0000   -SN      9999  890   0    
2019/07/23  14:24:00  BASE  4.60404  240  6.62676  252  -12.0 100   -12.0 7     0     994.3    NA       0.0000   -SN      9999  750   0    
2019/07/23  14:25:00  BASE  4.44528  253  6.47388  221  -12.0 100   -12.0 7     0     994.3    NA       0.0000   -SN      9999  790   0    
2019/07/23  14:26:00  BASE  4.56288  248  6.47388  221  -12.0 100   -12.0 7     0     994.3    NA       0.0000   -SN      9999  660   0    
2019/07/23  14:27:00  BASE  4.53348  238  6.47388  221  -12.0 100   -12.0 7     0     994.3    NA       0.0000   -SN      9999  720   0    
2019/07/23  14:28:00  BASE  4.89216  244  6.92664  253  -11.9 100   -11.9 7     0     994.3    NA       0.0000   -SN      9999  430   0    
2019/07/23  14:29:00  BASE  5.38608  251  6.92664  253  -12.0 100   -12.0 8     0     994.3    NA       0.0000   -SN      9999  750   0    
2019/07/23  14:30:00  BASE  4.8804   253  6.92664  253  -12.0 100   -12.0 8     0     994.4    NA       0.0000   -SN      9999  390   0    
2019/07/23  14:31:00  BASE  4.48056  252  6.92664  253  -12.0 100   -12.0 9     0     994.4    NA       0.0000   -SN      9999  390   0    
2019/07/23  14:32:00  BASE  4.116    253  6.92664  253  -12.0 100   -12.0 9     0     994.4    NA       0.0000   -SN      9999  720   0    
2019/07/23  14:33:00  BASE  4.0572   247  6.92664  253  -12.1 100   -12.1 9     0     994.4    NA       0.0000   9999     690   0     0    
2019/07/23  14:34:00  BASE  4.263    243  6.92664  253  -12.0 100   -12.0 9     0     994.4    NA       0.0000   9999     690   0     0    
2019/07/23  14:35:00  BASE  4.55112  253  6.92664  253  -12.0 100   -12.0 9     0     994.3    NA       0.0000   -SN      9999  360   0    
2019/07/23  14:36:00  BASE  4.7628   254  6.92664  253  -12.0 100   -12.0 9     0     994.4    NA       0.0000   -SN      9999  360   0    
2019/07/23  14:37:00  BASE  4.45704  251  6.92664  253  -12.0 100   -12.0 8     0     994.4    NA       0.0000   -SN      9999  330   0    
2019/07/23  14:38:00  BASE  4.68636  254  6.50328  253  -12.0 100   -12.0 8     0     994.3    NA       0.0000   -SN      9000  360   0    
2019/07/23  14:39:00  BASE  5.1744   260  6.02112  253  -12.0 100   -12.0 8     0     994.4    NA       0.0000   -SN      7000  0     0    
2019/07/23  14:40:00  BASE  4.85688  261  6.02112  253  -12.0 100   -12.0 8     0     994.4    NA       0.0000   -SN      8000  0     0    
2019/07/23  14:41:00  BASE  4.44528  264  6.02112  253  -12.1 100   -12.1 8     0     994.3    NA       0.0000   -SN      9000  360   0    
2019/07/23  14:42:00  BASE  4.54524  272  6.02112  253  -12.0 100   -12.0 8     0     994.3    NA       0.0000   -SN      BR    9999  390  
2019/07/23  14:43:00  BASE  4.98036  267  6.3504   253  -12.0 100   -12.0 8     0     994.3    NA       0.0000   -SN      BR    9999  790  
2019/07/23  14:44:00  BASE  5.03328  255  6.3504   253  -12.1 100   -12.1 9     0     994.3    NA       0.0000   -SN      BR    9999  820  
2019/07/23  14:45:00  BASE  4.69224  248  6.3504   253  -12.1 100   -12.1 9     0     994.4    NA       0.0000   -SN      BR    9999  850  
2019/07/23  14:46:00  BASE  4.84512  244  6.95604  248  -12.1 100   -12.1 9     0     994.3    NA       0.0000   -SN      BR    9999  790  
2019/07/23  14:47:00  BASE  5.25084  239  6.95604  248  -12.1 100   -12.1 10    0     994.3    NA       0.0000   -SN      BR    9999  790  
2019/07/23  14:48:00  BASE  5.292    233  6.95604  248  -12.0 100   -12.0 9     0     994.4    NA       0.0000   -SN      9999  920   0    
2019/07/23  14:49:00  BASE  5.6742   234  6.95604  248  -12.0 100   -12.0 9     0     994.4    NA       0.0000   -SN      9999  750   0    
2019/07/23  14:50:00  BASE  6.2328   233  7.05012  230  -11.9 100   -11.9 9     0     994.4    NA       0.0000   -SN      9999  750   0    
2019/07/23  14:51:00  BASE  5.95644  222  7.05012  230  -11.9 100   -11.9 9     0     994.4    NA       0.0000   -SN      9999  750   0    
2019/07/23  14:52:00  BASE  5.06268  208  7.05012  230  -12.0 100   -12.0 10    0     994.4    NA       0.0000   -SN      9999  750   0    
2019/07/23  14:53:00  BASE  4.28064  218  7.05012  230  -12.0 100   -12.0 10    0     994.5    NA       0.0000   -SN      9999  820   0    
2019/07/23  14:54:00  BASE  4.43352  240  7.05012  230  -12.1 100   -12.1 10    0     994.4    NA       0.0000   -SN      9999  850   0    
2019/07/23  14:55:00  BASE  5.00388  244  7.05012  230  -12.1 100   -12.1 10    0     994.4    NA       0.0000   9999     850   0     0    
2019/07/23  14:56:00  BASE  4.557    244  7.05012  230  -12.1 100   -12.1 11    0     994.5    NA       0.0000   9999     950   0     0    
2019/07/23  14:57:00  BASE  3.6162   250  7.05012  230  -12.1 100   -12.1 11    0     994.6    NA       0.0000   9999     660   0     0    
2019/07/23  14:58:00  BASE  3.29868  254  7.05012  230  -12.1 100   -12.1 10    0     994.6    NA       0.0000   9999     330   0     0    
2019/07/23  14:59:00  BASE  3.71028  251  7.05012  230  -12.1 100   -12.1 10    0     994.6    NA       0.0000   8000     820   0     0    
2019/07/23  15:00:00  BASE  4.40412  251  6.2622   245  -12.1 100   -12.1 10    0     994.6    NA       0.0000   -SN      9999  720   0    
2019/07/23  15:01:00  BASE  5.23908  252  6.44448  246  -12.0 100   -12.0 10    0     994.5    NA       0.0000   -SN      9999  750   0    
2019/07/23  15:02:00  BASE  5.62716  248  6.44448  246  -12.0 100   -12.0 11    0     994.6    NA       0.0000   -SN      9999  590   0    
2019/07/23  15:03:00  BASE  4.47468  245  6.44448  246  -12.0 100   -12.0 11    0     994.7    NA       0.0000   -SN      9999  360   0    
2019/07/23  15:04:00  BASE  3.33396  245  6.44448  246  -11.9 100   -11.9 11    0     994.7    NA       0.0000   -SN      8000  0     0    
2019/07/23  15:05:00  BASE  3.72792  254  6.44448  246  -11.9 100   -11.9 11    0     994.7    NA       0.0000   -SN      5000  0     0    
2019/07/23  15:06:00  BASE  4.60404  256  6.44448  246  -11.9 100   -11.9 10    0     994.7    NA       0.0000   -SN      BR    3700  0    
2019/07/23  15:07:00  BASE  4.86864  264  6.44448  246  -11.9 100   -11.9 10    0     994.6    NA       0.0000   -SN      BR    2300  0    
2019/07/23  15:08:00  BASE  5.49192  249  7.56168  230  -11.8 100   -11.8 10    0     994.6    NA       0.0000   -SN      BR    2700  0    
2019/07/23  15:09:00  BASE  5.6448   222  7.56168  230  -11.8 100   -11.8 11    0     994.7    NA       0.0000   -SN      BR    7000  230  
2019/07/23  15:10:00  BASE  4.97448  224  7.56168  230  -11.7 100   -11.7 11    0     994.7    NA       0.0000   -SN      BR    9000  390  
2019/07/23  15:11:00  BASE  4.98624  227  7.56168  230  -11.7 100   -11.7 11    0     994.7    NA       0.0000   -SN      BR    9999  1020 
2019/07/23  15:12:00  BASE  4.48056  225  7.56168  230  -11.7 100   -11.7 12    0     994.7    NA       0.0000   -SN      BR    9999  920  
2019/07/23  15:13:00  BASE  4.00428  222  7.56168  230  -11.8 100   -11.8 12    0     994.7    NA       0.0000   -SN      BR    9999  920  
2019/07/23  15:14:00  BASE  4.66284  228  7.56168  230  -11.8 100   -11.8 13    0     994.7    NA       0.0000   -SN      BR    9999  1050 
2019/07/23  15:15:00  BASE  4.95096  235  7.56168  230  -11.8 100   -11.8 13    0     994.7    NA       0.0000   -SN      BR    9999  980  
2019/07/23  15:16:00  BASE  4.51584  239  7.56168  230  -11.8 100   -11.8 13    0     994.7    NA       0.0000   -SN      BR    9999  490  
2019/07/23  15:17:00  BASE  3.80436  250  7.56168  230  -11.8 100   -11.8 12    0     994.8    NA       0.0000   -SN      BR    9999  260  
2019/07/23  15:18:00  BASE  2.81652  248  6.321    241  -11.8 100   -11.8 12    0     994.8    NA       0.0000   -SN      4900  0     0    
2019/07/23  15:19:00  BASE  2.25792  245  6.321    241  -11.8 100   -11.8 11    0     994.7    NA       0.0000   -SN      BR    3100  360  
2019/07/23  15:20:00  BASE  2.92824  246  6.321    241  -11.8 100   -11.8 11    0     994.8    NA       0.0000   -SN      BR    7000  390  
2019/07/23  15:21:00  BASE  4.6452   236  6.53268  222  -11.8 100   -11.8 11    0     994.7    NA       0.0000   -SN      BR    9999  490  
2019/07/23  15:22:00  BASE  5.62128  235  6.53268  222  -11.8 100   -11.8 11    0     994.8    NA       0.0000   -SN      BR    9999  430  
2019/07/23  15:23:00  BASE  5.36844  242  6.53268  222  -11.8 100   -11.8 11    0     994.8    NA       0.0000   -SN      BR    9999  430  
2019/07/23  15:24:00  BASE  4.8216   246  6.53268  222  -11.8 100   -11.8 12    0     994.8    NA       0.0000   -SN      BR    9999  890  
2019/07/23  15:25:00  BASE  4.57464  248  6.53268  222  -11.8 100   -11.8 13    0     994.8    NA       0.0000   -SN      BR    9999  750  
2019/07/23  15:26:00  BASE  4.51584  253  6.53268  222  -11.9 100   -11.9 13    0     994.9    NA       0.0000   -SN      BR    9999  390  
2019/07/23  15:27:00  BASE  4.83336  256  6.53268  222  -11.9 100   -11.9 13    0     994.9    NA       0.0000   -SN      BR    9999  590  
2019/07/23  15:28:00  BASE  4.73928  256  6.53268  222  -11.9 100   -11.9 13    0     994.9    NA       0.0000   -SN      BR    9999  430  
2019/07/23  15:29:00  BASE  3.77496  255  6.53268  222  -11.9 100   -11.9 13    0     994.9    NA       0.0000   -SN      9999  750   0    
2019/07/23  15:30:00  BASE  3.66324  256  6.53268  222  -11.9 100   -11.9 13    0     994.9    NA       0.0000   9999     820   0     0    
2019/07/23  15:31:00  BASE  4.27476  257  6.2034   242  -11.9 100   -11.9 13    0     994.9    NA       0.0000   9999     850   0     0    
2019/07/23  15:32:00  BASE  4.72164  252  6.10932  240  -11.9 100   -11.9 13    0     994.9    NA       0.0000   9999     890   0     0    
2019/07/23  15:33:00  BASE  4.66872  253  6.07992  252  -11.9 100   -11.9 13    0     994.9    NA       0.0000   9999     850   0     0    
2019/07/23  15:34:00  BASE  4.15716  256  6.07992  252  -11.9 100   -11.9 14    0     994.9    NA       0.0000   9999     750   0     0    
2019/07/23  15:35:00  BASE  3.83376  255  6.07992  252  -11.9 100   -11.9 15    0     994.9    NA       0.0000   9999     890   0     0    
2019/07/23  15:36:00  BASE  3.8808   254  6.07992  252  -11.9 100   -11.9 15    0     995.0    NA       0.0000   9999     850   0     0    
2019/07/23  15:37:00  BASE  4.44528  253  5.47428  243  -11.9 100   -11.9 16    0     994.9    NA       0.0000   9999     890   0     0    
2019/07/23  15:38:00  BASE  4.86276  246  5.47428  246  -11.9 100   -11.9 16    0     995.0    NA       0.0000   9999     890   0     0    
2019/07/23  15:39:00  BASE  4.8804   242  5.74476  244  -11.9 100   -11.9 15    0     995.0    NA       0.0000   9999     790   0     0    
2019/07/23  15:40:00  BASE  4.87452  244  5.74476  244  -11.9 100   -11.9 15    0     995.1    NA       0.0000   9999     1020  0     0    
2019/07/23  15:41:00  BASE  4.68636  250  5.74476  244  -12.0 100   -12.0 15    0     995.1    NA       0.0000   9999     790   0     0    
2019/07/23  15:42:00  BASE  4.01604  256  5.74476  244  -12.0 100   -12.0 15    0     995.1    NA       0.0000   9999     820   0     0    
2019/07/23  15:43:00  BASE  3.93372  256  5.74476  244  -12.0 100   -12.0 15    0     995.1    NA       0.0000   9999     850   0     0    
2019/07/23  15:44:00  BASE  4.16304  258  5.74476  244  -12.0 100   -12.0 15    0     995.1    NA       0.0000   9999     820   0     0    
2019/07/23  15:45:00  BASE  3.9396   264  5.74476  244  -12.0 100   -12.0 15    0     995.1    NA       0.0000   9999     820   0     0    
2019/07/23  15:46:00  BASE  3.98664  265  5.74476  244  -12.0 100   -12.0 16    0     995.1    NA       0.0000   9999     920   0     0    
2019/07/23  15:47:00  BASE  4.00428  261  5.74476  244  -12.0 100   -12.0 16    0     995.1    NA       0.0000   9999     1050  0     0    
2019/07/23  15:48:00  BASE  3.58092  267  5.74476  244  -12.0 100   -12.0 18    0     995.1    NA       0.0000   9999     430   0     0    
2019/07/23  15:49:00  BASE  2.9694   280  5.41548  257  -12.0 100   -12.0 20    0     995.1    NA       0.0000   9999     590   0     0    
2019/07/23  15:50:00  BASE  3.08112  282  5.41548  257  -12.0 100   -12.0 21    0     995.1    NA       0.0000   9999     950   0     0    
2019/07/23  15:51:00  BASE  3.528    280  5.2038   243  -12.0 100   -12.0 19    0     995.1    NA       0.0000   9999     390   0     0    
2019/07/23  15:52:00  BASE  3.9396   272  5.2038   243  -11.9 100   -11.9 18    0     995.1    NA       0.0000   9999     1020  0     0    
2019/07/23  15:53:00  BASE  3.75732  262  5.1744   263  -11.9 100   -11.9 16    0     995.1    NA       0.0000   9999     1120  0     0    
2019/07/23  15:54:00  BASE  3.59268  264  5.1744   263  -11.9 100   -11.9 16    0     995.2    NA       0.0000   9999     1210  0     0    
2019/07/23  15:55:00  BASE  3.39864  271  5.1744   263  -11.9 100   -11.9 17    0     995.2    NA       0.0000   9999     660   0     0    
2019/07/23  15:56:00  BASE  3.01056  269  5.1744   263  -11.8 100   -11.8 16    0     995.2    NA       0.0000   9999     330   0     0    
2019/07/23  15:57:00  BASE  3.13992  260  5.1744   263  -11.8 100   -11.8 16    0     995.2    NA       0.0000   -SN      8000  360   0    
2019/07/23  15:58:00  BASE  3.3516   255  5.1744   263  -11.8 100   -11.8 16    0     995.2    NA       0.0000   -SN      9999  1210  0    
2019/07/23  15:59:00  BASE  3.50448  256  5.1744   263  -11.8 100   -11.8 16    0     995.2    NA       0.0000   -SN      9999  300   0    
2019/07/23  16:00:00  BASE  3.46332  258  5.1744   263  -11.8 100   -11.8 17    0     995.3    NA       0.0000   -SN      8000  330   0    
2019/07/23  16:01:00  BASE  3.19284  262  5.1744   263  -11.8 100   -11.8 19    0     995.2    NA       0.0000   -SN      8000  390   0    
2019/07/23  16:02:00  BASE  2.77536  267  4.47468  240  -11.8 100   -11.8 20    0     995.2    NA       0.0000   -SN      8000  390   0    
2019/07/23  16:03:00  BASE  2.91648  268  4.47468  267  -11.7 100   -11.7 20    0     995.2    NA       0.0000   -SN      8000  360   0    
2019/07/23  16:04:00  BASE  4.2042   261  5.99172  268  -11.7 100   -11.7 18    0     995.2    NA       0.0000   -SN      BR    8000  0    
2019/07/23  16:05:00  BASE  4.80984  262  5.99172  268  -11.6 100   -11.6 17    0     995.2    NA       0.0000   -SN      BR    7000  230  
2019/07/23  16:06:00  BASE  4.33944  270  5.99172  268  -11.5 100   -11.5 18    0     995.2    NA       0.0000   -SN      BR    7000  330  
2019/07/23  16:07:00  BASE  4.2042   268  5.99172  268  -11.5 100   -11.5 19    0     995.2    NA       0.0000   -SN      BR    9000  260  
2019/07/23  16:08:00  BASE  4.55112  260  6.02112  256  -11.5 100   -11.5 19    0     995.2    NA       0.0000   -SN      BR    9000  0    
2019/07/23  16:09:00  BASE  5.38608  256  7.02072  264  -11.4 100   -11.4 18    0     995.1    NA       0.0000   -SN      BR    5000  0    
2019/07/23  16:10:00  BASE  5.66832  260  7.02072  264  -11.5 100   -11.5 17    0     995.2    NA       0.0000   -SN      BR    3300  0    
2019/07/23  16:11:00  BASE  5.46252  264  7.3206   254  -11.5 100   -11.5 16    0     995.2    NA       0.0000   -SN      BR    2700  0    
2019/07/23  16:12:00  BASE  4.94508  269  7.3206   254  -11.5 100   -11.5 16    0     995.2    NA       0.0000   -SN      BR    2400  0    
2019/07/23  16:13:00  BASE  4.4982   267  7.3206   254  -11.5 100   -11.5 17    0     995.2    NA       0.0000   -SN      BR    4500  0    
2019/07/23  16:14:00  BASE  4.84512  260  7.3206   254  -11.5 100   -11.5 17    0     995.2    NA       0.0000   -SN      BR    5000  300  
2019/07/23  16:15:00  BASE  5.6154   251  7.3206   254  -11.4 100   -11.4 16    0     995.2    NA       0.0000   -SN      BR    8000  430  
2019/07/23  16:16:00  BASE  5.34492  236  7.3206   254  -11.4 100   -11.4 16    0     995.2    NA       0.0000   -SN      BR    9999  620  
2019/07/23  16:17:00  BASE  3.7926   231  7.3206   254  -11.5 100   -11.5 17    0     995.3    NA       0.0000   -SN      BR    9999  1180 
2019/07/23  16:18:00  BASE  3.55152  230  7.3206   254  -11.5 100   -11.5 17    0     995.3    NA       0.0000   -SN      BR    8000  300  
2019/07/23  16:19:00  BASE  3.66912  235  7.3206   254  -11.6 100   -11.6 18    0     995.3    NA       0.0000   -SN      BR    3200  0    
2019/07/23  16:20:00  BASE  3.15756  244  7.3206   254  -11.6 100   -11.6 20    0     995.3    NA       0.0000   -SN      BR    4200  300  
2019/07/23  16:21:00  BASE  3.98664  244  7.13832  240  -11.6 100   -11.6 20    0     995.2    NA       0.0000   -SN      BR    7000  0    
2019/07/23  16:22:00  BASE  5.25672  237  7.13832  240  -11.5 100   -11.5 18    0     995.2    NA       0.0000   -SN      BR    7000  0    
2019/07/23  16:23:00  BASE  5.7918   226  7.13832  240  -11.4 100   -11.4 16    0     995.2    NA       0.0000   -SN      BR    7000  0    
2019/07/23  16:24:00  BASE  5.58012  218  7.13832  240  -11.4 100   -11.4 15    0     995.3    NA       0.0000   -SN      BR    4700  0    
2019/07/23  16:25:00  BASE  5.1744   222  6.89724  237  -11.4 100   -11.4 15    0     995.3    NA       0.0000   -SN      BR    3200  0    
2019/07/23  16:26:00  BASE  4.72752  224  6.89724  237  -11.4 100   -11.4 17    0     995.3    NA       0.0000   -SN      BR    3300  0    
2019/07/23  16:27:00  BASE  4.32768  220  6.89724  237  -11.4 100   -11.4 16    0     995.3    NA       0.0000   -SN      BR    1800  0    
2019/07/23  16:28:00  BASE  4.66872  220  6.89724  237  -11.5 100   -11.5 14    0     995.3    NA       0.0000   -SN      BR    1400  0    
2019/07/23  16:29:00  BASE  4.80396  223  6.89724  237  -11.5 100   -11.5 14    0     995.3    NA       0.0000   -SN      BR    1600  0    
2019/07/23  16:30:00  BASE  4.60404  216  6.89724  237  -11.5 100   -11.5 14    0     995.3    NA       0.0000   -SN      BR    1700  0    
2019/07/23  16:31:00  BASE  4.1748   210  6.89724  237  -11.5 100   -11.5 15    0     995.3    NA       0.0000   -SN      BR    1500  0    
2019/07/23  16:32:00  BASE  3.98664  213  6.65616  218  -11.5 100   -11.5 16    0     995.3    NA       0.0000   -SN      BR    1800  0    
2019/07/23  16:33:00  BASE  4.04544  216  6.02112  227  -11.5 100   -11.5 15    0     995.3    NA       0.0000   -SN      BR    1900  0    
2019/07/23  16:34:00  BASE  3.96312  224  5.80944  230  -11.5 100   -11.5 14    0     995.3    NA       0.0000   -SN      BR    1900  0    
2019/07/23  16:35:00  BASE  4.38648  229  6.59148  219  -11.4 100   -11.4 14    0     995.3    NA       0.0000   -SN      BR    1600  0    
2019/07/23  16:36:00  BASE  5.28612  229  6.59148  219  -11.4 100   -11.4 14    0     995.3    NA       0.0000   -SN      BR    2300  0    
2019/07/23  16:37:00  BASE  5.80356  225  6.59148  219  -11.4 100   -11.4 15    0     995.3    NA       0.0000   -SN      BR    5000  0    
2019/07/23  16:38:00  BASE  6.10344  221  7.02072  221  -11.4 100   -11.4 15    0     995.3    NA       0.0000   -SN      BR    9999  330  
2019/07/23  16:39:00  BASE  6.49152  222  7.02072  221  -11.4 100   -11.4 15    0     995.3    NA       0.0000   -SN      BR    9999  260  
2019/07/23  16:40:00  BASE  5.94468  219  7.02072  221  -11.5 100   -11.6 15    0     995.3    NA       0.0000   -SN      BR    9999  0    
2019/07/23  16:41:00  BASE  5.05092  215  7.02072  221  -11.6 99    -11.7 15    0     995.3    NA       0.0000   -SN      BR    9999  260  
2019/07/23  16:42:00  BASE  4.7628   210  7.02072  221  -11.7 99    -11.8 15    0     995.3    NA       0.0000   -SN      BR    9999  460  
2019/07/23  16:43:00  BASE  4.71576  204  7.02072  221  -11.7 99    -11.8 15    0     995.3    NA       0.0000   -SN      BR    9999  1480 
2019/07/23  16:44:00  BASE  4.58052  197  7.02072  221  -11.8 99    -11.9 16    0     995.4    NA       0.0000   -SN      BR    9999  850  
2019/07/23  16:45:00  BASE  4.2924   191  7.02072  221  -11.8 99    -11.9 17    0     995.4    NA       0.0000   -SN      BR    6000  260  
2019/07/23  16:46:00  BASE  3.92784  185  7.02072  221  -11.8 99    -11.9 18    0     995.4    NA       0.0000   -SN      BR    3300  260  
2019/07/23  16:47:00  BASE  3.71028  183  7.02072  221  -11.8 99    -11.9 18    0     995.4    NA       0.0000   -SN      BR    5000  230  
2019/07/23  16:48:00  BASE  3.45156  199  6.92664  216  -11.8 99    -12.0 18    0     995.5    NA       0.0000   -SN      BR    2100  0    
2019/07/23  16:49:00  BASE  3.76908  230  5.71536  226  -11.7 98    -12.0 17    0     995.5    NA       0.0000   -SN      BR    2400  330  
2019/07/23  16:50:00  BASE  4.85688  243  6.47388  240  -11.7 98    -11.9 16    0     995.5    NA       0.0000   -SN      BR    9000  0    
2019/07/23  16:51:00  BASE  5.586    244  6.47388  240  -11.7 98    -11.9 16    0     995.4    NA       0.0000   -SN      BR    9999  330  
2019/07/23  16:52:00  BASE  6.1446   244  8.16732  245  -11.6 98    -11.9 16    0     995.4    NA       0.0000   -SN      BR    9999  330  
2019/07/23  16:53:00  BASE  6.66204  235  8.16732  245  -11.6 98    -11.9 16    0     995.4    NA       0.0000   -SN      BR    9999  360  
2019/07/23  16:54:00  BASE  6.615    234  8.16732  245  -11.6 98    -11.9 17    0     995.5    NA       0.0000   -SN      BR    9999  330  
2019/07/23  16:55:00  BASE  6.34452  244  8.16732  245  -11.6 98    -11.9 17    0     995.5    NA       0.0000   -SN      BR    9999  390  
2019/07/23  16:56:00  BASE  5.91528  250  8.16732  245  -11.6 98    -11.9 18    0     995.5    NA       0.0000   -SN      BR    9999  0    
2019/07/23  16:57:00  BASE  5.19792  252  8.16732  245  -11.6 98    -11.9 19    0     995.5    NA       0.0000   -SN      BR    9999  1310 
2019/07/23  16:58:00  BASE  5.06268  251  8.16732  245  -11.7 98    -11.9 19    0     995.5    NA       0.0000   -SN      BR    9999  330  
2019/07/23  16:59:00  BASE  6.09168  249  8.16732  245  -11.7 99    -11.9 19    0     995.5    NA       0.0000   -SN      9999  390   1740 
2019/07/23  17:00:00  BASE  6.34452  248  8.16732  245  -11.8 99    -11.9 20    0     995.6    NA       0.0000   -SN      9999  360   1310 
2019/07/23  17:01:00  BASE  5.40372  246  8.16732  245  -11.8 99    -11.9 19    0     995.6    NA       0.0000   -SN      9999  430   1280 
2019/07/23  17:02:00  BASE  4.54524  246  7.2912   246  -11.8 99    -11.9 19    0     995.7    NA       0.0000   -SN      9999  1180  0    
2019/07/23  17:03:00  BASE  4.2042   249  7.2912   246  -11.8 100   -11.9 19    0     995.7    NA       0.0000   -SN      9999  920   0    
2019/07/23  17:04:00  BASE  4.33944  247  7.2912   246  -11.8 100   -11.8 20    0     995.7    NA       0.0000   -SN      9999  390   0    
2019/07/23  17:05:00  BASE  4.46292  245  7.2912   246  -11.8 100   -11.8 20    0     995.6    NA       0.0000   -SN      9999  430   0    
2019/07/23  17:06:00  BASE  4.33944  251  7.2912   246  -11.7 100   -11.7 19    0     995.7    NA       0.0000   -SN      9999  260   0    
2019/07/23  17:07:00  BASE  4.08072  255  7.2912   246  -11.7 100   -11.7 19    0     995.6    NA       0.0000   -SN      9999  0     0    
2019/07/23  17:08:00  BASE  3.83964  253  7.2912   246  -11.7 100   -11.7 19    0     995.7    NA       0.0000   -SN      8000  390   0    
2019/07/23  17:09:00  BASE  4.09248  249  6.2622   248  -11.7 100   -11.7 19    0     995.6    NA       0.0000   -SN      9999  1210  0    
2019/07/23  17:10:00  BASE  4.73928  245  6.05052  248  -11.7 100   -11.7 19    0     995.6    NA       0.0000   -SN      9999  1150  0    
2019/07/23  17:11:00  BASE  4.41     250  6.05052  248  -11.8 100   -11.8 20    0     995.7    NA       0.0000   -SN      9999  1310  0    
2019/07/23  17:12:00  BASE  3.69264  256  6.05052  248  -11.8 100   -11.8 21    0     995.7    NA       0.0000   -SN      9999  1050  0    
2019/07/23  17:13:00  BASE  3.675    253  6.05052  248  -11.8 100   -11.8 22    0     995.7    NA       0.0000   -SN      9999  1310  0    
2019/07/23  17:14:00  BASE  3.63384  251  6.05052  248  -11.8 100   -11.8 21    0     995.7    NA       0.0000   -SN      9999  660   0    
2019/07/23  17:15:00  BASE  3.33984  255  5.53308  237  -11.8 100   -11.8 20    0     995.7    NA       0.0000   -SN      9999  1150  1740 
2019/07/23  17:16:00  BASE  3.8514   256  5.53308  237  -11.8 100   -11.8 19    0     995.7    NA       0.0000   -SN      9999  1410  0    
2019/07/23  17:17:00  BASE  4.78632  249  5.86824  240  -11.8 100   -11.8 18    0     995.7    NA       0.0000   -SN      9999  1150  0    
2019/07/23  17:18:00  BASE  5.27436  247  6.47388  247  -11.8 100   -11.8 19    0     995.7    NA       0.0000   -SN      9999  820   0    
2019/07/23  17:19:00  BASE  4.80984  249  6.47388  247  -11.7 100   -11.7 20    0     995.8    NA       0.0000   -SN      9999  1180  0    
2019/07/23  17:20:00  BASE  4.12776  250  6.47388  247  -11.7 100   -11.7 21    0     995.8    NA       0.0000   9999     1250  0     0    
2019/07/23  17:21:00  BASE  4.47468  254  6.47388  247  -11.7 100   -11.7 20    0     995.8    NA       0.0000   9999     1280  0     0    
2019/07/23  17:22:00  BASE  4.33944  263  6.47388  247  -11.7 100   -11.7 19    0     995.8    NA       0.0000   9999     1280  0     0    
2019/07/23  17:23:00  BASE  3.89844  260  6.47388  247  -11.7 100   -11.7 18    0     995.8    NA       0.0000   9999     1380  0     0    
2019/07/23  17:24:00  BASE  4.33356  250  6.47388  247  -11.6 100   -11.6 17    0     995.9    NA       0.0000   9999     1440  0     0    
2019/07/23  17:25:00  BASE  4.86276  249  6.47388  247  -11.6 100   -11.6 16    0     995.9    NA       0.0000   9999     1250  0     0    
2019/07/23  17:26:00  BASE  4.38648  258  6.47388  247  -11.6 100   -11.6 16    0     995.9    NA       0.0000   9999     1180  0     0    
2019/07/23  17:27:00  BASE  4.31592  262  6.47388  247  -11.6 100   -11.6 18    0     995.9    NA       0.0000   9999     1150  0     0    
2019/07/23  17:28:00  BASE  4.63344  258  5.99172  261  -11.6 100   -11.6 19    0     995.9    NA       0.0000   9999     790   0     0    
2019/07/23  17:29:00  BASE  4.0278   257  5.99172  261  -11.6 100   -11.6 18    0     M        NA       0.0000   9999     390   0     0    
2019/07/23  17:30:00  BASE  3.93372  256  5.99172  261  -11.6 100   -11.7 17    0     996.0    NA       0.0000   9999     330   0     0    
2019/07/23  17:31:00  BASE  4.03956  255  5.99172  261  -11.6 99    -11.7 17    0     996.0    NA       0.0000   9999     230   0     0    
2019/07/23  17:32:00  BASE  3.57504  261  5.99172  261  -11.6 99    -11.7 16    0     996.0    NA       0.0000   9999     330   1280  0    
2019/07/23  17:33:00  BASE  3.38688  270  5.99172  261  -11.6 99    -11.7 17    0     996.0    NA       0.0000   -SN      8000  0     0    
2019/07/23  17:34:00  BASE  3.32808  276  5.99172  261  -11.6 99    -11.7 16    0     996.0    NA       0.0000   -SN      5000  260   0    
2019/07/23  17:35:00  BASE  4.30416  270  7.13832  256  -11.6 99    -11.7 15    0     996.0    NA       0.0000   -SN      6000  300   0    
2019/07/23  17:36:00  BASE  5.49192  257  7.13832  256  -11.6 99    -11.7 16    0     996.0    NA       0.0000   -SN      9000  0     0    
2019/07/23  17:37:00  BASE  4.94508  257  7.13832  256  -11.5 99    -11.7 16    0     996.0    NA       0.0000   -SN      BR    8000  0    
2019/07/23  17:38:00  BASE  4.7922   263  7.13832  256  -11.5 99    -11.6 18    0     996.0    NA       0.0000   -SN      BR    7000  300  
2019/07/23  17:39:00  BASE  5.45076  258  7.13832  247  -11.4 99    -11.6 18    0     996.0    NA       0.0000   -SN      BR    9000  360  
2019/07/23  17:40:00  BASE  4.998    246  7.13832  247  -11.4 99    -11.5 17    0     996.0    NA       0.0000   -SN      BR    9999  330  
2019/07/23  17:41:00  BASE  5.13912  244  7.74396  248  -11.4 99    -11.5 15    0     995.9    NA       0.0000   -SN      BR    9000  1080 
2019/07/23  17:42:00  BASE  6.10344  241  7.74396  248  -11.3 99    -11.4 14    0     995.9    NA       0.0000   -SN      BR    7000  390  
2019/07/23  17:43:00  BASE  6.01524  240  7.74396  248  -11.3 99    -11.4 13    0     995.9    NA       0.0000   -SN      BR    9999  390  
2019/07/23  17:44:00  BASE  5.92116  244  7.74396  248  -11.3 100   -11.4 13    0     996.0    NA       0.0000   -SN      BR    9000  0    
2019/07/23  17:45:00  BASE  6.1152   248  7.74396  248  -11.3 100   -11.3 13    0     996.0    NA       0.0000   -SN      BR    9000  260  
2019/07/23  17:46:00  BASE  6.21516  256  7.74396  248  -11.3 100   -11.3 14    0     996.0    NA       0.0000   -SN      BR    9000  0    
2019/07/23  17:47:00  BASE  6.42684  255  7.74396  248  -11.4 100   -11.4 15    0     996.0    NA       0.0000   -SN      BR    9000  300  
2019/07/23  17:48:00  BASE  5.69184  249  7.74396  248  -11.4 100   -11.4 15    0     996.0    NA       0.0000   -SN      BR    9999  300  
2019/07/23  17:49:00  BASE  4.90392  248  7.74396  248  -11.5 100   -11.5 15    0     996.0    NA       0.0000   -SN      BR    9999  260  
2019/07/23  17:50:00  BASE  4.56288  259  7.74396  248  -11.5 100   -11.5 16    0     996.1    NA       0.0000   -SN      BR    6000  0    
2019/07/23  17:51:00  BASE  4.6746   266  7.13832  250  -11.5 100   -11.5 17    0     996.1    NA       0.0000   -SN      BR    4600  0    
2019/07/23  17:52:00  BASE  5.586    260  7.13832  250  -11.5 100   -11.5 16    0     996.1    NA       0.0000   -SN      BR    6000  0    
2019/07/23  17:53:00  BASE  6.5268   251  7.95564  238  -11.5 100   -11.5 15    0     996.1    NA       0.0000   -SN      BR    9999  520  
2019/07/23  17:54:00  BASE  6.56796  240  7.95564  238  -11.5 100   -11.5 13    0     996.2    NA       0.0000   -SN      BR    9999  690  
2019/07/23  17:55:00  BASE  5.63304  240  7.95564  238  -11.5 100   -11.5 12    0     996.3    NA       0.0000   -SN      BR    6000  0    
2019/07/23  17:56:00  BASE  5.36256  246  7.95564  238  -11.5 100   -11.5 11    0     996.3    NA       0.0000   -SN      BR    2000  0    
2019/07/23  17:57:00  BASE  5.29788  246  7.95564  238  -11.5 100   -11.5 10    0     996.3    NA       0.0000   -SN      BR    1200  0    
2019/07/23  17:58:00  BASE  4.98624  247  7.95564  238  -11.5 100   -11.5 10    0     996.3    NA       0.0000   -SN      BR    1400  0    
2019/07/23  17:59:00  BASE  5.36844  249  7.95564  238  -11.4 100   -11.4 11    0     996.3    NA       0.0000   -SN      BR    2300  0    
2019/07/23  18:00:00  BASE  6.28572  242  7.95564  238  -11.4 100   -11.4 12    0     996.2    NA       0.0000   -SN      BR    4900  0    
2019/07/23  18:01:00  BASE  6.53268  237  7.95564  238  -11.4 100   -11.4 11    0     996.2    NA       0.0000   -SN      BR    9999  0    
2019/07/23  18:02:00  BASE  5.6742   239  7.95564  238  -11.4 100   -11.4 11    0     996.3    NA       0.0000   -SN      BR    6000  0    
2019/07/23  18:03:00  BASE  5.09796  244  7.47348  231  -11.4 100   -11.4 10    0     996.3    NA       0.0000   -SN      BR    4700  0    
2019/07/23  18:04:00  BASE  5.18028  246  7.2618   237  -11.5 100   -11.5 10    0     996.3    NA       0.0000   -SN      BR    4600  0    
2019/07/23  18:05:00  BASE  6.13284  245  7.77336  244  -11.5 100   -11.5 9     0     996.3    NA       0.0000   -SN      BR    4800  0    
2019/07/23  18:06:00  BASE  6.53268  245  7.77336  244  -11.5 100   -11.5 9     0     996.3    NA       0.0000   -SN      BR    7000  0    
2019/07/23  18:07:00  BASE  5.9976   244  7.77336  244  -11.5 100   -11.6 10    0     996.3    NA       0.0000   -SN      BR    9999  0    
2019/07/23  18:08:00  BASE  5.92704  243  7.77336  244  -11.6 100   -11.6 10    0     996.4    NA       0.0000   -SN      BR    9999  300  
2019/07/23  18:09:00  BASE  6.06816  247  7.77336  244  -11.6 100   -11.6 11    0     996.4    NA       0.0000   -SN      BR    9999  360  
2019/07/23  18:10:00  BASE  5.87412  247  7.77336  244  -11.6 100   -11.6 12    0     996.4    NA       0.0000   -SN      BR    9999  430  
2019/07/23  18:11:00  BASE  5.4096   245  7.77336  244  -11.6 100   -11.6 12    0     996.4    NA       0.0000   -SN      BR    9999  1210 
2019/07/23  18:12:00  BASE  5.10384  242  7.77336  244  -11.6 100   -11.6 12    0     996.4    NA       0.0000   -SN      BR    9999  1050 
2019/07/23  18:13:00  BASE  4.31004  240  7.77336  244  -11.6 100   -11.6 12    0     996.5    NA       0.0000   -SN      BR    9999  360  
2019/07/23  18:14:00  BASE  3.98664  244  7.77336  244  -11.6 100   -11.6 11    0     996.4    NA       0.0000   -SN      9999  1350  0    
2019/07/23  18:15:00  BASE  4.45116  251  7.2324   251  -11.6 100   -11.6 10    0     996.5    NA       0.0000   -SN      9999  260   1080 
2019/07/23  18:16:00  BASE  4.1748   258  7.2324   251  -11.7 100   -11.7 10    0     996.5    NA       0.0000   -SN      6000  0     0    
2019/07/23  18:17:00  BASE  3.63384  259  7.2324   251  -11.7 100   -11.7 10    0     996.5    NA       0.0000   -SN      4800  0     0    
2019/07/23  18:18:00  BASE  3.80436  254  7.2324   251  -11.6 100   -11.6 10    0     996.5    NA       0.0000   -SN      7000  300   0    
2019/07/23  18:19:00  BASE  3.98664  248  6.13872  253  -11.6 100   -11.6 10    0     996.5    NA       0.0000   -SN      BR    9000  330  
2019/07/23  18:20:00  BASE  4.10424  243  6.13872  253  -11.6 100   -11.6 10    0     996.5    NA       0.0000   -SN      BR    9999  920  
2019/07/23  18:21:00  BASE  4.59816  232  6.44448  219  -11.5 100   -11.5 10    0     996.5    NA       0.0000   -SN      BR    9999  980  
2019/07/23  18:22:00  BASE  4.998    219  6.44448  219  -11.5 100   -11.5 9     0     996.5    NA       0.0000   -SN      BR    9999  390  
2019/07/23  18:23:00  BASE  4.69812  227  6.44448  219  -11.5 100   -11.5 9     0     996.5    NA       0.0000   -SN      BR    9000  330  
2019/07/23  18:24:00  BASE  4.87452  239  6.44448  219  -11.5 100   -11.5 9     0     996.5    NA       0.0000   -SN      BR    9999  430  
2019/07/23  18:25:00  BASE  4.78632  246  6.44448  219  -11.6 100   -11.6 9     0     996.5    NA       0.0000   -SN      BR    9999  1280 
2019/07/23  18:26:00  BASE  4.25712  257  6.44448  219  -11.7 100   -11.7 9     0     996.5    NA       0.0000   -SN      BR    9999  920  
2019/07/23  18:27:00  BASE  3.9102   265  6.44448  219  -11.7 100   -11.7 9     0     996.5    NA       0.0000   -SN      9999  1180  0    
2019/07/23  18:28:00  BASE  4.2042   257  6.44448  219  -11.7 100   -11.7 10    0     996.5    NA       0.0000   -SN      9999  1210  0    
2019/07/23  18:29:00  BASE  5.19792  239  6.44448  219  -11.7 100   -11.7 10    0     996.5    NA       0.0000   -SN      9999  1310  0    
2019/07/23  18:30:00  BASE  5.28612  233  6.44448  219  -11.7 100   -11.7 10    0     996.5    NA       0.0000   -SN      9999  1180  0    
2019/07/23  18:31:00  BASE  4.58052  230  6.2622   251  -11.7 100   -11.7 10    0     996.6    NA       0.0000   -SN      9999  1210  0    
2019/07/23  18:32:00  BASE  3.78672  234  6.2622   251  -11.7 100   -11.7 10    0     996.6    NA       0.0000   -SN      9999  1210  0    
2019/07/23  18:33:00  BASE  3.03996  237  6.13872  248  -11.7 100   -11.7 9     0     996.6    NA       0.0000   9999     1120  0     0    
2019/07/23  18:34:00  BASE  2.90472  241  6.07992  231  -11.7 100   -11.7 9     0     996.6    NA       0.0000   9999     1120  0     0    
2019/07/23  18:35:00  BASE  3.26928  249  6.07992  231  -11.8 100   -11.8 9     0     996.6    NA       0.0000   9999     490   0     0    
2019/07/23  18:36:00  BASE  3.53976  253  6.07992  231  -11.8 100   -11.8 8     0     996.6    NA       0.0000   9999     390   1150  0    
2019/07/23  18:37:00  BASE  3.28692  250  6.07992  231  -11.8 100   -11.8 8     0     996.6    NA       0.0000   9999     1080  0     0    
2019/07/23  18:38:00  BASE  3.31632  250  6.07992  231  -11.8 100   -11.8 7     0     996.6    NA       0.0000   9999     1080  0     0    
2019/07/23  18:39:00  BASE  4.21008  253  6.07992  231  -11.7 100   -11.7 7     0     996.6    NA       0.0000   9999     950   0     0    
2019/07/23  18:40:00  BASE  4.59816  249  5.53308  256  -11.7 100   -11.7 7     0     996.6    NA       0.0000   9999     360   0     0    
2019/07/23  18:41:00  BASE  4.49232  243  5.53308  256  -11.7 100   -11.7 7     0     996.6    NA       0.0000   9999     430   1180  0    
2019/07/23  18:42:00  BASE  4.50408  240  5.53308  256  -11.7 100   -11.7 8     0     996.6    NA       0.0000   9999     460   0     0    
2019/07/23  18:43:00  BASE  4.08072  241  5.53308  256  -11.7 100   -11.7 8     0     996.6    NA       0.0000   9999     1050  0     0    
2019/07/23  18:44:00  BASE  3.24576  235  5.53308  256  -11.7 100   -11.7 8     0     996.7    NA       0.0000   9999     1350  0     0    
2019/07/23  18:45:00  BASE  2.69892  227  5.53308  256  -11.7 100   -11.7 7     0     996.6    NA       0.0000   -SN      9999  950   0    
2019/07/23  18:46:00  BASE  3.15168  225  5.53308  256  -11.7 100   -11.7 7     0     996.7    NA       0.0000   -SN      9000  920   0    
2019/07/23  18:47:00  BASE  3.62796  223  5.53308  256  -11.7 100   -11.7 7     0     996.7    NA       0.0000   -SN      8000  390   0    
2019/07/23  18:48:00  BASE  4.07484  226  5.53308  239  -11.7 100   -11.7 6     0     996.7    NA       0.0000   -SN      9000  1080  0    
2019/07/23  18:49:00  BASE  4.63932  228  5.53308  239  -11.7 100   -11.7 6     0     996.7    NA       0.0000   -SN      9999  360   0    
2019/07/23  18:50:00  BASE  4.12776  225  5.53308  239  -11.7 100   -11.7 6     0     996.7    NA       0.0000   -SN      9999  850   0    
2019/07/23  18:51:00  BASE  3.25752  229  5.53308  239  -11.8 100   -11.8 6     0     996.7    NA       0.0000   -SN      9999  690   0    
2019/07/23  18:52:00  BASE  3.4986   238  5.53308  239  -11.8 100   -11.8 6     0     996.7    NA       0.0000   -SN      9999  1050  0    
2019/07/23  18:53:00  BASE  4.38648  243  5.53308  239  -11.8 100   -11.8 5     0     996.7    NA       0.0000   -SN      9999  1080  0    
2019/07/23  18:54:00  BASE  4.19832  242  5.53308  239  -11.8 100   -11.8 5     0     996.8    NA       0.0000   -SN      9999  1020  0    
2019/07/23  18:55:00  BASE  3.90432  244  5.53308  239  -11.8 100   -11.8 5     0     996.8    NA       0.0000   -SN      9999  1180  0    
2019/07/23  18:56:00  BASE  3.98076  244  5.53308  239  -11.8 100   -11.8 5     0     996.8    NA       0.0000   -SN      9999  1150  0    
2019/07/23  18:57:00  BASE  4.10424  245  5.53308  239  -11.9 100   -11.9 5     0     996.8    NA       0.0000   -SN      9999  660   1250 
2019/07/23  18:58:00  BASE  3.8514   247  5.47428  226  -11.9 100   -11.9 5     0     996.8    NA       0.0000   -SN      9999  1210  0    
2019/07/23  18:59:00  BASE  3.675    249  5.292    230  -11.9 100   -11.9 5     0     996.8    NA       0.0000   9999     1080  0     0    
2019/07/23  19:00:00  BASE  3.30456  251  5.292    230  -11.9 100   -11.9 4     0     996.8    NA       0.0000   9999     390   0     0    
2019/07/23  19:01:00  BASE  3.1458   254  5.292    230  -11.9 100   -11.9 4     0     996.8    NA       0.0000   9999     890   0     0    
2019/07/23  19:02:00  BASE  3.43392  258  5.2038   238  -11.9 100   -11.9 4     0     996.9    NA       0.0000   9999     1050  0     0    
2019/07/23  19:03:00  BASE  3.60444  251  4.75104  246  -11.9 100   -11.9 4     0     997.0    NA       0.0000   9999     360   0     0    
2019/07/23  19:04:00  BASE  4.72164  251  6.13872  255  -11.8 100   -11.8 4     0     996.9    NA       0.0000   9999     360   0     0    
2019/07/23  19:05:00  BASE  4.86276  254  6.13872  255  -11.8 100   -11.8 4     0     997.0    NA       0.0000   -SN      9999  300   0    
2019/07/23  19:06:00  BASE  4.18068  255  6.13872  255  -11.8 100   -11.8 4     0     997.0    NA       0.0000   -SN      9999  330   0    
2019/07/23  19:07:00  BASE  4.32768  254  6.13872  255  -11.7 100   -11.8 3     0     997.0    NA       0.0000   -SN      9999  390   0    
2019/07/23  19:08:00  BASE  4.2042   245  6.13872  255  -11.7 100   -11.7 3     0     997.1    NA       0.0000   -SN      9999  360   0    
2019/07/23  19:09:00  BASE  4.26888  246  6.13872  255  -11.8 100   -11.8 3     0     997.1    NA       0.0000   -SN      9999  300   0    
2019/07/23  19:10:00  BASE  4.60404  251  6.13872  255  -11.8 100   -11.8 3     0     997.2    NA       0.0000   -SN      9000  300   0    
2019/07/23  19:11:00  BASE  4.24536  252  6.13872  255  -11.8 100   -11.8 3     0     997.2    NA       0.0000   -SN      8000  300   0    
2019/07/23  19:12:00  BASE  4.21008  254  6.13872  255  -11.8 100   -11.8 3     0     997.2    NA       0.0000   -SN      BR    8000  1050 
2019/07/23  19:13:00  BASE  4.45704  249  6.13872  255  -11.9 100   -11.9 3     0     997.1    NA       0.0000   -SN      BR    9999  390  
2019/07/23  19:14:00  BASE  4.4394   239  5.53308  239  -11.9 100   -11.9 3     0     997.2    NA       0.0000   -SN      BR    9999  1210 
2019/07/23  19:15:00  BASE  3.85728  236  5.53308  239  -11.9 100   -11.9 3     0     997.2    NA       0.0000   -SN      BR    9999  490  
2019/07/23  19:16:00  BASE  3.381    236  5.53308  239  -11.9 100   -11.9 3     0     997.2    NA       0.0000   -SN      BR    3600  0    
2019/07/23  19:17:00  BASE  3.22224  239  5.53308  239  -11.9 100   -11.9 3     0     997.2    NA       0.0000   -SN      BR    2000  0    
2019/07/23  19:18:00  BASE  2.68716  240  5.53308  239  -11.9 100   -11.9 2     0     997.2    NA       0.0000   -SN      BR    3600  360  
2019/07/23  19:19:00  BASE  2.37552  244  5.53308  239  -11.9 100   -11.9 2     0     997.2    NA       0.0000   -SN      BR    3400  300  
2019/07/23  19:20:00  BASE  2.83416  254  5.53308  239  -11.9 100   -11.9 2     0     997.1    NA       0.0000   -SN      BR    2100  0    
2019/07/23  19:21:00  BASE  3.16344  254  5.53308  239  -11.8 100   -11.8 2     0     997.1    NA       0.0000   -SN      BR    4800  330  
2019/07/23  19:22:00  BASE  3.3516   257  5.53308  239  -11.8 100   -11.8 2     0     997.1    NA       0.0000   -SN      BR    9000  980  
2019/07/23  19:23:00  BASE  3.54564  251  5.53308  239  -11.8 100   -11.8 2     0     997.1    NA       0.0000   -SN      BR    5000  430  
2019/07/23  19:24:00  BASE  3.40452  233  4.41588  267  -11.8 100   -11.8 2     0     997.1    NA       0.0000   -SN      BR    4900  390  
2019/07/23  19:25:00  BASE  3.79848  222  5.2626   222  -11.8 100   -11.8 2     0     997.1    NA       0.0000   -SN      BR    7000  820  
2019/07/23  19:26:00  BASE  3.98664  214  5.2626   222  -11.8 100   -11.8 2     0     997.1    NA       0.0000   -SN      BR    9999  1020 
2019/07/23  19:27:00  BASE  2.89884  215  5.2626   222  -11.8 100   -11.8 2     0     997.2    NA       0.0000   -SN      BR    9999  1050 
2019/07/23  19:28:00  BASE  2.5284   234  5.2626   222  -11.8 100   -11.8 2     0     997.2    NA       0.0000   -SN      BR    9999  1180 
2019/07/23  19:29:00  BASE  3.33984  250  5.2626   222  -11.9 100   -11.9 2     0     997.2    NA       0.0000   -SN      BR    9999  980  
2019/07/23  19:30:00  BASE  4.01604  252  5.2626   222  -11.9 100   -11.9 2     0     997.2    NA       0.0000   -SN      BR    9999  1120 
2019/07/23  19:31:00  BASE  4.557    246  5.41548  236  -11.9 100   -11.9 2     0     997.2    NA       0.0000   -SN      BR    9999  1180 
2019/07/23  19:32:01  BASE  4.7334   241  5.41548  236  -11.9 100   -11.9 2     0     997.2    NA       0.0000   -SN      9999  1250  0    
2019/07/23  19:33:01  BASE  4.33356  240  5.41548  236  -11.9 100   -11.9 2     0     997.2    NA       0.0000   -SN      9999  1250  0    
2019/07/23  19:34:01  BASE  3.69264  240  5.41548  236  -11.9 100   -12.0 2     0     997.2    NA       0.0000   9999     1150  0     0    
2019/07/23  19:35:01  BASE  3.62208  246  5.41548  236  -12.0 99    -12.0 2     0     997.3    NA       0.0000   9999     1150  0     0    
2019/07/23  19:36:01  BASE  3.39276  253  5.41548  236  -12.0 99    -12.1 2     0     997.3    NA       0.0000   9999     1180  0     0    
2019/07/23  19:37:01  BASE  2.81064  253  5.41548  236  -12.0 99    -12.1 2     0     997.3    NA       0.0000   9999     1280  0     0    
2019/07/23  19:38:01  BASE  2.36964  252  5.41548  236  -12.0 99    -12.1 1     0     997.4    NA       0.0000   9999     1280  0     0    
2019/07/23  19:39:01  BASE  2.16972  257  5.41548  236  -12.0 99    -12.1 1     0     997.4    NA       0.0000   9999     1310  0     0    
2019/07/23  19:40:01  BASE  2.5284   257  5.41548  236  -12.0 99    -12.1 1     0     997.5    NA       0.0000   9999     1280  0     0    
2019/07/23  19:41:01  BASE  2.7342   255  4.99212  237  -12.0 99    -12.1 1     0     997.5    NA       0.0000   9999     1310  0     0    
2019/07/23  19:42:01  BASE  2.5284   269  4.59816  248  -12.0 99    -12.1 1     0     997.5    NA       0.0000   9999     1120  0     0    
2019/07/23  19:43:01  BASE  2.68128  282  4.59816  248  -11.9 98    -12.2 1     0     997.5    NA       0.0000   9999     1120  0     0    
2019/07/23  19:44:01  BASE  2.97528  283  4.59816  248  -11.9 98    -12.2 1     0     997.5    NA       0.0000   9999     1250  0     0    
2019/07/23  19:45:01  BASE  2.84592  284  3.69264  258  -11.9 98    -12.2 1     0     997.5    NA       0.0000   9999     1080  0     0    
2019/07/23  19:46:01  BASE  2.42844  278  3.69264  258  -11.9 98    -12.2 1     0     997.5    NA       0.0000   9999     1020  0     0    
2019/07/23  19:47:01  BASE  1.94628  275  3.69264  258  -11.9 98    -12.2 1     0     997.6    NA       0.0000   9999     1210  0     0    
2019/07/23  19:48:01  BASE  2.18148  272  4.1454   258  -11.9 97    -12.2 1     0     997.6    NA       0.0000   9999     1250  0     0    
2019/07/23  19:49:01  BASE  3.4398   258  4.93332  247  -11.9 97    -12.2 1     0     997.6    NA       0.0000   9999     1210  0     0    
2019/07/23  19:50:01  BASE  4.4982   251  5.38608  248  -11.8 97    -12.2 1     0     997.6    NA       0.0000   9999     1150  0     0    
2019/07/23  19:51:01  BASE  4.85688  249  5.80944  248  -11.8 97    -12.2 1     0     997.6    NA       0.0000   9999     1250  0     0    
2019/07/23  19:52:01  BASE  5.10384  248  6.77376  247  -11.8 97    -12.2 1     0     997.6    NA       0.0000   9999     1120  0     0    
2019/07/23  19:53:01  BASE  5.22144  253  6.77376  247  -11.8 97    -12.1 1     0     997.6    NA       0.0000   9999     1020  0     0    
2019/07/23  19:54:01  BASE  5.25084  256  6.77376  247  -11.8 97    -12.2 1     0     997.6    NA       0.0000   9999     1250  0     0    
2019/07/23  19:55:01  BASE  4.58052  260  6.77376  247  -11.8 97    -12.2 1     0     997.6    NA       0.0000   -SN      9999  950   0    
2019/07/23  19:56:01  BASE  3.69264  266  6.77376  247  -11.8 97    -12.2 1     0     997.7    NA       0.0000   -SN      9999  1020  0    
2019/07/23  19:57:01  BASE  3.528    269  6.77376  247  -11.9 97    -12.2 1     0     997.7    NA       0.0000   -SN      9999  1280  0    
2019/07/23  19:58:01  BASE  3.59856  269  6.77376  247  -11.9 97    -12.2 1     0     997.7    NA       0.0000   -SN      9999  1050  0    
2019/07/23  19:59:01  BASE  3.65736  274  6.77376  247  -11.9 98    -12.2 0     0     997.7    NA       0.0000   -SN      9999  850   0    
2019/07/23  20:00:01  BASE  3.63972  280  6.77376  247  -11.9 98    -12.1 0     0     997.8    NA       0.0000   -SN      9999  360   0    
2019/07/23  20:01:01  BASE  3.29868  276  6.77376  247  -11.9 98    -12.1 0     0     997.8    NA       0.0000   -SN      7000  1120  0    
2019/07/23  20:02:01  BASE  2.99292  269  6.321    252  -11.8 98    -12.1 0     0     997.8    NA       0.0000   -SN      8000  950   0    
2019/07/23  20:03:01  BASE  3.4398   261  6.321    252  -11.8 98    -12.1 0     0     997.8    NA       0.0000   -SN      9999  1050  0    
2019/07/23  20:04:01  BASE  4.07484  256  5.2038   257  -11.8 98    -12.0 0     0     997.8    NA       0.0000   -SN      9999  980   0    
2019/07/23  20:05:01  BASE  4.57464  252  5.292    249  -11.8 98    -12.0 0     0     997.8    NA       0.0000   -SN      9999  1050  0    
2019/07/23  20:06:01  BASE  4.6158   248  5.292    249  -11.8 98    -12.0 0     0     997.8    NA       0.0000   -SN      9999  330   0    
2019/07/23  20:07:01  BASE  4.33944  245  5.292    249  -11.7 98    -12.0 0     0     997.8    NA       0.0000   -SN      8000  260   1250 
2019/07/23  20:08:01  BASE  3.8514   248  5.292    249  -11.8 98    -12.0 0     0     997.8    NA       0.0000   -SN      BR    7000  0    
2019/07/23  20:09:01  BASE  3.69852  257  5.292    249  -11.8 98    -12.1 0     0     997.9    NA       0.0000   -SN      BR    9000  360  
2019/07/23  20:10:01  BASE  4.19832  257  5.292    249  -11.8 98    -12.0 0     0     997.9    NA       0.0000   -SN      BR    9999  390  
2019/07/23  20:11:01  BASE  3.71028  254  5.292    249  -11.8 98    -12.0 0     0     997.9    NA       0.0000   -SN      9999  460   1080 
2019/07/23  20:12:01  BASE  2.72832  266  5.292    249  -11.8 98    -12.0 0     0     997.9    NA       0.0000   -SN      9000  360   1180 
2019/07/23  20:13:01  BASE  3.13992  268  5.292    249  -11.8 99    -11.9 0     0     997.9    NA       0.0000   -SN      BR    5000  0    
2019/07/23  20:14:01  BASE  3.82788  252  5.292    249  -11.7 99    -11.9 0     0     997.9    NA       0.0000   -SN      BR    6000  560  
2019/07/23  20:15:01  BASE  3.48096  243  5.1744   250  -11.7 99    -11.8 0     0     997.9    NA       0.0000   -SN      BR    9999  460  
2019/07/23  20:16:01  BASE  2.98116  233  5.1744   250  -11.7 99    -11.8 0     0     997.9    NA       0.0000   -SN      BR    9999  850  
2019/07/23  20:17:01  BASE  3.08112  220  4.93332  254  -11.7 99    -11.8 0     0     997.9    NA       0.0000   -SN      BR    9999  390  
2019/07/23  20:18:01  BASE  2.79888  215  4.93332  254  -11.7 99    -11.8 0     0     997.9    NA       0.0000   -SN      BR    4900  300  
2019/07/23  20:19:01  BASE  2.31084  212  4.93332  254  -11.7 99    -11.9 0     0     997.9    NA       0.0000   -SN      BR    2300  0    
2019/07/23  20:20:01  BASE  2.32848  209  4.53936  260  -11.8 99    -11.9 0     0     997.9    NA       0.0000   -SN      BR    2400  0    
2019/07/23  20:21:01  BASE  2.59896  214  4.53936  260  -11.8 99    -11.9 0     0     998.0    NA       0.0000   -SN      BR    4600  360  
2019/07/23  20:22:01  BASE  2.68716  216  4.53936  260  -11.8 99    -11.9 0     0     998.0    NA       0.0000   -SN      BR    4600  0    
2019/07/23  20:23:01  BASE  3.12228  218  5.08032  240  -11.7 99    -11.9 0     0     998.0    NA       0.0000   -SN      BR    2600  0    
2019/07/23  20:24:01  BASE  3.99252  236  5.08032  240  -11.6 98    -11.8 0     0     998.0    NA       0.0000   -SN      BR    2800  0    
2019/07/23  20:25:01  BASE  3.88668  250  5.08032  240  -11.6 98    -11.8 0     0     998.0    NA       0.0000   -SN      BR    3200  0    
2019/07/23  20:26:01  BASE  3.31044  250  5.08032  240  -11.6 98    -11.9 0     0     998.0    NA       0.0000   -SN      BR    4800  0    
2019/07/23  20:27:01  BASE  3.10464  252  5.08032  240  -11.6 98    -11.9 0     0     998.0    NA       0.0000   -SN      BR    6000  0    
2019/07/23  20:28:01  BASE  3.0576   259  5.08032  240  -11.6 98    -11.9 0     0     998.0    NA       0.0000   -SN      BR    5000  0    
2019/07/23  20:29:01  BASE  3.28692  255  5.08032  240  -11.6 98    -11.9 0     0     998.0    NA       0.0000   -SN      BR    3200  0    
2019/07/23  20:30:01  BASE  3.86316  244  5.08032  240  -11.6 98    -11.9 0     0     998.0    NA       0.0000   -SN      BR    3100  0    
2019/07/23  20:31:01  BASE  4.03368  230  5.08032  240  -11.6 98    -11.8 0     0     998.1    NA       0.0000   -SN      BR    4000  300  
2019/07/23  20:32:01  BASE  3.83376  218  5.08032  240  -11.6 98    -11.8 0     0     998.2    NA       0.0000   -SN      BR    5000  300  
2019/07/23  20:33:01  BASE  3.42216  220  4.93332  233  -11.6 98    -11.8 0     0     998.2    NA       0.0000   -SN      BR    6000  0    
2019/07/23  20:34:01  BASE  2.96352  232  4.93332  233  -11.5 98    -11.7 0     0     998.2    NA       0.0000   -SN      BR    3700  0    
2019/07/23  20:35:01  BASE  2.92236  252  4.93332  233  -11.5 99    -11.7 0     0     998.2    NA       0.0000   -SN      BR    3600  0    
2019/07/23  20:36:00  BASE  3.86316  241  6.2622   231  -11.5 99    -11.7 0     0     998.1    NA       0.0000   -SN      BR    3200  0    
2019/07/23  20:37:00  BASE  4.32768  211  6.2622   231  -11.5 99    -11.6 0     0     998.2    NA       0.0000   -SN      BR    2500  0    
2019/07/23  20:38:00  BASE  3.78672  208  6.2622   231  -11.5 99    -11.7 0     0     998.2    NA       0.0000   -SN      BR    2600  0    
2019/07/23  20:39:00  BASE  3.82788  224  6.2622   231  -11.6 99    -11.7 0     0     998.2    NA       0.0000   -SN      BR    2800  0    
2019/07/23  20:40:00  BASE  3.81612  239  6.2622   231  -11.6 99    -11.7 0     0     998.2    NA       0.0000   -SN      BR    2600  0    
2019/07/23  20:41:00  BASE  3.38688  248  6.2622   231  -11.6 99    -11.7 0     0     998.2    NA       0.0000   -SN      BR    3500  0    
2019/07/23  20:42:00  BASE  3.83376  253  6.2622   231  -11.6 100   -11.7 0     0     998.1    NA       0.0000   -SN      BR    3400  0    
2019/07/23  20:43:00  BASE  4.62168  245  6.2622   231  -11.6 100   -11.6 0     0     998.1    NA       0.0000   -SN      BR    3700  0    
2019/07/23  20:44:00  BASE  4.7922   228  6.2622   231  -11.6 100   -11.6 0     0     998.2    NA       0.0000   -SN      BR    5000  0    
2019/07/23  20:45:00  BASE  4.35708  214  6.2622   231  -11.6 100   -11.6 0     0     998.2    NA       0.0000   -SN      BR    9999  230  
2019/07/23  20:46:00  BASE  3.7338   203  5.62716  231  -11.6 100   -11.6 0     0     998.2    NA       0.0000   -SN      BR    5000  300  
2019/07/23  20:47:00  BASE  4.0278   205  5.62716  231  -11.6 100   -11.6 0     0     998.2    NA       0.0000   -SN      BR    4800  390  
2019/07/23  20:48:00  BASE  4.48644  217  5.62716  231  -11.6 100   -11.6 0     0     998.2    NA       0.0000   -SN      BR    9999  300  
2019/07/23  20:49:00  BASE  4.59816  220  5.62716  231  -11.6 100   -11.6 0     0     998.2    NA       0.0000   -SN      BR    9999  300  
2019/07/23  20:50:00  BASE  4.69812  219  5.62716  231  -11.6 100   -11.6 0     0     998.2    NA       0.0000   -SN      BR    9999  950  
2019/07/23  20:51:00  BASE  4.75692  224  5.62716  231  -11.6 100   -11.6 0     0     998.3    NA       0.0000   -SN      BR    9999  1180 
2019/07/23  20:52:00  BASE  4.57464  228  5.62716  231  -11.6 100   -11.6 0     0     998.3    NA       0.0000   -SN      BR    9999  1250 
2019/07/23  20:53:00  BASE  4.18068  233  5.53308  221  -11.5 100   -11.5 0     0     998.3    NA       0.0000   -SN      BR    9999  330  
2019/07/23  20:54:00  BASE  4.31004  239  5.53308  221  -11.5 100   -11.5 0     0     998.4    NA       0.0000   -SN      BR    9999  1310 
2019/07/23  20:55:00  BASE  3.94548  240  5.53308  221  -11.6 100   -11.6 0     0     998.4    NA       0.0000   -SN      BR    9000  0    
2019/07/23  20:56:00  BASE  3.36924  243  5.53308  221  -11.6 100   -11.6 0     0     998.4    NA       0.0000   -SN      BR    4300  0    
2019/07/23  20:57:00  BASE  3.27516  244  5.53308  221  -11.6 99    -11.7 0     0     998.4    NA       0.0000   -SN      BR    2800  0    
2019/07/23  20:58:00  BASE  3.11052  242  5.53308  221  -11.7 99    -11.8 0     0     998.5    NA       0.0000   -SN      BR    3100  0    
2019/07/23  20:59:00  BASE  2.8518   237  5.47428  230  -11.7 99    -11.8 0     0     998.5    NA       0.0000   -SN      BR    3100  0    
2019/07/23  21:00:00  BASE  2.47548  226  5.47428  230  -11.7 99    -11.8 0     0     998.5    NA       0.0000   -SN      BR    3200  0    
2019/07/23  21:01:00  BASE  3.48684  222  5.2626   219  -11.6 99    -11.8 0     0     998.5    NA       0.0000   -SN      BR    2000  0    
2019/07/23  21:02:00  BASE  4.59816  215  5.2626   212  -11.6 99    -11.7 0     0     998.5    NA       0.0000   -SN      BR    1600  0    
2019/07/23  21:03:00  BASE  4.44528  202  5.2626   212  -11.6 99    -11.7 0     0     998.5    NA       0.0000   -SN      BR    2900  0    
2019/07/23  21:04:00  BASE  4.45116  198  5.35668  210  -11.6 99    -11.7 0     0     998.5    NA       0.0000   -SN      BR    3400  0    
2019/07/23  21:05:00  BASE  5.09796  204  6.83844  213  -11.6 99    -11.8 0     0     998.5    NA       0.0000   -SN      BR    5000  300  
2019/07/23  21:06:01  BASE  5.3214   205  6.83844  213  -11.7 99    -11.8 0     0     998.5    NA       0.0000   -SN      BR    9999  360  
2019/07/23  21:07:01  BASE  5.145    199  6.83844  213  -11.7 99    -11.8 0     0     998.5    NA       0.0000   -SN      BR    9999  390  
2019/07/23  21:08:01  BASE  4.79808  192  6.83844  213  -11.7 99    -11.8 0     0     998.5    NA       0.0000   -SN      BR    9999  390  
2019/07/23  21:09:01  BASE  4.26888  188  6.83844  213  -11.7 99    -11.9 0     0     998.6    NA       0.0000   -SN      BR    9000  360  
2019/07/23  21:10:01  BASE  4.2042   188  6.83844  213  -11.8 99    -11.9 0     0     998.6    NA       0.0000   -SN      BR    8000  950  
2019/07/23  21:11:01  BASE  4.22772  193  6.83844  213  -11.8 99    -11.9 0     0     998.6    NA       0.0000   -SN      BR    9999  1020 
2019/07/23  21:12:01  BASE  4.43352  200  6.83844  213  -11.8 99    -11.9 0     0     998.6    NA       0.0000   -SN      BR    9999  1080 
2019/07/23  21:13:01  BASE  4.47468  199  6.83844  213  -11.8 99    -12.0 0     0     998.6    NA       0.0000   -SN      BR    9999  950  
2019/07/23  21:14:01  BASE  3.83964  192  6.83844  213  -11.8 98    -12.0 0     0     998.6    NA       0.0000   -SN      9999  980   0    
2019/07/23  21:15:01  BASE  3.01644  188  6.2328   197  -11.8 98    -12.0 0     0     998.6    NA       0.0000   -SN      9999  1120  0    
2019/07/23  21:16:01  BASE  2.96352  186  5.89764  198  -11.8 98    -12.1 0     0     998.6    NA       0.0000   -SN      9999  1250  0    
2019/07/23  21:17:01  BASE  3.56916  177  5.145    190  -11.8 98    -12.1 0     0     998.6    NA       0.0000   -SN      9999  1150  0    
2019/07/23  21:18:01  BASE  3.68676  169  5.02152  192  -11.8 98    -12.1 0     0     998.6    NA       0.0000   -SN      9999  1280  0    
2019/07/23  21:19:01  BASE  2.96352  164  5.02152  192  -11.9 98    -12.1 0     0     998.6    NA       0.0000   -SN      9999  1210  0    
2019/07/23  21:20:01  BASE  2.205    156  5.02152  192  -11.9 98    -12.1 0     0     998.6    NA       0.0000   -SN      9999  1510  0    
2019/07/23  21:21:01  BASE  1.54644  161  5.02152  192  -11.9 98    -12.2 0     0     998.6    NA       0.0000   9999     1640  0     0    
2019/07/23  21:22:01  BASE  1.63464  186  4.68636  195  -11.9 97    -12.2 0     0     998.6    NA       0.0000   9999     1280  0     0    
2019/07/23  21:23:01  BASE  1.82868  206  4.29828  174  -11.9 97    -12.2 0     0     998.7    NA       0.0000   7000     460   0     0    
2019/07/23  21:24:01  BASE  1.28184  237  4.29828  174  -11.8 97    -12.2 0     0     998.8    NA       0.0000   4400     330   0     0    
2019/07/23  21:25:01  BASE  0.9996   258  4.29828  174  -11.8 97    -12.1 0     0     998.8    NA       0.0000   -SN      BR    4600  0    
2019/07/23  21:26:01  BASE  0.87612  252  4.29828  174  -11.7 97    -12.1 0     0     998.8    NA       0.0000   -SN      BR    2700  0    
2019/07/23  21:27:01  BASE  0.9702   258  4.263    164  -11.6 97    -12.1 0     0     998.8    NA       0.0000   -SN      BR    2400  0    
2019/07/23  21:28:01  BASE  2.1462   251  3.96312  219  -11.6 96    -12.1 0     0     998.8    NA       0.0000   -SN      BR    3900  360  
2019/07/23  21:29:01  BASE  3.00468  216  3.96312  219  -11.6 96    -12.1 0     0     998.8    NA       0.0000   -SN      BR    5000  1410 
2019/07/23  21:30:01  BASE  2.95176  202  3.96312  219  -11.6 96    -12.1 0     0     998.9    NA       0.0000   -SN      BR    7000  790  
2019/07/23  21:31:01  BASE  3.08112  210  3.96312  219  -11.6 96    -12.1 0     0     998.8    NA       0.0000   -SN      BR    9999  1210 
2019/07/23  21:32:01  BASE  2.95764  213  3.96312  219  -11.6 96    -12.1 0     0     998.9    NA       0.0000   -SN      BR    9999  490  
2019/07/23  21:33:01  BASE  3.04584  209  3.96312  219  -11.5 96    -12.1 0     0     998.8    NA       0.0000   -SN      BR    8000  360  
2019/07/23  21:34:01  BASE  2.89884  203  3.96312  219  -11.5 96    -12.1 0     0     998.9    NA       0.0000   -SN      BR    4200  0    
2019/07/23  21:35:01  BASE  2.04036  191  3.96312  219  -11.5 95    -12.1 0     0     998.9    NA       0.0000   -SN      BR    2900  0    
2019/07/23  21:36:01  BASE  1.82868  181  3.96312  219  -11.5 95    -12.1 0     0     998.9    NA       0.0000   -SN      BR    1800  0    
2019/07/23  21:37:01  BASE  1.87572  183  3.96312  219  -11.5 95    -12.1 0     0     999.0    NA       0.0000   -SN      BR    1400  0    
2019/07/23  21:38:01  BASE  1.74636  192  3.83964  201  -11.5 95    -12.1 0     0     999.0    NA       0.0000   -SN      BR    1700  0    
2019/07/23  21:39:01  BASE  2.18736  195  3.83964  201  -11.5 95    -12.1 0     0     999.0    NA       0.0000   -SN      BR    1800  0    
2019/07/23  21:40:01  BASE  3.234    204  4.29828  220  -11.5 95    -12.1 0     0     999.0    NA       0.0000   -SN      BR    1800  0    
2019/07/23  21:41:01  BASE  4.12188  211  5.89764  217  -11.4 95    -12.1 0     0     999.0    NA       0.0000   -SN      BR    3200  260  
2019/07/23  21:42:01  BASE  4.851    211  5.89764  217  -11.4 95    -12.1 0     0     999.0    NA       0.0000   -SN      BR    4400  360  
2019/07/23  21:43:01  BASE  5.16264  215  5.89764  217  -11.5 95    -12.1 0     0     999.0    NA       0.0000   -SN      BR    8000  430  
2019/07/23  21:44:01  BASE  4.9098   222  5.89764  217  -11.5 95    -12.0 0     0     999.0    NA       0.0000   -SN      BR    9999  660  
2019/07/23  21:45:01  BASE  4.50996  221  5.89764  217  -11.5 96    -12.1 0     0     999.0    NA       0.0000   -SN      BR    9999  1210 
2019/07/23  21:46:01  BASE  4.44528  206  5.89764  217  -11.5 96    -12.1 0     0     999.0    NA       0.0000   -SN      BR    9999  1080 
2019/07/23  21:47:01  BASE  4.46292  197  5.89764  217  -11.5 96    -12.0 0     0     999.0    NA       0.0000   -SN      BR    9999  1020 
2019/07/23  21:48:01  BASE  3.6456   199  5.89764  217  -11.6 96    -12.1 0     0     999.0    NA       0.0000   -SN      BR    9000  980  
2019/07/23  21:49:01  BASE  3.0576   193  5.89764  217  -11.6 96    -12.1 0     0     999.0    NA       0.0000   -SN      BR    9999  1180 
2019/07/23  21:50:01  BASE  3.68676  190  5.89764  217  -11.5 96    -12.1 0     0     999.0    NA       0.0000   -SN      BR    9999  1310 
2019/07/23  21:51:01  BASE  4.07484  187  5.80944  225  -11.6 96    -12.1 0     0     999.0    NA       0.0000   -SN      9999  1120  1570 
2019/07/23  21:52:01  BASE  3.59268  192  5.80944  225  -11.6 96    -12.1 0     0     999.1    NA       0.0000   -SN      9999  980   0    
2019/07/23  21:53:01  BASE  3.26928  204  5.65656  229  -11.6 96    -12.1 0     0     999.1    NA       0.0000   -SN      9999  1120  0    
2019/07/23  21:54:01  BASE  2.56956  191  5.59776  186  -11.6 96    -12.1 0     0     999.1    NA       0.0000   -SN      9999  1180  0    
2019/07/23  21:55:01  BASE  1.84632  167  5.59776  186  -11.6 96    -12.1 0     0     999.1    NA       0.0000   -SN      9000  390   0    
2019/07/23  21:56:01  BASE  1.56408  168  5.08032  188  -11.6 96    -12.1 0     0     999.1    NA       0.0000   -SN      7000  790   0    
2019/07/23  21:57:01  BASE  1.66992  174  5.08032  188  -11.6 96    -12.1 0     0     999.1    NA       0.0000   -SN      5000  230   1250 
2019/07/23  21:58:01  BASE  2.2344   174  5.08032  188  -11.5 96    -12.1 0     0     999.1    NA       0.0000   -SN      BR    2600  0    
2019/07/23  21:59:01  BASE  3.28104  187  5.10972  193  -11.5 96    -12.0 0     0     999.1    NA       0.0000   -SN      BR    2800  390  
2019/07/23  22:00:01  BASE  4.06308  195  5.10972  193  -11.5 96    -12.0 0     0     999.1    NA       0.0000   -SN      BR    5000  390  
2019/07/23  22:01:01  BASE  3.59268  190  5.10972  193  -11.5 96    -12.0 0     0     999.1    NA       0.0000   -SN      BR    9999  360  
2019/07/23  22:02:01  BASE  3.69852  189  5.10972  193  -11.4 96    -12.0 0     0     999.1    NA       0.0000   -SN      BR    9999  1150 
2019/07/23  22:03:01  BASE  4.28652  194  5.10972  193  -11.4 96    -11.9 0     0     999.1    NA       0.0000   -SN      BR    9999  520  
2019/07/23  22:04:01  BASE  4.53348  196  5.2626   190  -11.4 96    -12.0 0     0     999.0    NA       0.0000   -SN      BR    9999  1210 
2019/07/23  22:05:01  BASE  4.53348  193  5.2626   190  -11.5 96    -12.0 0     0     999.1    NA       0.0000   -SN      BR    9999  1150 
2019/07/23  22:06:01  BASE  3.4692   187  5.2626   190  -11.5 96    -12.0 0     0     999.1    NA       0.0000   -SN      BR    9999  1050 
2019/07/23  22:07:01  BASE  2.6754   186  5.2626   190  -11.5 96    -12.0 0     0     999.1    NA       0.0000   -SN      BR    9999  950  
2019/07/23  22:08:01  BASE  2.84592  190  5.2626   190  -11.6 96    -12.1 0     0     999.1    NA       0.0000   -SN      BR    9999  1280 
2019/07/23  22:09:01  BASE  2.6754   195  5.2626   190  -11.6 96    -12.1 0     0     999.1    NA       0.0000   -SN      9999  1120  0    
2019/07/23  22:10:01  BASE  2.24616  194  5.2626   190  -11.6 96    -12.0 0     0     999.1    NA       0.0000   -SN      9999  690   0    
2019/07/23  22:11:01  BASE  2.07564  197  5.2626   190  -11.6 97    -12.0 0     0     999.1    NA       0.0000   -SN      9999  520   0    
2019/07/23  22:12:01  BASE  1.9404   198  5.2626   190  -11.5 97    -11.9 0     0     999.1    NA       0.0000   -SN      9999  390   0    
2019/07/23  22:13:01  BASE  1.63464  193  5.2626   190  -11.5 97    -11.9 0     0     999.1    NA       0.0000   -SN      9999  560   0    
2019/07/23  22:14:01  BASE  1.62288  205  4.56876  197  -11.5 97    -11.9 0     0     999.1    NA       0.0000   -SN      7000  560   0    
2019/07/23  22:15:01  BASE  1.69344  213  3.35748  179  -11.5 97    -11.9 0     0     999.1    NA       0.0000   -SN      6000  390   1280 
2019/07/23  22:16:01  BASE  1.66992  222  3.2046   194  -11.5 97    -11.9 0     0     999.2    NA       0.0000   -SN      8000  430   0    
2019/07/23  22:17:01  BASE  1.81104  222  3.2046   194  -11.5 97    -11.8 0     0     999.2    NA       0.0000   -SN      9000  980   0    
2019/07/23  22:18:01  BASE  2.1462   209  2.81064  204  -11.5 97    -11.8 0     0     999.2    NA       0.0000   -SN      BR    7000  360  
2019/07/23  22:19:01  BASE  2.81652  214  3.35748  229  -11.4 97    -11.8 0     0     999.2    NA       0.0000   -SN      BR    5000  390  
2019/07/23  22:20:01  BASE  3.60444  218  4.41588  213  -11.4 97    -11.8 0     0     999.3    NA       0.0000   -SN      BR    7000  360  
2019/07/23  22:21:00  BASE  4.04544  208  4.41588  198  -11.4 97    -11.7 0     0     999.3    NA       0.0000   -SN      BR    6000  330  
2019/07/23  22:22:00  BASE  4.02192  203  4.62756  203  -11.3 97    -11.7 0     0     999.3    NA       0.0000   -SN      BR    3900  0    
2019/07/23  22:23:01  BASE  3.528    197  4.62756  203  -11.3 97    -11.7 0     0     999.4    NA       0.0000   -SN      BR    1800  0    
2019/07/23  22:24:01  BASE  2.72832  190  4.62756  203  -11.3 97    -11.7 0     0     999.4    NA       0.0000   -SN      BR    1500  0    
2019/07/23  22:25:01  BASE  2.90472  203  4.62756  203  -11.3 97    -11.7 0     0     999.3    NA       0.0000   -SN      BR    2600  0    
2019/07/23  22:26:00  BASE  4.43352  211  6.02112  210  -11.3 97    -11.7 0     0     999.2    NA       0.0000   -SN      BR    5000  980  
2019/07/23  22:27:00  BASE  5.5566   212  6.16812  197  -11.3 97    -11.6 0     0     999.3    NA       0.0000   -SN      BR    9999  980  
2019/07/23  22:28:00  BASE  5.10972  217  6.16812  197  -11.3 97    -11.6 0     0     999.3    NA       0.0000   -SN      BR    9999  1050 
2019/07/23  22:29:01  BASE  4.26888  218  6.16812  197  -11.3 97    -11.6 0     0     999.3    NA       0.0000   -SN      BR    6000  330  
2019/07/23  22:30:00  BASE  4.39236  213  6.16812  197  -11.2 98    -11.6 0     0     999.3    NA       0.0000   -SN      BR    5000  490  
2019/07/23  22:31:00  BASE  4.6746   209  6.16812  197  -11.3 98    -11.5 0     0     999.3    NA       0.0000   -SN      BR    9999  1150 
2019/07/23  22:32:00  BASE  4.29828  218  6.16812  197  -11.3 98    -11.6 0     0     999.4    NA       0.0000   -SN      BR    9999  1180 
2019/07/23  22:33:00  BASE  4.19832  229  6.16812  197  -11.3 98    -11.6 0     0     999.4    NA       0.0000   -SN      BR    9999  1050 
2019/07/23  22:34:01  BASE  3.94548  231  6.16812  197  -11.4 98    -11.6 0     0     999.4    NA       0.0000   -SN      BR    9999  1080 
2019/07/23  22:35:00  BASE  3.54564  228  6.16812  197  -11.4 98    -11.7 0     0     999.4    NA       0.0000   -SN      BR    9999  980  
2019/07/23  22:36:00  BASE  3.7044   223  6.16812  197  -11.5 98    -11.7 0     0     999.4    NA       0.0000   -SN      9999  890   0    
2019/07/23  22:37:00  BASE  3.88668  216  5.59776  225  -11.5 98    -11.7 0     0     999.4    NA       0.0000   -SN      9999  980   0    
2019/07/23  22:38:00  BASE  3.51624  215  5.3214   209  -11.5 98    -11.8 0     0     999.4    NA       0.0000   -SN      9999  1020  0    
2019/07/23  22:39:00  BASE  2.84004  218  5.3214   209  -11.5 98    -11.8 0     0     999.4    NA       0.0000   -SN      9999  620   0    
2019/07/23  22:40:01  BASE  2.41668  226  4.99212  231  -11.6 98    -11.8 0     0     999.4    NA       0.0000   -SN      9999  360   0    
2019/07/23  22:41:00  BASE  2.78124  226  4.99212  231  -11.6 98    -11.8 0     0     999.4    NA       0.0000   -SN      6000  330   0    
2019/07/23  22:42:01  BASE  3.69852  224  4.99212  231  -11.6 98    -11.8 0     0     999.4    NA       0.0000   -SN      5000  460   0    
2019/07/23  22:43:00  BASE  3.76908  227  4.47468  218  -11.6 98    -11.8 0     0     999.4    NA       0.0000   -SN      9999  720   0    
2019/07/23  22:44:00  BASE  3.28692  227  4.47468  218  -11.6 98    -11.8 0     0     999.4    NA       0.0000   -SN      9999  920   0    
2019/07/23  22:45:00  BASE  3.69852  216  4.86864  204  -11.5 98    -11.8 0     0     999.3    NA       0.0000   -SN      9999  1080  0    
2019/07/23  22:46:01  BASE  4.55112  206  5.08032  209  -11.5 98    -11.8 0     0     999.3    NA       0.0000   -SN      9999  1050  0    
2019/07/23  22:47:00  BASE  4.4394   205  5.08032  209  -11.5 98    -11.8 0     0     999.3    NA       0.0000   -SN      9999  890   0    
2019/07/23  22:48:01  BASE  3.86316  201  5.08032  209  -11.6 98    -11.8 0     0     999.4    NA       0.0000   -SN      9999  920   0    
2019/07/23  22:49:01  BASE  3.8514   197  5.08032  209  -11.6 98    -11.8 0     0     999.3    NA       0.0000   -SN      9999  1080  0    
2019/07/23  22:50:01  BASE  3.81024  188  5.08032  209  -11.6 99    -11.8 0     0     999.3    NA       0.0000   -SN      9999  1020  0    
2019/07/23  22:51:01  BASE  3.32808  190  5.08032  209  -11.6 99    -11.8 0     0     999.4    NA       0.0000   -SN      9999  850   0    
2019/07/23  22:52:01  BASE  2.60484  192  5.08032  209  -11.6 99    -11.7 0     0     999.4    NA       0.0000   -SN      9999  890   0    
2019/07/23  22:53:01  BASE  2.19324  189  5.08032  209  -11.6 99    -11.7 0     0     999.4    NA       0.0000   -SN      9999  1050  0    
2019/07/23  22:54:01  BASE  2.39904  204  5.08032  209  -11.6 99    -11.7 0     0     999.4    NA       0.0000   -SN      5000  1080  0    
2019/07/23  22:55:01  BASE  2.81652  218  5.08032  209  -11.6 99    -11.7 0     0     999.4    NA       0.0000   -SN      5000  1150  0    
2019/07/23  22:56:01  BASE  3.34572  219  4.50996  185  -11.6 99    -11.7 0     0     999.4    NA       0.0000   -SN      9999  950   0    
2019/07/23  22:57:01  BASE  3.1164   214  4.50996  185  -11.6 99    -11.7 0     0     999.4    NA       0.0000   -SN      9999  850   0    
2019/07/23  22:58:01  BASE  2.56956  209  4.50996  185  -11.5 99    -11.7 0     0     999.4    NA       0.0000   -SN      9000  1020  0    
2019/07/23  22:59:01  BASE  2.5872   216  4.1748   219  -11.5 99    -11.7 0     0     999.4    NA       0.0000   -SN      BR    4900  330  
2019/07/23  23:00:01  BASE  2.4696   230  4.1748   219  -11.5 99    -11.6 0     0     999.4    NA       0.0000   -SN      BR    4800  300  
2019/07/23  23:01:01  BASE  2.22852  232  4.1748   219  -11.5 99    -11.6 0     0     999.4    NA       0.0000   -SN      BR    6000  300  
2019/07/23  23:02:01  BASE  2.55192  220  4.1748   219  -11.5 99    -11.6 0     0     999.4    NA       0.0000   -SN      BR    9999  1050 
2019/07/23  23:03:01  BASE  3.4104   215  4.1748   219  -11.5 99    -11.6 0     0     999.4    NA       0.0000   -SN      BR    9999  390  
2019/07/23  23:04:01  BASE  3.44568  217  4.1748   219  -11.5 99    -11.6 0     0     999.4    NA       0.0000   -SN      BR    9999  430  
2019/07/23  23:05:01  BASE  2.7048   221  4.1748   219  -11.5 99    -11.6 0     0     999.4    NA       0.0000   -SN      BR    9999  820  
2019/07/23  23:06:01  BASE  2.22264  223  4.02192  216  -11.5 99    -11.6 0     0     999.4    NA       0.0000   -SN      BR    9999  1050 
2019/07/23  23:07:01  BASE  2.205    204  4.02192  216  -11.5 99    -11.6 0     0     999.4    NA       0.0000   -SN      BR    9999  1080 
2019/07/23  23:08:01  BASE  2.09916  187  4.02192  216  -11.5 99    -11.6 0     0     999.4    NA       0.0000   -SN      BR    7000  390  
2019/07/23  23:09:01  BASE  1.87572  180  4.02192  216  -11.5 99    -11.6 0     0     999.4    NA       0.0000   -SN      BR    3500  300  
2019/07/23  23:10:01  BASE  1.78164  170  4.02192  216  -11.5 99    -11.6 0     0     999.5    NA       0.0000   -SN      BR    2600  0    
2019/07/23  23:11:01  BASE  1.66404  178  4.02192  216  -11.5 99    -11.6 0     0     999.5    NA       0.0000   -SN      BR    2400  0    
2019/07/23  23:12:01  BASE  1.56408  193  3.99252  218  -11.5 99    -11.6 0     0     999.5    NA       0.0000   -SN      BR    2500  0    
2019/07/23  23:13:01  BASE  1.61112  180  3.32808  217  -11.5 99    -11.6 0     0     999.5    NA       0.0000   -SN      BR    2700  330  
2019/07/23  23:14:01  BASE  1.68168  156  2.81064  209  -11.5 99    -11.6 0     0     999.5    NA       0.0000   -SN      BR    2800  360  
2019/07/23  23:15:01  BASE  1.40532  153  2.81064  209  -11.5 99    -11.6 0     0     999.5    NA       0.0000   -SN      BR    3000  360  
2019/07/23  23:16:01  BASE  1.16424  173  2.72244  190  -11.5 99    -11.6 0     0     999.5    NA       0.0000   -SN      BR    3900  520  
2019/07/23  23:17:01  BASE  1.87572  193  3.69264  210  -11.5 99    -11.6 0     0     999.5    NA       0.0000   -SN      BR    6000  1050 
2019/07/23  23:18:01  BASE  2.86944  203  3.69264  210  -11.5 99    -11.6 0     0     999.5    NA       0.0000   -SN      BR    9999  390  
2019/07/23  23:19:01  BASE  3.25164  209  4.41588  208  -11.5 99    -11.6 0     0     999.5    NA       0.0000   -SN      BR    9999  790  
2019/07/23  23:20:01  BASE  3.68676  210  4.41588  208  -11.4 99    -11.6 0     0     999.5    NA       0.0000   -SN      BR    9999  980  
2019/07/23  23:21:01  BASE  3.66912  207  4.41588  208  -11.4 99    -11.6 0     0     999.6    NA       0.0000   -SN      BR    9999  980  
2019/07/23  23:22:01  BASE  3.08112  193  4.41588  208  -11.4 99    -11.6 0     0     999.6    NA       0.0000   -SN      BR    9999  690  
2019/07/23  23:23:01  BASE  2.56956  181  4.41588  208  -11.4 99    -11.6 0     0     999.6    NA       0.0000   -SN      BR    9999  1020 
2019/07/23  23:24:01  BASE  2.61072  190  4.41588  208  -11.5 99    -11.6 0     0     999.6    NA       0.0000   -SN      BR    9999  950  
2019/07/23  23:25:01  BASE  2.68716  205  4.41588  208  -11.5 99    -11.6 0     0     999.6    NA       0.0000   -SN      BR    9999  430  
2019/07/23  23:26:01  BASE  2.39316  208  4.41588  208  -11.5 99    -11.6 0     0     999.6    NA       0.0000   -SN      9000  1050  0    
2019/07/23  23:27:01  BASE  2.92824  224  4.78044  245  -11.5 99    -11.6 0     0     999.6    NA       0.0000   -SN      4800  330   0    
2019/07/23  23:28:01  BASE  3.7338   244  4.96272  256  -11.4 99    -11.6 0     0     999.6    NA       0.0000   -SN      BR    5000  330  
2019/07/23  23:29:01  BASE  3.78084  247  4.96272  256  -11.4 99    -11.5 0     0     999.7    NA       0.0000   -SN      BR    9999  980  
2019/07/23  23:30:01  BASE  3.78084  247  4.96272  256  -11.4 99    -11.5 0     0     999.6    NA       0.0000   -SN      BR    9999  850  
2019/07/23  23:31:01  BASE  4.0572   248  5.35668  247  -11.4 99    -11.5 0     0     999.6    NA       0.0000   -SN      BR    9999  980  
2019/07/23  23:32:01  BASE  4.00428  252  5.35668  247  -11.4 99    -11.5 0     0     999.6    NA       0.0000   -SN      BR    9999  850  
2019/07/23  23:33:01  BASE  3.68088  254  5.35668  247  -11.4 99    -11.5 0     0     999.6    NA       0.0000   -SN      9999  1020  0    
2019/07/23  23:34:01  BASE  3.61032  241  5.35668  247  -11.4 99    -11.5 0     0     999.6    NA       0.0000   -SN      9999  950   0    
2019/07/23  23:35:01  BASE  3.86904  227  5.35668  247  -11.4 99    -11.5 0     0     999.6    NA       0.0000   -SN      9999  980   0    
2019/07/23  23:36:01  BASE  3.7044   227  5.35668  247  -11.4 99    -11.5 0     0     999.7    NA       0.0000   -SN      9999  360   0    
2019/07/23  23:37:01  BASE  3.16344  223  5.35668  247  -11.4 99    -11.5 0     0     999.7    NA       0.0000   -SN      5000  200   1280 
2019/07/23  23:38:01  BASE  2.79888  213  5.35668  247  -11.4 99    -11.5 0     0     999.7    NA       0.0000   -SN      5000  330   0    
2019/07/23  23:39:01  BASE  2.97528  206  5.35668  247  -11.4 99    -11.5 0     0     999.7    NA       0.0000   -SN      BR    4300  300  
2019/07/23  23:40:01  BASE  3.89256  204  5.35668  247  -11.4 99    -11.5 0     0     999.7    NA       0.0000   -SN      BR    4000  330  
2019/07/23  23:41:01  BASE  4.46292  202  5.08032  198  -11.4 99    -11.5 0     0     999.7    NA       0.0000   -SN      BR    6000  300  
2019/07/23  23:42:01  BASE  4.21596  196  5.08032  198  -11.4 99    -11.5 0     0     999.7    NA       0.0000   -SN      BR    9999  360  
2019/07/23  23:43:01  BASE  3.60444  191  5.08032  198  -11.4 99    -11.5 0     0     999.7    NA       0.0000   -SN      BR    9999  260  
2019/07/23  23:44:01  BASE  3.12228  190  5.08032  198  -11.4 99    -11.5 0     0     999.7    NA       0.0000   -SN      BR    6000  260  
2019/07/23  23:45:01  BASE  2.92236  198  5.08032  198  -11.4 99    -11.5 0     0     999.7    NA       0.0000   -SN      BR    3100  0    
2019/07/23  23:46:01  BASE  2.89884  204  5.08032  198  -11.4 99    -11.5 0     0     999.7    NA       0.0000   -SN      BR    2900  330  
2019/07/23  23:47:01  BASE  3.3516   221  5.08032  198  -11.4 99    -11.5 0     0     999.7    NA       0.0000   -SN      BR    5000  360  
2019/07/23  23:48:01  BASE  4.04544  240  5.08032  198  -11.4 99    -11.5 0     0     999.7    NA       0.0000   -SN      BR    9999  300  
2019/07/23  23:49:01  BASE  4.28064  242  5.08032  198  -11.4 99    -11.6 0     0     999.7    NA       0.0000   -SN      BR    9999  330  
2019/07/23  23:50:01  BASE  4.03368  242  5.08032  198  -11.4 99    -11.6 0     0     999.7    NA       0.0000   -SN      BR    9999  390  
2019/07/23  23:51:00  BASE  3.74556  250  5.02152  242  -11.5 99    -11.6 0     0     999.7    NA       0.0000   -SN      BR    9999  950  
2019/07/23  23:52:01  BASE  3.43392  254  5.02152  242  -11.5 99    -11.6 0     0     999.8    NA       0.0000   -SN      BR    9999  790  
2019/07/23  23:53:01  BASE  2.84592  254  5.02152  242  -11.5 99    -11.7 0     0     999.8    NA       0.0000   -SN      BR    9999  950  
2019/07/23  23:54:01  BASE  2.85768  247  5.02152  242  -11.5 99    -11.7 0     0     999.8    NA       0.0000   -SN      BR    9999  1050 
2019/07/23  23:55:00  BASE  4.00428  231  5.3214   223  -11.5 99    -11.7 0     0     999.8    NA       0.0000   -SN      BR    9999  1050 
2019/07/23  23:56:00  BASE  4.86276  226  5.3214   230  -11.5 99    -11.6 0     0     999.8    NA       0.0000   -SN      9999  920   0    
2019/07/23  23:57:00  BASE  4.6746   227  5.3214   230  -11.5 99    -11.6 0     0     999.8    NA       0.0000   -SN      9999  360   0    
2019/07/23  23:58:00  BASE  4.40412  226  5.3214   230  -11.5 100   -11.5 0     0     999.9    NA       0.0000   -SN      9999  950   0    
2019/07/23  23:59:01  BASE  4.63344  224  5.3214   230  -11.4 100   -11.5 0     0     999.9    NA       0.0000   -SN      9999  950   0